     2              OBSERVATION DATA    GPS                 RINEX VERSION / TYPE
ASRINEXO V2.4.4 UX USGS 09-FEB-95 12:12                     PGM / RUN BY / DATE
                                                            COMMENT
Original Marker Name: hp74 HPGN_07-04_1991_CDOT             COMMENT
Campaign Name: usgs.northridge.profile                      COMMENT
4-Character Station Name: HP74                              COMMENT
6-Character Antenna Code: ASHP12                            COMMENT
Vertical Measurement Point: EGP                             COMMENT
Vertical Offset to Rinex Ref. Point: 0.0593                 COMMENT
Radial Measurement Point: EGP                               COMMENT
Radial Offset to Rinex Ref. Point: 0.1425                   COMMENT
Antenna Height from Field Measurement: 1.4620 m             COMMENT
Additional Antenna Identification Info.:                    COMMENT
Ashtech L1/L2 Revision B                                    COMMENT
Original XYZ: -2510650.2900 -4612240.0400 3610892.7400      COMMENT
New XYZ position is based on association with SCEC monument COMMENT
E1E9I9U4+0011. Position of that monument is believed to be  COMMENT
valid to within 1 m horizontally; vertical accuracy         COMMENT
should be no worse than 3-times this value.                 COMMENT
                                                            COMMENT
Revised Rinex header created by UCSD GPS archive for        COMMENT
GSAC on 12-Nov-1999 (1999:316) 17:54:10 GMT                 COMMENT
For assistance contact dagnew@ucsd.edu or hjohnson@ucsd.edu COMMENT
                                                            COMMENT
HP74 HPGN_07-04_1991_CDOT                                   MARKER NAME
KWC US GEOLOGICAL SURVEY                                    OBSERVER / AGENCY
582 ASHTECH Z-XII3 1E00                                     REC # / TYPE / VERS
68 ASHTECH GEODETIC P                                       ANT # / TYPE
 -2516978.0000 -4627970.0000  3583979.0000                  APPROX POSITION XYZ
        1.3957        0.0000        0.0000                  ANTENNA: DELTA H/E/N
     1     1     0                                          WAVELENGTH FACT L1/2
     5    C1    L1    L2    P1    P2                        # / TYPES OF OBSERV
    30                                                      INTERVAL
  1995     1    31    15    59    0.000000                  TIME OF FIRST OBS
  1995     1    31    22    30   30.000000                  TIME OF LAST OBS
                                                            END OF HEADER
 95  1 31 15 59  0.0000000  0  2  1 15
  19398662.321       10398.12719
  17699772.611      -21521.21219
 95  1 31 15 59 30.0000000  0  4  1 25 14 15
  19405542.718       46531.048 9
  19641537.233    19641537.233                    19641537.2334   25102408.758
  25102408.758                                    25102408.7584
  17689150.353      -77360.05059    -46224.43959  17689150.8454   17689160.8804
 95  1 31 16  0  0.0000000  0  2  1 25
  22709969.039       81791.88059     57406.57359  22709968.4114   22709974.6244
  20831019.817     -106076.30619
 95  1 31 16  0 30.0000000  0  3  1 20 25
  22716536.191      116324.32249     84314.94649  22716539.0564   22716544.5384
  24784555.554      -62432.67919                                  20821267.436
                   -157305.616 9   -114210.26159                  20821273.4344
 95  1 31 16  1  0.0000000  0  6  1 21 29 25 14 15
  22722984.760      150199.52549    110711.18249  22722985.3244   22722992.4514
  23227407.778      109114.16159     76932.15259  23227403.4174   23227409.8604
  24753152.103     -331626.45159   -237112.61459  24753164.4114   24753169.7174
  20811482.191     -208723.76959   -154276.35049  20811484.4984   20811489.4464
  23533606.112     -482267.66959   -349688.80959  23533605.5214   23533611.3064
  20954712.912     -246324.69449   -177885.31049  20954714.9634   20954720.4014
 95  1 31 16  2  0.0000000  0  6  1 21 29 25 14 15
  22735533.127      216150.32149    162101.31849  22735535.2824   22735542.3524
  23242175.014      186734.24649    137415.21249  23242175.0484   23242180.1744
  24709390.154     -561640.13949   -416344.09749  24709393.5504   24709401.4584
  20791830.092     -312001.52249   -234752.52949  20791831.8344   20791836.0024
  23486360.174     -730556.24549   -543160.41449  23486356.8994   23486364.4154
  20933190.136     -359423.70949   -266014.43749  20933193.0254   20933198.6264
 95  1 31 16  2 30.0000000  0  6  1 21 29 25 14 15
  22741652.666      248302.45349    187154.88149  22741653.8154   22741660.7684
  23249451.423      224963.88549    167204.49549  23249449.9054   23249454.7124
  24687360.274     -677395.80449   -506543.32649  24687365.7704   24687373.5644
  20781978.212     -363774.61049   -275095.20949  20781979.4234   20781984.3094
  23462551.279     -855653.72049   -640638.97349  23462551.8164   23462559.1814
  20922428.360     -415990.39549   -310092.39049  20922428.7274   20922434.3644
 95  1 31 16  3  0.0000000  0  6  1 21 29 25 14 15
  22747676.180      279955.29349    211819.38049  22747677.3184   22747684.1644
  23256662.411      262872.53449    196743.64449  23256663.2254   23256667.6874
  24665239.520     -793594.35349   -597087.68449  24665253.2484   24665262.1554
  20772119.860     -415574.04549   -315458.41149  20772122.3034   20772127.1264
  23438635.753     -981320.50549   -738561.16049  23438638.0644   23438645.4484
  20911670.071     -472517.67849   -354139.63749  20911672.1754   20911677.5914
 95  1 31 16  3 30.0000000  0  6  1 21 29 25 14 15
  22753606.005      311115.96349    236100.36949  22753607.0574   22753613.8974
  23263824.058      300499.16849    226063.04349  23263823.4744   23263829.3164
  24643037.950                                    24643063.193    24643071.8394
  20762263.994     -467361.83249   -355812.53649  20762267.4104   20762272.3234
  23414627.444    -1107497.47349   -836880.88549  23414627.9404   23414634.2254
  20900928.202     -528966.07949   -398125.42049  20900930.5974   20900935.6534
 95  1 31 16  4  0.0000000  0  5  1 21 25 14 15
  22759437.893      341765.64449    259983.18549  22759440.0284   22759445.8604
  23270931.335      337849.83549    255167.38949  23270931.1134   23270936.6904
  20752416.081     -519118.15049   -396142.14249  20752418.6974   20752423.5144
  23390518.073    -1234180.97749   -935595.30649  23390520.6044   23390526.8034
  20890204.872     -585329.89949   -442045.29249  20890204.7424   20890210.0934
 95  1 31 16  4 30.0000000  0  5  1 21 25 14 15
  22765175.134      371921.85649    283481.49049  22765178.3904   22765184.4654
  23277982.928      374928.00849    284059.40549  23277986.7174   23277993.5504
  20742577.843     -570820.51049   -436429.69849  20742579.9354   20742585.1684
  23366319.935    -1361361.49149  -1034697.00549  23366318.6004   23366324.6684
  20879494.949     -641595.57349   -485888.69449  20879497.5514   20879503.7014
 95  1 31 16  5  0.0000000  0  5  1 21 25 14 15
  22770820.820      401597.27949    306605.13849  22770825.5554   22770831.4644
  23284991.014      411727.08749    312733.93449  23284989.4584   23284995.7054
  20732750.710     -622464.81249   -476672.01949  20732752.3884   20732757.7304
  23342025.906    -1489020.76249  -1134171.74449  23342025.7754   23342031.8004
  20868811.879     -697744.56349   -529641.16749  20868812.6874   20868818.7694
 95  1 31 16  5 30.0000000  0  6  1 21 29 25 14 15
  22776383.820      430803.92349    329363.51649  22776383.1784   22776389.3584
  23291933.751      448235.95449    341182.34449  23291937.8114   23291945.2184
  24553573.176     -134199.44519
  20722931.547     -674060.18249   -516876.21049  20722934.1284   20722939.3464
  23317640.910    -1617159.32649  -1234019.97749  23317642.2654   23317648.0364
  20858147.961     -753775.79049   -573301.88649  20858150.5094   20858156.4864
 95  1 31 16  6  0.0000000  0  6  1 21 29 25 14 15
  22781859.438      459587.79849    351792.45549  22781860.3054   22781866.6484
  23298836.279      484468.25849    369415.23849  23298832.2694   23298839.7614
  24531031.822     -252691.51759   -172993.73659  24531031.4504   24531035.4244
  20713127.506     -725598.03449   -557035.58449  20713126.5904   20713131.9364
  23293160.491    -1745779.73549  -1334243.66449  23293166.7924   23293172.8654
  20847511.568     -809676.77649   -616861.11249  20847512.7174   20847519.1914
 95  1 31 16  6 30.0000000  0  6  1 21 29 25 14 15
  22787255.951      487965.23649    373904.70449  22787261.1664   22787266.4114
  23305675.408      520436.32449    397442.24749  23305677.6644   23305684.4124
  24508417.072     -371545.41249   -265607.17149  24508416.6034   24508421.5364
  20703329.072     -777074.30349   -597146.97849  20703331.4134   20703336.3394
  23268597.397    -1874862.60249  -1434827.71249  23268604.1044   23268610.4994
  20836902.911     -865436.32349   -660310.13149  20836902.4544   20836908.5144
 95  1 31 16  7  0.0000000  0  6  1 21 29 25 14 15
  22792584.635      515936.60949    395700.55149  22792583.6444   22792589.2624
  23312476.347      556170.81049    425287.22849  23312477.5654   23312485.2444
  24485738.515     -490738.67249   -358485.04649  24485734.3584   24485739.5774
  20693547.604     -828480.43449   -637203.71149  20693549.1504   20693553.7894
  23243955.471    -2004379.19649  -1535749.72449  23243957.9544   23243964.9434
  20826320.415     -921038.20449   -703636.28949  20826321.6734   20826327.7434
 95  1 31 16  7 30.0000000  0  6  1 21 29 25 14 15
  22797831.962      543519.89749    417193.98149  22797832.5834   22797838.6544
  23319237.883      591709.01249    452979.26949  23319240.6894   23319247.9934
  24462982.240     -610248.16949   -451609.31649  24462991.3074   24462998.4834
  20683784.485     -879792.78249   -677187.36849  20683784.6014   20683789.5744
  23219232.540    -2134299.53449  -1636986.35249  23219234.3634   23219241.9774
  20815773.552     -976463.53049   -746824.87549  20815774.6994   20815780.4604
 95  1 31 16  8  0.0000000  0  6  1 21 29 25 14 15
  22803001.716      570710.74649    438381.60649  22803006.6164   22803013.5134
  23325967.241      627071.971 9    480534.78359                  23325976.8764
  24440190.101     -730062.85849   -544971.36049  24440190.2804   24440199.3674
  20674039.732     -930987.13749   -717079.08649  20674042.8484   20674047.5584
  23194432.686    -2264613.33949  -1738529.56349  23194435.6774   23194443.3174
  20805261.508    -1031699.13249   -789865.62549  20805263.5314   20805269.0634
 95  1 31 16  8 30.0000000  0  6  1 21 29 25 14 15
  22808105.977      597503.15249    459258.74649  22808104.9504   22808111.4914
  23332672.153      662267.99359    507960.15349  23332667.7624   23332673.3874
  24417331.442     -850169.68749   -638561.06249  24417333.3024   24417342.9704
  20664323.508     -982046.11049   -756865.30949  20664326.6814   20664331.4784
  23169563.873    -2395296.04949  -1840360.23349  23169567.4334   23169574.7654
  20794791.007    -1086732.08649   -832748.46149  20794790.8184   20794796.7894
 95  1 31 16  9  0.0000000  0  6  1 21 29 25 14 15
  22813134.319      623919.56249    479842.91149  22813131.9954   22813138.6664
  23339334.799      697316.26459    535270.43949  23339337.1244   23339343.6354
  24394421.018     -970559.10649   -732370.93249  24394426.1264   24394435.1674
  20654636.943    -1032957.18149   -796536.28349  20654638.6114   20654643.6284
  23144626.962    -2526334.46849  -1942468.08849  23144631.8794   23144638.5634
  20784358.703    -1141546.52349   -875461.02649  20784360.3914   20784366.4094
 95  1 31 16  9 30.0000000  0  6  1 21 29 25 14 15
  22818088.133      649969.92349    500141.83549  22818089.1104   22818095.8354
  23345973.205      732200.78459    562453.05449  23345974.9084   23345979.6084
  24371459.391    -1091248.38549   -826414.57849  24371458.9044   24371467.1854
  20644980.042    -1083712.42449   -836085.82949  20644980.2064   20644985.1354
  23119621.785    -2657750.91949  -2044870.51549  23119624.7294   23119629.3154
  20773970.547    -1196139.75849   -918001.22749  20773971.4744   20773977.3914
 95  1 31 16 10  0.0000000  0  6  1 21 29 25 14 15
  22822983.700      675669.01049    520167.03249  22822980.1164   22822985.7354
  23352582.816      766915.282 9
  24348436.454    -1212228.33649   -920684.63749  24348437.6834   24348444.4164
  20635352.505    -1134298.15649   -875503.29149  20635353.9384   20635358.9424
  23094545.475    -2789550.86849  -2147571.78149  23094543.6124   23094548.1154
  20763625.141    -1250496.56949   -960357.20849  20763627.9304   20763633.4434
 95  1 31 16 10 30.0000000  0  6  1 21 29 25 14 15
  22827808.850      701038.43249    539935.37449  22827808.2414   22827814.0234
  23359157.592      801469.04159    616428.18459  23359155.5794   23359163.6234
  24325358.661    -1333480.64849  -1015167.01249  24325365.8914   24325373.4914
  20625761.205    -1184707.20349   -914783.07849  20625761.6054   20625766.5094
  23069395.638    -2921717.83749  -2250559.04649  23069394.2474   23069398.6154
  20753331.408    -1304602.84849  -1002517.95649  20753331.7784   20753337.8864
 95  1 31 16 11  0.0000000  0  5  1 29 25 14 15
  22832579.318      726092.90249    559458.51549  22832576.1924   22832585.6814
  24302246.951    -1454977.31959  -1109839.87059  24302247.4194   24302252.7074
  20616204.256    -1234932.92749   -953919.92349  20616203.4994   20616210.9004
  23044170.498    -3054247.91349  -2353829.25249  23044173.8014   23044180.5864
  20743088.233    -1358445.86749  -1044473.65049  20743086.0644   20743091.5524
 95  1 31 16 11 30.0000000  0  6  1 21 29 25 14 15
  22837285.708      750833.17549    578736.36549  22837283.3564   22837288.6984
  23372219.380       27524.08619
  24279085.630    -1576688.72149  -1204679.87549  24279084.2864   24279089.3664
  20606682.451    -1284961.14949   -992903.07349  20606683.9004   20606688.5934
  23018894.521    -3187119.49049  -2457365.54749  23018889.6164   23018896.0104
  20732893.228    -1412012.78949  -1086214.04249  20732892.0714   20732898.2354
 95  1 31 16 11 59.9990000  0  6  1 21 29 25 14 15
  22841935.395      775265.58849    597774.60149  22841932.6774   22841938.9444
  23378709.530       61648.97659     44632.45759  23378713.7524   23378720.7434
  24255888.729    -1698576.76249  -1299657.57749  24255891.0294   24255895.2774
  20597202.215    -1334780.06949  -1031722.99849  20597204.0354   20597208.9434
  22993547.599    -3320287.69149  -2561132.97749  22993548.2644   22993555.2674
  20722753.055    -1465286.95549  -1127726.40849  20722754.3934   20722760.3764
 95  1 31 16 12 29.9990000  0  6  1 21 29 25 14 15
  22846522.369      799389.81349    616572.66549  22846523.5094   22846529.4414
  23385186.570       95668.87549     71141.40049  23385188.0654   23385195.9844
  24232659.163    -1820646.07049  -1394776.49949  24232662.1394   24232666.9674
  20587762.101    -1384394.43949  -1070383.55349  20587762.7864   20587767.6014
  22968147.793    -3453746.62049  -2665126.93349  22968150.7594   22968158.8304
  20712671.233    -1518270.01149  -1169011.92849  20712672.0324   20712678.1204
 95  1 31 16 12 59.9990000  0  6  1 21 29 25 14 15
  22851056.982      823222.64849    635143.65749  22851059.2174   22851065.7974
  23391647.754      129608.46149     97587.74949  23391647.5524   23391654.7004
  24209405.250    -1942883.33249  -1490026.25049  24209399.7104   24209405.9504
  20578363.948    -1433782.75549  -1108867.96349  20578364.3434   20578369.1784
  22942704.810    -3587457.13949  -2769316.92049  22942706.8814   22942714.7154
  20702650.026    -1570939.50449  -1210053.10749  20702649.6664   20702655.7274
 95  1 31 16 13 29.9990000  0  6  1 21 29 25 14 15
  22855540.173      846775.20749    653496.24849  22855541.3084   22855546.6264
  23398093.312      163485.09549    123985.04149  23398094.4094   23398101.8844
  24186110.520    -2065303.30449  -1585418.41049  24186104.3484   24186110.9544
  20569011.663    -1482930.09649  -1147164.60649  20569012.0964   20569016.7244
  22917218.805    -3721405.17349  -2873691.98449  22917218.3374   22917224.6444
  20692687.406    -1623285.25549  -1250842.02449  20692688.7794   20692694.6904
 95  1 31 16 13 59.9990000  0  6  1 21 29 25 14 15
  22859976.822      870073.35149    671650.59849  22859974.5474   22859980.6434
  23404533.351      197323.87149    150352.82349  23404533.7384   23404540.7294
  24162763.203    -2187912.59449  -1680958.08849  24162771.9084   24162778.5414
  20559707.532    -1531822.93449  -1185262.93149  20559708.2714   20559712.6244
  22891682.702    -3855581.14649  -2978244.68149  22891685.9044   22891691.1194
  20682788.973    -1675297.10649  -1291370.75849  20682791.3034   20682797.3904
 95  1 31 16 14 29.9990000  0  6  1 21 29 25 14 15
  22864361.627      893125.63149    689613.36649  22864360.8584   22864367.4284
  23410962.219      231122.17149    176689.05749  23410964.8224   23410971.8454
  24139403.661    -2310721.28949  -1776653.14749  24139402.7624   24139409.5904
  20550448.734    -1580460.22449  -1223162.12649  20550452.8264   20550456.9354
  22866107.831    -3989984.59949  -3082974.65249  22866110.1864   22866114.3934
  20672957.140    -1726968.51649  -1331634.21449  20672958.6664   20672964.9054
 95  1 31 16 14 59.9990000  0  6  1 21 29 25 14 15
  22868701.184      915937.31549    707388.65049  22868701.9094   22868708.7474
  23417395.265      264872.75249    202988.10949  23417387.2084   23417392.6764
  24115992.537    -2433717.01549  -1872493.95749  24115997.0184   24116003.1354
  20541244.901    -1628833.01349  -1260855.21649  20541247.5344   20541252.0744
  22840489.103    -4124611.40949  -3187878.68149  22840491.2114   22840495.4344
  20663191.800    -1778294.41949  -1371628.44549  20663191.9284   20663197.8154
 95  1 31 16 15 29.9990000  0  6  1 21 29 25 14 15
  22873001.397      938527.86549    724991.61349  22873000.6074   22873007.5914
  23423808.678      298581.78449    229254.76949  23423802.5654   23423807.5944
  24092559.926    -2556863.66049  -1968452.42349  24092563.6504   24092568.2284
  20532097.008    -1676916.34249  -1298322.75649  20532097.4434   20532102.3734
  22814829.048    -4259461.99249  -3292957.08149  22814829.6694   22814834.2714
  20653493.549    -1829254.92449  -1411337.94749  20653494.3154   20653500.3824
 95  1 31 16 15 59.9990000  0  6  1 21 29 25 14 15
  22877255.685      960883.07449    742411.21149  22877254.8464   22877261.9464
  23430196.322      332236.46649    255479.08649  23430205.5844   23430209.1874
  24069099.133    -2680153.07549  -2064522.09349  24069102.3764   24069106.5134
  20522997.966    -1724730.22049  -1335580.33649  20522998.6144   20523003.6764
  22789121.154    -4394545.70849  -3398217.13349  22789123.7354   22789129.2504
  20643865.073    -1879858.17749  -1450769.07649  20643864.8304   20643870.9714
 95  1 31 16 16 29.9990000  0  6  1 21 29 25 14 15
  22881465.862      983002.19149    759646.84349  22881464.1934   22881471.0974
  23436597.387      365845.24449    281667.66049  23436600.6134   23436605.8024
  24045608.906    -2803557.31449  -2160681.29149  24045618.8404   24045623.4594
  20513951.882    -1772258.55649  -1372615.41049  20513954.4994   20513959.5274
  22763370.450    -4529864.23249  -3503660.14149  22763372.7914   22763379.8734
  20634304.387    -1930093.54349  -1489913.53249  20634305.2174   20634311.0534
 95  1 31 16 16 59.9990000  0  6  1 21 29 25 14 15
  22885632.603     1004904.61349    776713.60949  22885632.2244   22885638.6484
  23442992.244      399417.10149    307827.50149  23442989.7004   23442995.7264
  24022105.975    -2927053.55049  -2256912.13249  24022118.7194   24022122.1024
  20504965.655    -1819482.66949  -1409413.43149  20504968.1014   20504973.1044
  22737577.860    -4665409.22049  -3609279.59849  22737579.4624   22737586.7504
  20624816.029    -1979950.13449  -1528762.84049  20624818.0514   20624823.5574
 95  1 31 16 17 29.9990000  0  6  1 21 29 25 14 15
  22889757.168     1026595.70649    793615.71649  22889759.9764   22889765.7114
  23449369.982      432958.94449    333963.96149  23449372.6464   23449379.3504
  23998587.385    -3050655.07049  -2353225.00849  23998597.9554   23998602.8184
  20496036.476    -1866403.37249  -1445975.02949  20496039.4534   20496044.5504
  22711749.991    -4801167.50149  -3715065.26349  22711745.7544   22711752.9584
  20615402.626    -2029423.57249  -1567313.59049  20615403.7134   20615409.0324
 95  1 31 16 17 59.9990000  0  6  1 21 29 25 14 15
  22893846.812     1048091.91149    810365.95949  22893849.9954   22893856.3494
  23455756.525      466487.37049    360089.92749  23455753.8814   23455760.1304
  23975051.278    -3174375.11849  -2449630.22049  23975055.5704   23975059.5634
  20487168.593    -1913014.84849  -1482295.67349  20487169.5904   20487174.8164
  22685875.714    -4937115.14849  -3820998.48249  22685876.0574   22685882.6294
  20606060.746    -2078504.67749  -1605558.62449  20606063.7704   20606069.4244
 95  1 31 16 18 29.9990000  0  6  1 21 29 25 14 15
  22897900.612     1069398.90449    826968.76149  22897904.6524   22897912.2434
  23462133.507      500002.32749    386205.37749  23462131.9854   23462137.4064
  23951486.564    -3298224.81749  -2546136.48549  23951487.4764   23951491.6384
  20478361.340    -1959299.93549  -1518361.98849  20478361.9434   20478366.9524
  22659974.719    -5073233.60249  -3927064.80549  22659973.9154   22659979.6414
  20596800.116    -2127188.58849  -1643494.15849  20596799.8394   20596805.3114
 95  1 31 16 18 59.9990000  0  6  1 21 29 25 14 15
  22901919.870     1090516.22149    843423.75649  22901923.0574   22901930.4274
  23468505.195      533513.87649    412318.17749  23468509.1514   23468514.0674
  23927896.518    -3422210.73949  -2642748.86549  23927894.9234   23927898.5174
  20469615.424    -2005273.57649  -1554185.61849  20469613.5364   20469618.5134
  22634044.025    -5209498.38449  -4033245.15849  22634044.1164   22634048.8464
  20587608.509    -2175471.11749  -1681116.92849  20587612.0604   20587617.4874
 95  1 31 16 19 29.9990000  0  6  1 21 29 25 14 15
  22905904.065     1111432.60449    859722.18649  22905903.6374   22905910.6024
  23474888.975      567029.37149    438434.05849  23474885.5834   23474892.0714
  23904272.479    -3546326.13249  -2739462.12949  23904276.8154   23904282.1754
  20460924.189    -2050938.97749  -1589769.06049  20460923.7974   20460928.3204
  22608087.590    -5345912.06949  -4139541.54149  22608084.6904   22608089.6094
  20578500.400    -2223355.13749  -1718429.17449  20578499.7024   20578505.3144
 95  1 31 16 19 59.9990000  0  6  1 21 29 25 14 15
  22909845.649     1132142.93249    875860.06449  22909844.8504   22909851.9894
  23481264.170      600563.22449    464564.23649  23481267.4114   23481274.1404
  23880636.148    -3670542.61949  -2836254.19849  23880639.3474   23880644.0464
  20452290.940    -2096289.36349  -1625107.03449  20452293.9144   20452298.5334
  22582094.647    -5482476.13249  -4245955.09549  22582097.1784   22582101.9324
  20569462.370    -2270837.20549  -1755428.20249  20569464.4924   20569469.9384
 95  1 31 16 20 29.9990000  0  6  1 21 29 25 14 15
  22913749.350     1152648.79049    891838.59449  22913746.5294   22913754.7474
  23487653.944      634122.08249    490713.90249  23487653.9834   23487660.9274
  23856990.809    -3794824.61849  -2933097.32049  23856990.2594   23856993.3674
  20443723.380    -2141328.43849  -1660202.43549  20443723.2694   20443727.6184
  22556077.233    -5619188.63949  -4352484.32749  22556081.1544   22556086.8614
  20560505.895    -2317910.82949  -1792108.97749  20560506.7514   20560512.0894
 95  1 31 16 20 59.9990000  0  6  1 21 29 25 14 15
  22917609.365     1172951.94149    907659.15749  22917609.6364   22917617.8834
  23494041.695      667703.44449    516881.08349  23494043.8294   23494051.7924
  23833334.378    -3919147.19149  -3029972.06449  23833332.7034   23833336.0274
  20435210.613    -2186051.33049  -1695051.45449  20435212.7144   20435217.0484
  22530031.631    -5756063.38549  -4459139.96349  22530034.9874   22530041.2344
  20551627.641    -2364571.09849  -1828467.65049  20551627.1804   20551632.8694
 95  1 31 16 21 29.9990000  0  6  1 21 29 25 14 15
  22921432.869     1193046.36249    923317.08449  22921433.8104   22921440.9564
  23500435.750      701278.40149    543043.29949  23500433.5914   23500440.8714
  23809662.370    -4043524.67449  -3126889.59349  23809664.0644   23809668.1304
  20426762.326    -2230457.74349  -1729653.86349  20426762.5064   20426766.8444
  22503951.766    -5893121.05049  -4565938.13349  22503953.9664   22503960.5554
  20542826.492    -2410827.59249  -1864511.69149  20542824.8444   20542830.8034
 95  1 31 16 21 59.9990000  0  6  1 21 29 25 14 15
  22925221.341     1212933.99149    938813.89049  22925218.8964   22925225.6654
  23506825.830      734839.37949    569194.62049  23506820.7814   23506828.7804
  23785975.446    -4167965.65149  -3223856.62649  23785983.4384   23785987.9884
  20418373.093    -2274545.00349  -1764007.58549  20418373.1174   20418377.6074
  22477836.453    -6030347.05949  -4672867.47849  22477841.1224   22477847.9964
  20534098.214    -2456675.78549  -1900237.57849  20534100.3244   20534106.1454
 95  1 31 16 22 29.9990000  0  6  1 21 29 25 14 15
  22928965.495     1232617.15949    954151.38049  22928964.7324   22928970.8194
  23513204.252      768380.03449    595330.10249  23513203.2714   23513211.5794
  23762289.202    -4292484.55649  -3320884.37149  23762288.0094   23762292.8234
  20410046.583    -2318306.58949  -1798107.53049  20410045.5834   20410050.3964
  22451697.138    -6167740.38749  -4779927.21149  22451696.1054   22451702.6144
  20525451.821    -2502116.37349  -1935645.84649  20525453.2194   20525459.1274
 95  1 31 16 22 59.9990000  0  6  1 21 29 25 14 15
  22932672.511     1252092.06049    969326.57949  22932671.4674   22932677.2494
  23519586.659      801903.93149    621452.52549  23519583.3094   23519591.6914
  23738576.202    -4417101.77749  -3417988.72149  23738573.9134   23738579.9034
  20401781.086    -2361728.28149  -1831942.62949  20401782.5144   20401787.4904
  22425522.005    -6305287.30449  -4887106.62349  22425521.9844   22425528.4584
  20516883.633    -2547151.92149  -1970738.50049  20516883.5214   20516888.7694
 95  1 31 16 23 29.9990000  0  6  1 21 29 25 14 15
  22936338.829     1271371.94149    984349.82649  22936340.3734   22936345.9354
  23525963.253      835440.01549    647584.42649  23525963.7094   23525972.3384
  23714845.293    -4541826.16949  -3515176.56149  23714837.8024   23714845.6384
  20393582.421    -2404818.34549  -1865519.31549  20393582.6174   20393587.6584
  22399322.219    -6442967.44549  -4994389.84549  22399322.3834   22399328.6594
  20508390.999    -2591780.75449  -2005514.23549  20508390.9604   20508396.1924
 95  1 31 16 23 59.9990000  0  6  1 21 29 25 14 15
  22939972.937     1290458.17849    999222.18349  22939972.0144   22939978.8724
  23532343.565      869005.44049    673739.18149  23532350.0184   23532359.6184
  23691090.564    -4666653.37249  -3612444.52749  23691084.2804   23691092.3394
  20385443.689    -2447582.06449  -1898841.70249  20385445.3494   20385449.9824
  22373096.637    -6580778.16849  -5101774.82549  22373097.5774   22373103.9954
  20499974.884    -2636002.97349  -2039973.13149  20499975.5374   20499981.1004
 95  1 31 16 24 29.9990000  0  6  1 21 29 25 14 15
  22943571.348     1309364.04949   1013953.96149  22943569.6944   22943577.0244
  23538751.462      902608.06849    699922.93249  23538744.0214   23538754.0264
  23667311.676    -4791586.44749  -3709794.99749  23667310.6214   23667317.6894
  20377367.398    -2490031.14949  -1931918.92149  20377367.4404   20377372.4274
  22346849.466    -6718716.47349  -5209259.20949  22346848.8454   22346855.0454
  20491636.074    -2679814.97349  -2074112.37049  20491638.3074   20491644.1464
 95  1 31 16 24 59.9990000  0  6  1 21 29 25 14 15
  22947135.086     1328090.35949   1028545.82449  22947132.4844   22947139.6444
  23545140.292      936231.89749    726123.23549  23545141.4154   23545151.1594
  23643516.368    -4916625.30449  -3807227.89349  23643516.2094   23643523.6074
  20369343.512    -2532180.85749  -1964762.85749  20369346.5504   20369351.5874
  22320574.589    -6856780.07049  -5316841.22149  22320576.1314   22320582.2264
  20483380.441    -2723216.47749  -2107931.74949  20483379.3514   20483385.3494
 95  1 31 16 25 29.9990000  0  6  1 21 29 25 14 15
  22950662.166     1346630.72349   1042992.79149  22950661.1794   22950667.9834
  23551530.045      969854.35649    752322.46649  23551539.4964   23551548.4984
  23619703.009    -5041762.56149  -3904737.44949  23619703.6604   23619710.2414
  20361379.202    -2574035.26649  -1997376.69249  20361381.8854   20361386.5534
  22294274.673    -6994987.31149  -5424535.16849  22294276.1174   22294282.0524
  20475197.349    -2766206.37149  -2141430.38549  20475198.6104   20475204.5304
 95  1 31 16 25 59.9990000  0  6  1 21 29 25 14 15
  22954152.908     1364981.12049   1057291.72749  22954153.6774   22954159.1474
  23557935.701     1003442.47349    778494.91449  23557931.9274   23557939.8204
  23595870.772    -5166997.78049  -4002323.33149  23595871.6934   23595878.4494
  20353474.664    -2615578.02749  -2029747.68149  20353476.7824   20353481.1834
  22267949.198    -7133328.33849  -5532333.36849  22267950.6164   22267956.4664
  20467097.242    -2808780.98749  -2174605.43449  20467097.3554   20467103.3144
 95  1 31 16 26 29.9990000  0  6  1 21 29 25 14 15
  22957611.829     1383142.52449   1071443.43349  22957610.0014   22957615.1704
  23564313.670     1036981.31249    804628.94749  23564316.9554   23564320.0614
  23572022.203    -5292326.25949  -4099981.87149  23572022.0584   23572030.4724
  20345632.487    -2656787.12149  -2061858.66749  20345634.8704   20345639.4134
  22241599.581    -7271793.55049  -5640228.33949  22241602.2924   22241607.6504
  20459071.509    -2850936.39949  -2207453.82749  20459075.2794   20459081.4474
 95  1 31 16 26 59.9980000  0  6  1 21 29 25 14 15
  22961027.533     1401105.67349   1085440.63849  22961028.9144   22961033.4644
  23570688.221     1070474.90249    830727.74849  23570690.2344   23570695.7274
  23548165.454    -5417724.78449  -4197695.01449  23548159.7254   23548166.8794
  20337861.198    -2697629.95849  -2093684.26449  20337862.5564   20337867.0824
  22215229.577    -7410378.19049  -5748216.37649  22215230.2374   22215236.2684
  20451135.062    -2892666.24349  -2239970.61349  20451134.4814   20451140.4984
 95  1 31 16 27 29.9980000  0  6  1 21 29 25 14 15
  22964412.250     1418881.21549   1099291.65049  22964411.2574   22964416.5334
  23577066.084     1103954.43249    856815.60649  23577062.0404   23577067.0744
  23524280.987    -5543196.69649  -4295465.34049  23524283.0114   23524290.0874
  20330159.414    -2738097.95049  -2125217.77249  20330161.6974   20330166.2984
  22188835.526    -7549074.93149  -5856291.76449  22188836.8194   22188843.0134
  20443275.435    -2933967.00049  -2272153.05049  20443275.4624   20443281.1684
 95  1 31 16 27 59.9980000  0  6  1 21 29 25 14 15
  22967754.882     1436475.99949   1113001.80549  22967759.0424   22967764.9864
  23583437.628     1137444.05149    882911.31349  23583434.5894   23583440.2444
  23500399.084    -5668729.97349  -4393283.47549  23500395.2564   23500400.4794
  20322530.244    -2778203.83149  -2156469.11549  20322529.9694   20322534.5914
  22162425.876    -7687867.80249  -5964442.05949  22162425.4654   22162431.7414
  20435498.053    -2974835.54149  -2303998.68949  20435498.1634   20435504.1514
 95  1 31 16 28 29.9980000  0  7  1 22 21 29 25 14 15
  22971070.778     1453891.03049   1126571.89749  22971072.7884   22971079.7164
  24078735.659    -3990094.01059  -3084716.22959  24078732.7144   24078740.7164
  23589816.656     1170984.44849    909046.55949  23589817.3424   23589824.3164
  23476494.529    -5794298.16449  -4491128.80249  23476500.5714   23476505.0004
  20314960.583    -2817958.56449  -2187446.84349  20314964.6554   20314969.7184
  22135992.897    -7826760.45449  -6072670.10749  22135994.8264   22136001.3764
  20427803.462    -3015263.88949  -2335501.32149  20427804.9944   20427810.9044
 95  1 31 16 28 59.9980000  0  7  1 22 21 29 25 14 15
  22974355.383     1471140.46749   1140012.95149  22974355.1694   22974361.4274
  24050697.598    -4137433.74849  -3199526.38249  24050694.1474   24050704.1094
  23596212.088     1204608.10949    935246.72349  23596214.7574   23596223.0504
  23452605.159    -5919887.53049  -4588990.65049  23452600.9134   23452606.2394
  20307462.738    -2857385.49349  -2218169.13849  20307462.4204   20307467.3054
  22109546.766    -7965736.27449  -6180962.94749  22109548.7904   22109555.2104
  20420196.842    -3055239.78449  -2366651.38849  20420197.8124   20420203.4774
 95  1 31 16 29 29.9980000  0  7  1 22 21 29 25 14 15
  22977611.256     1488238.32649   1153335.88449  22977609.3394   22977614.9354
  24022608.563    -4285001.09049  -3314513.87449  24022613.5354   24022622.4614
  23602624.136     1238303.75549    961502.99349  23602625.0204   23602636.4764
  23428696.719    -6045503.07649  -4686872.88349  23428697.9824   23428702.2604
  20300016.856    -2896510.36049  -2248656.06149  20300017.2254   20300022.2304
  22083086.898    -8104795.48749  -6289320.77449  22083086.7694   22083092.5724
  20412675.254    -3094764.55949  -2397449.93349  20412676.6434   20412682.3454
 95  1 31 16 29 59.9980000  0  7  1 22 21 29 25 14 15
  22980831.355     1505170.32449   1166529.57649  22980831.3174   22980836.7224
  23994485.552    -4432806.22049  -3429686.67449  23994487.2584   23994495.7754
  23609039.860     1272039.66049    987790.58849  23609044.1444   23609054.8574
  23404788.856    -6171162.84049  -4784789.58949  23404786.5854   23404789.4734
  20292625.865    -2935351.13049  -2278921.60649  20292626.3654   20292630.9054
  22056603.550    -8243963.41949  -6397763.31449  22056604.5384   22056610.1534
  20405237.222    -3133851.26749  -2427907.12749  20405238.4174   20405244.4384
 95  1 31 16 30 29.9980000  0  7  1 22 21 29 25 14 15
  22984023.678     1521947.99149   1179603.03349  22984023.9774   22984029.5554
  23966305.035    -4580861.80649  -3545054.60649  23966312.5074   23966320.1314
  23615458.543     1305805.14749   1014101.25449  23615467.9504   23615479.7024
  23380862.419    -6296879.10349  -4882750.34949  23380864.0604   23380866.9304
  20285294.252    -2973882.09249  -2308945.73749  20285294.2544   20285298.7064
  22030103.115    -8383232.77549  -6506284.88749  22030102.5824   22030108.0624
  20397881.663    -3172498.62449  -2458021.97449  20397884.2024   20397890.3794
 95  1 31 16 30 59.9980000  0  7  1 22 21 29 25 14 15
  22987186.771     1538584.82949   1192566.75149  22987189.7564   22987195.8904
  23938094.064    -4729173.32449  -3660621.98249  23938090.7014   23938098.1254
  23621895.941     1339570.96349   1040412.16649  23621896.3344   23621907.6494
  23356923.632    -6422673.88949  -4980772.27049  23356925.9574   23356929.5084
  20278024.685    -3012082.20049  -2338712.06649  20278024.7974   20278029.4264
  22003582.597    -8522592.54249  -6614876.92049  22003583.6324   22003588.4384
  20390611.310    -3210710.17549  -2487797.23349  20390612.8404   20390619.4614
 95  1 31 16 31 29.9980000  0  7  1 22 21 29 25 14 15
  22990329.227     1555082.46949   1205421.99349  22990329.5414   22990335.4514
  23909822.633    -4877725.45649  -3776376.86849  23909821.8184   23909828.4124
  23628319.230     1373332.77449   1066719.94849  23628320.7024   23628331.8314
  23332974.214    -6548546.90749  -5078855.16649  23332973.6824   23332976.9724
  20270825.659    -3049915.27449  -2368192.38849  20270825.4684   20270829.9744
  21977049.040    -8662030.27449  -6723529.70949  21977049.0754   21977054.4094
  20383423.475    -3248480.39549  -2517228.59349  20383425.7194   20383431.7114
 95  1 31 16 31 59.9980000  0  7  1 22 21 29 25 14 15
  22993437.787     1571436.35849   1218165.23749  22993441.3894   22993447.8534
  23881509.302    -5026510.95549  -3892313.54149  23881508.9054   23881514.0064
  23634750.106     1407105.55349   1093036.31349  23634749.0784   23634759.9024
  23309006.627    -6674493.00149  -5176994.97649  23309006.9184   23309010.5994
  20263698.071    -3087357.79449  -2397368.38949  20263700.3684   20263705.0474
  21950506.699    -8801520.09449  -6832223.07749  21950504.7504   21950510.3964
  20376321.217    -3285805.13449  -2546312.82649  20376323.0624   20376328.9394
 95  1 31 16 32 29.9980000  0  7  1 22 21 29 25 14 15
  22996522.425     1587632.14949   1230785.27749  22996523.1834   22996530.3444
  23853150.800    -5175526.66349  -4008429.66349  23853152.2674   23853157.6514
  23641184.543     1440903.12849   1119371.97849  23641181.0424   23641189.6704
  23285023.523    -6800505.47049  -5275186.49749  23285026.6184   23285031.1964
  20256652.365    -3124406.85049  -2426237.79749  20256650.1054   20256654.8174
  21923950.883    -8941051.13149  -6940948.57149  21923953.0304   21923958.3884
  20369301.778    -3322689.34349  -2575053.78849  20369304.2454   20369310.1874
 95  1 31 16 32 59.9980000  0  7  1 22 21 29 25 14 15
  22999573.346     1603654.89349   1243270.45549  22999571.8834   22999578.8294
  23824756.166    -5324745.86149  -4124704.35449  23824755.2444   23824763.0144
  23647611.989     1474729.69949   1145730.20749  23647619.0364   23647628.0114
  23261028.396    -6926570.97349  -5373419.33749  23261035.5384   23261041.5864
  20249670.457    -3161075.95349  -2454811.14049  20249672.2704   20249676.6314
  21897395.423    -9080613.92549  -7049698.80449  21897395.0194   21897400.6344
  20362369.447    -3359130.07349  -2603449.18049  20362369.8804   20362375.6684
 95  1 31 16 33 29.9980000  0  7  1 22 21 29 25 14 15
  23002585.217     1619487.45849   1255607.46249  23002585.3994   23002591.9344
  23796324.687    -5474168.34849  -4241137.40549  23796321.2034   23796327.5024
  23654062.664     1508599.56949   1172122.19149  23654064.3064   23654073.8474
  23237027.256    -7052677.88049  -5471684.43149  23237037.9504   23237044.7504
  20242766.110    -3197385.86549  -2483104.59149  20242762.6524   20242766.9734
  21870830.348    -9220217.62249  -7158480.90249  21870829.2614   21870835.1464
  20355518.050    -3395130.29149  -2631501.32049  20355519.1234   20355525.0854
 95  1 31 16 33 59.9980000  0  7  1 22 21 29 25 14 15
  23005566.904     1635135.87349   1267800.98149  23005563.4094   23005570.5344
  23767853.070    -5623784.20849  -4357721.16849  23767850.0444   23767853.4564
  23660512.500     1542517.84649   1198551.93149  23660518.4234   23660528.0444
  23213041.301    -7178804.03449  -5569964.54449  23213037.5364   23213044.7934
  20235921.557    -3233343.86849  -2511123.82749  20235919.9604   20235924.3564
  21844254.755    -9359862.13449  -7267294.79749  21844255.6854   21844262.0064
  20348749.454    -3430686.28349  -2659207.30749  20348753.3274   20348759.2864
 95  1 31 16 34 29.9980000  0  7  1 22 21 29 25 14 15
  23008506.251     1650609.37249   1279858.19549  23008507.8084   23008514.9554
  23739337.901    -5773585.69249  -4474449.58449  23739341.5144   23739348.8044
  23666980.259     1576478.15849   1225014.41449  23666980.6034   23666990.1064
  23189029.856    -7304946.76049  -5668257.59349  23189033.4004   23189041.6984
  20229143.236    -3268959.97449  -2538876.64449  20229142.5554   20229147.0464
  21817669.467    -9499559.22849  -7376149.66149  21817672.1794   21817678.2654
  20342071.931    -3465796.65849  -2686566.06249  20342071.7524   20342078.0584
 95  1 31 16 34 59.9980000  0  7  1 22 21 29 25 14 15
  23011420.500     1665928.45649   1291795.07949  23011423.5894   23011430.7124
  23710805.365    -5923556.10049  -4591309.62149  23710805.7134   23710810.5674
  23673448.062     1610472.45849   1251503.35449  23673448.9704   23673456.7304
  23165029.244    -7431104.03349  -5766561.98949  23165026.5354   23165033.9144
  20222425.876    -3304237.56049  -2566365.68249  20222429.6154   20222433.8344
  21791077.644    -9639311.39049  -7485047.43949  21791078.2144   21791084.1544
  20335474.011    -3500454.88249  -2713572.49949  20335476.3394   20335482.7484
 95  1 31 16 35 29.9980000  0  7  1 22 21 29 25 14 15
  23014308.648     1681098.02049   1303615.47849  23014310.0004   23014316.8844
  23682229.499    -6073706.74249  -4708310.07749  23682232.3794   23682236.6854
  23679921.726     1644503.82749   1278021.18049  23679924.9654   23679934.4274
  23141017.294    -7557285.20649  -5864885.02449  23141015.6024   23141021.3714
  20215784.864    -3339171.74649  -2593587.13049  20215782.0454   20215786.2034
  21764466.765    -9779139.71649  -7594004.56749  21764469.7844   21764475.5634
  20328967.627    -3534665.33149  -2740230.01249  20328966.6114   20328972.7344
 95  1 31 16 35 59.9980000  0  7  1 22 21 29 25 14 15
  23017168.601     1696128.17649   1315327.22149  23017169.6834   23017177.0404
  23653627.838    -6224032.29849  -4825446.88249  23653626.3724   23653631.9974
  23686406.287     1678569.34149   1304565.61949  23686406.9674   23686416.8644
  23116990.483    -7683504.46849  -5963237.73949  23116998.0944   23117002.7584
  20209197.968    -3373752.49549  -2620533.17449  20209201.4914   20209206.0834
  21737847.969    -9919039.22149  -7703017.17249  21737847.9514   21737852.7924
  20322542.004    -3568424.10549  -2766535.57749  20322542.5344   20322548.5554
 95  1 31 16 36 29.9980000  0  7  1 22 21 29 25 14 15
  23020001.113     1711030.38249   1326939.24249  23020004.7394   23020013.1484
  23624986.268    -6374529.54349  -4942717.44549  23624987.3284   23624993.4594
  23692902.739     1712682.05749   1331146.84049  23692898.7694   23692908.6654
  23092963.850    -7809775.23149  -6061630.58149  23092969.2264   23092973.8014
  20202689.345    -3407972.38649  -2647198.03249  20202689.3004   20202694.0814
  21711214.481   -10059007.90149  -7812083.69549  21711213.0024   21711217.2484
  20316204.807    -3601728.13649  -2792486.79749  20316205.0584   20316210.9724
 95  1 31 16 36 59.9980000  0  7  1 22 21 29 25 14 15
  23022806.397     1725795.86549   1338444.72949  23022814.4124   23022822.3484
  23596322.454    -6525191.97549  -5060116.71449  23596318.0014   23596323.1664
  23699400.174     1746853.13349   1357773.50649  23699401.5824   23699408.3674
  23068936.911    -7936099.54249  -6160065.13249  23068930.9074   23068935.0944
  20196247.251    -3441820.76849  -2673573.40849  20196248.2844   20196253.1274
  21684564.144   -10199041.94149  -7921201.13849  21684565.1724   21684570.1594
  20309952.423    -3634575.67549  -2818082.30249  20309954.5624   20309960.1174
 95  1 31 16 37 29.9980000  0  7  1 22 21 29 25 14 15
  23025598.554     1740426.81249   1349845.39749  23025598.3954   23025606.9954
  23567614.008    -6676035.44449  -5177657.07549  23567612.6384   23567619.0754
  23705916.478     1781076.81949   1384441.16149  23705915.5704   23705923.0494
  23044876.983    -8062468.04649  -6258534.09549  23044883.8584   23044888.3394
  20189878.548    -3475296.41149  -2699658.33749  20189878.1454   20189882.9624
  21657904.597   -10339122.76449  -8030355.02949  21657908.7444   21657914.0844
  20303789.368    -3666965.90749  -2843321.46649  20303791.0374   20303796.7714
 95  1 31 16 37 59.9980000  0  7  1 22 21 29 25 14 15
  23028355.513     1754926.24449   1361143.58049  23028358.7064   23028366.8924
  23538872.935    -6827057.32049  -5295336.40249  23538873.6084   23538880.4654
  23712434.507     1815335.09349   1411135.77049  23712434.3904   23712442.3704
  23020831.552    -8188872.95149  -6357031.40749  23020830.6724   23020834.4894
  20183573.144    -3508417.50949  -2725466.99849  20183575.2324   20183580.4384
  21631247.348   -10479227.96049  -8139527.91049  21631247.6514   21631253.1164
  20297711.759    -3698900.64249  -2868205.69449  20297713.9584   20297719.6024
 95  1 31 16 38 29.9980000  0  7  1 22 21 29 25 14 15
  23031093.157     1769293.08249   1372338.45749  23031093.1054   23031100.1974
  23510100.057    -6978246.46949  -5413146.08449  23510103.1054   23510111.3734
  23718960.519     1849623.24549   1437853.66749  23718959.8924   23718967.1254
  22996769.751    -8315289.32549  -6455537.66549  22996773.8194   22996778.5004
  20177336.669    -3541191.78649  -2751005.41149  20177338.7904   20177343.6684
  21604580.089   -10619354.60549  -8248717.50149  21604582.5764   21604588.0984
  20291725.257    -3730378.66949  -2892734.04749  20291723.8754   20291729.4874
 95  1 31 16 38 59.9980000  0  7  1 22 21 29 25 14 15
  23033805.921     1783526.95149   1383429.70849  23033801.5644   23033809.2994
  23481302.536    -7129588.33149  -5531074.76649  23481303.5294   23481311.2824
  23725485.789     1883931.15449   1464586.96949  23725488.4934   23725497.6544
  22972717.498    -8441694.40549  -6554035.13549  22972717.9234   22972724.4464
  20171164.545    -3573632.55449  -2776283.94749  20171165.3934   20171170.2774
  21577914.305   -10759486.25149  -8357910.98049  21577916.4014   21577922.2534
  20285820.280    -3761393.53149  -2916901.49049  20285822.0154   20285827.6524
 95  1 31 16 39 29.9980000  0  7  1 22 21 29 25 14 15
  23036482.536     1797627.95449   1394417.41549  23036485.6814   23036492.6244
  23452471.785    -7281079.37349  -5649119.69049  23452474.9844   23452483.0464
  23732021.150     1918261.38649   1491337.67649  23732021.3744   23732029.7134
  22948663.396    -8568081.95649  -6652518.94249  22948666.6594   22948674.1824
  20165052.842    -3605753.44449  -2801313.22949  20165053.2084   20165057.8804
  21551251.393   -10899616.17749  -8467103.11949  21551250.5154   21551256.5354
  20280006.540    -3791944.64149  -2940707.57349  20280008.0584   20280014.1394
 95  1 31 16 39 59.9970000  0  7  1 22 21 29 25 14 15
  23039140.646     1811589.04549   1405296.12049  23039141.6544   23039149.2394
  23423625.904    -7432688.81249  -5767256.86649  23423625.9014   23423632.5914
  23738558.017     1952636.44549   1518123.30149  23738562.1064   23738571.9924
  22924618.907    -8694447.08449  -6750985.26049  22924621.3744   22924627.8994
  20159001.116    -3637539.71849  -2826081.77149  20159004.5884   20159008.9404
  21524582.807   -11039746.08849  -8576295.24549  21524584.8634   21524591.0264
  20274283.028    -3822030.41749  -2964151.05649  20274283.1704   20274289.1414
 95  1 31 16 40 29.9970000  0  7  1 22 21 29 25 14 15
  23041773.461     1825419.66149   1416073.16049  23041773.7584   23041780.8444
  23394759.179    -7584410.00549  -5885481.11349  23394754.9214   23394760.7164
  23745114.670     1987094.41249   1544973.54849  23745119.2194   23745129.1494
  22900574.457    -8820797.33749  -6849440.00949  22900577.7854   22900584.0104
  20153023.667    -3668964.41949  -2850568.56649  20153024.6214   20153028.7064
  21497920.888   -11179870.47749  -8685483.07749  21497920.3324   21497926.2464
  20268648.537    -3851641.40049  -2987224.57849  20268648.5084   20268654.1284
 95  1 31 16 40 59.9970000  0  7  1 22 21 29 25 14 15
  23044376.802     1839128.20049   1426755.07749  23044382.2254   23044390.1214
  23365867.424    -7736239.77949  -6003789.98049  23365862.9154   23365869.0154
  23751696.428     2021649.70149   1571899.66149  23751695.2864   23751705.7404
  22876530.353    -8947142.90949  -6947891.11149  22876534.1574   22876541.5774
  20147113.827    -3700003.66149  -2874754.99649  20147118.2294   20147122.4154
  21471265.314   -11319967.66049  -8794649.71549  21471261.0414   21471266.4614
  20263103.182    -3880772.30649  -3009924.00549  20263105.1724   20263110.7644
 95  1 31 16 41 29.9970000  0  7  1 22 21 29 25 14 15
  23046970.164     1852721.57149   1437347.25149  23046969.6314   23046976.6504
  23336946.704    -7888181.33149  -6122185.94749  23336950.0144   23336954.8654
  23758287.413     2056317.19949   1598913.16549  23758292.7934   23758301.3784
  22852489.154    -9073499.25949  -7046350.62049  22852489.9754   22852495.5504
  20141291.731    -3730614.63649  -2898607.71449  20141292.9944   20141297.4484
  21444608.213   -11460022.22649  -8903783.14749  21444609.2014   21444614.9404
  20257652.472    -3909421.26849  -3032247.89449  20257653.1314   20257659.0674
 95  1 31 16 41 59.9970000  0  6  1 22 29 25 14 15
  23049536.613     1866211.39449   1447858.74249  23049536.6694   23049543.6604
  23308011.300    -8040227.46249  -6240663.37349  23308016.4394   23308022.5304
  22828445.426    -9199869.39049  -7144820.87049  22828443.1474   22828448.2794
  20135552.898    -3760777.32449  -2922111.11849  20135553.1514   20135557.8064
  21417964.881   -11600024.99049  -9012876.21449  21417967.5844   21417973.1944
  20252293.260    -3937586.96249  -3054195.20949  20252293.3044   20252299.4174
 95  1 31 16 42 29.9970000  0  6  1 22 29 25 14 15
  23052084.772     1879604.04649   1458294.51249  23052085.4564   23052092.0664
  23279059.765    -8192372.22749  -6359217.68549  23279063.8444   23279071.2914
  22804398.912    -9326244.74749  -7243295.18949  22804394.4074   22804399.7254
  20129895.304    -3790496.15249  -2945268.65449  20129897.6014   20129902.3004
  21391337.462   -11739962.26249  -9121918.24049  21391337.9574   21391343.7474
  20247026.301    -3965261.00449  -3075759.41449  20247027.6594   20247033.3624
 95  1 31 16 42 59.9970000  0  6  1 22 29 25 14 15
  23054613.334     1892897.05349   1468652.64349  23054614.7104   23054621.3074
  23250096.796    -8344610.86449  -6477845.15049  23250093.3724   23250101.1594
  22780351.500    -9452616.26649  -7341766.50749  22780346.8644   22780352.5674
  20124321.949    -3819787.69649  -2968093.24649  20124323.7454   20124328.4954
  21364716.281   -11879840.56449  -9230914.31649  21364720.0534   21364725.6424
  20241852.906    -3992445.07349  -3096941.82949  20241854.2904   20241860.2744
 95  1 31 16 43 29.9970000  0  6  1 22 29 25 14 15
  23057121.713     1906094.36149   1478936.20649  23057125.8704   23057133.1844
  23221107.739    -8496923.43149  -6596530.22849  23221109.9484   23221117.7684
  22756301.412    -9578970.53149  -7440224.37449  22756302.1924   22756307.7814
  20118826.444    -3848673.10849  -2990601.37149  20118827.1144   20118831.6254
  21338112.008   -12019662.79149  -9339866.69349  21338112.9844   21338118.3954
  20236775.219    -4019138.80049  -3117742.15649  20236774.9934   20236780.7584
 95  1 31 16 43 59.9970000  0  6  1 22 29 25 14 15
  23059617.839     1919197.02349   1489146.02249  23059619.0334   23059625.7394
  23192113.240    -8649293.69749  -6715260.25349  23192114.9564   23192122.8634
  22732265.617    -9705282.88549  -7538649.56149  22732266.4454   22732271.2734
  20113400.100    -3877196.36249  -3012827.29349  20113399.1014   20113403.9624
  21311512.417   -12159444.51049  -9448787.50149  21311513.4814   21311519.0254
  20231788.152    -4045341.80749  -3138160.10349  20231788.8094   20231794.7104
 95  1 31 16 44 29.9970000  0  6  1 22 29 25 14 15
  23062094.719     1932201.89149   1499279.65849  23062094.2584   23062100.7124
  23163110.264    -8801721.72149  -6834035.28849  23163109.6994   23163117.0074
  22708241.252    -9831548.62749  -7637038.41449  22708238.9684   22708244.1924
  20108035.142    -3905373.65249  -3034783.63549  20108037.3894   20108041.8914
  21284920.198   -12299190.39849  -9557680.38949  21284920.7144   21284926.4334
  20226892.365    -4071057.40249  -3158198.25449  20226895.3064   20226901.2624
 95  1 31 16 44 59.9970000  0  6  1 22 29 25 14 15
  23064554.479     1945132.18149   1509355.16449  23064554.1754   23064561.3514
  23134098.142    -8954192.53349  -6952843.67249  23134094.7304   23134102.8244
  22684219.172    -9957762.26449  -7735386.69049  22684220.9894   22684226.4394
  20102743.837    -3933191.28349  -3056459.72049  20102744.1094   20102748.6664
  21258333.993   -12438894.19449  -9666540.47549  21258335.9414   21258341.5174
  20222097.093    -4096280.07949  -3177852.31149  20222095.8264   20222101.4274
 95  1 31 16 45 29.9970000  0  6  1 22 29 25 14 15
  23067000.761     1957983.19649   1519368.87849  23066999.6154   23067007.3274
  23105068.516    -9106709.22949  -7071687.81649  23105071.6614   23105079.8924
  22660214.083   -10083929.22349  -7833698.56949  22660212.3954   22660218.2804
  20097519.039    -3960636.12449  -3077845.31749  20097521.8684   20097526.0144
  21231757.913   -12578553.28249  -9775365.73749  21231759.7904   21231765.4534
  20217388.507    -4121012.01049  -3197123.96949  20217389.3334   20217395.1384
 95  1 31 16 45 59.9970000  0  6  1 22 29 25 14 15
  23069428.086     1970745.89649   1529313.77449  23069428.5424   23069436.0404
  23076044.494    -9259271.94049  -7190567.80549  23076037.8954   23076047.3174
  22636205.778   -10210054.43849  -7931977.94849  22636210.8844   22636217.4314
  20092372.743    -3987696.83549  -3098931.58949  20092372.2894   20092376.4724
  21205190.570   -12718168.71949  -9884156.98449  21205191.1004   21205197.3014
  20212778.480    -4145251.30349  -3216011.76149  20212776.6544   20212782.4934
 95  1 31 16 46 29.9970000  0  6  1 22 29 25 14 15
  23071839.377     1983427.72749   1539195.65749  23071841.8704   23071849.3084
  23046995.539    -9411885.38749  -7309487.34249  23046996.1714   23047006.2314
  22612212.660   -10336162.53449  -8030243.97649  22612213.9364   22612219.6084
  20087297.824    -4014357.52449  -3119706.15749  20087298.8504   20087303.3534
  21178631.496   -12857735.88249  -9992910.61049  21178632.2264   21178638.4294
  20208257.296    -4169001.41949  -3234518.37549  20208257.2244   20208263.0864
 95  1 31 16 46 59.9970000  0  6  1 22 29 25 14 15
  23074234.114     1996025.42749   1549011.97749  23074238.8824   23074246.3744
  23017949.236    -9564543.48649  -7428441.68349  23017946.0614   23017956.7794
  22588224.023   -10462255.21649  -8128497.99949  22588219.0004   22588224.7994
  20082301.145    -4040611.53449  -3140163.83749  20082302.6804   20082307.2294
  21152082.358   -12997258.25549 -10101629.34649  21152082.0284   21152087.9224
  20203826.715    -4192259.20349  -3252641.34749  20203831.2834   20203837.2164
 95  1 31 16 47 29.9970000  0  6  1 22 29 25 14 15
  23076615.285     2008518.20449   1558746.57949  23076616.2294   23076623.5904
  22988889.351    -9717257.78549  -7547439.78949  22988886.4124   22988896.1184
  22564225.911   -10588338.29149  -8226744.52949  22564226.1424   22564231.9084
  20077381.775    -4066469.50249  -3160312.91649  20077381.9034   20077386.3424
  21125539.111   -13136732.52149 -10210310.59049  21125541.0084   21125546.7974
  20199495.862    -4215029.72249  -3270384.63249  20199498.3034   20199503.7144
 95  1 31 16 47 59.9970000  0  6  1 22 29 25 14 15
  23078972.414     2020911.16749   1568403.37149  23078974.8494   23078982.9314
  22959817.189    -9870021.56949  -7666476.48349  22959817.5224   22959826.4214
  22540239.033   -10714397.74449  -8324972.65049  22540238.7904   22540243.4614
  20072531.640    -4091949.45549  -3180167.43649  20072533.2314   20072537.7134
  21099009.253   -13276151.68449 -10318948.90649  21099010.8484   21099016.1634
  20195255.794    -4237311.87649  -3287747.37649  20195258.3094   20195263.8914
 95  1 31 16 48 29.9970000  0  6  1 22 29 25 14 15
  23081316.326     2033200.16049   1577979.11849  23081311.5534   23081321.7294
  22930732.430   -10022840.30049  -7785555.99249  22930737.6514   22930745.5044
  22516253.718   -10840427.86249  -8423177.91849  22516254.8974   22516260.7934
  20067751.583    -4117052.87349  -3199728.55549  20067756.0754   20067760.7694
  21072490.966   -13415500.11149 -10427532.10649  21072493.8114   21072498.8154
  20191109.103    -4259111.87749  -3304734.41349  20191109.9074   20191115.6954
 95  1 31 16 48 59.9970000  0  6  1 22 29 25 14 15
  23083619.204     2045363.93049   1587457.26349  23083626.2664   23083636.6964
  22901651.204   -10175713.89149  -7904678.23649  22901646.9314   22901655.8774
  22492281.300   -10966417.56349  -8521351.70149  22492279.5884   22492285.6034
  20063051.967    -4141771.39749  -3218989.75949  20063052.3804   20063056.9574
  21045992.945   -13554756.83149 -10536043.84449  21045993.9614   21045999.1854
  20187049.992    -4280428.55949  -3321344.83949  20187053.6584   20187059.3124
 95  1 31 16 49 29.9970000  0  6  1 22 29 25 14 15
  23085915.209     2057405.04549   1596839.85349  23085919.1614   23085927.4204
  22872548.681   -10328639.46049  -8023840.99149  22872545.5174   22872554.4564
  22468311.115   -11092368.31349  -8619495.12749  22468312.1254   22468317.3514
  20058421.512    -4166100.03249  -3237947.14949  20058423.0734   20058427.5104
  21019514.040   -13693909.66649 -10644474.62649  21019514.2314   21019519.4854
  20183087.575    -4301264.43349  -3337580.61249  20183088.8224   20183094.5034
 95  1 31 16 49 59.9970000  0  6  1 22 29 25 14 15
  23088191.834     2069332.54549   1606133.94549  23088189.4754   23088196.3834
  22843431.050   -10481608.66149  -8143037.73149  22843436.3264   22843444.1344
  22444346.559   -11218285.00249  -8717612.01749  22444351.1874   22444356.7944
  20053867.833    -4190032.76049  -3256596.03449  20053869.0664   20053873.4664
  20993050.332   -13832963.45049 -10752828.22749  20993053.2174   20993058.4384
  20179212.626    -4321623.36849  -3353444.74549  20179214.3234   20179220.4654
 95  1 31 16 50 29.9970000  0  6  1 22 29 25 14 15
  23090437.094     2081162.10649   1615351.72549  23090441.3194   23090448.7474
  22814320.595   -10634604.06249  -8262254.90849  22814321.9414   22814329.9564
  22420396.113   -11344184.10049  -8815715.18449  22420393.9344   22420399.1744
  20049393.449    -4213542.13849  -3274915.03949  20049395.4124   20049399.6184
  20966608.867   -13971917.44449 -10861104.06549  20966611.1504   20966616.7664
  20175431.142    -4341502.38749  -3368934.91649  20175431.3154   20175437.4034
 95  1 31 16 50 59.9970000  0  6  1 22 29 25 14 15
  23092675.677     2092903.38549   1624500.69949  23092675.6514   23092682.9764
  22785207.314   -10787605.35149  -8381476.67749  22785207.2734   22785214.5644
  22396436.083   -11470067.82649  -8913806.35649  22396438.8624   22396444.1584
  20045000.481    -4236636.69449  -3292910.80049  20045000.7604   20045004.9154
  20940184.660   -14110783.57949 -10969311.43949  20940185.9344   20940191.6314
  20171737.263    -4360901.05349  -3384050.78849  20171739.9814   20171746.4334
 95  1 31 16 51 29.9970000  0  6  1 22 29 25 14 15
  23094896.321     2104574.14749   1633594.72749  23094896.6734   23094903.6944
  22756099.642   -10940586.36249  -8500682.62449  22756096.1564   22756102.5624
  22372488.635   -11595923.51549  -9011875.68049  22372489.2994   22372493.5574
  20040681.900    -4259332.32649  -3310595.72649  20040681.7094   20040686.2634
  20913774.607   -14249576.70949 -11077461.93249  20913774.5544   20913780.1184
  20168138.937    -4379821.78549  -3398794.24349  20168139.8694   20168145.9624
 95  1 31 16 51 59.9970000  0  6  1 22 29 25 14 15
  23097106.770     2116184.01949   1642641.30549  23097105.2804   23097113.5034
  22726990.873   -11093539.58449  -8619866.92549  22726990.6194   22726995.7244
  22348548.307   -11721734.84649  -9109910.44049  22348548.0464   22348552.8584
  20036435.240    -4281647.58949  -3327984.26049  20036435.5684   20036439.6674
  20887379.675   -14388293.13549 -11185552.65749  20887378.1114   20887383.5154
  20164628.004    -4398265.77749  -3413166.21449  20164629.8654   20164635.9594
 95  1 31 16 52 29.9970000  0  6  1 22 29 25 14 15
  23099301.730     2127729.30149   1651637.55949  23099302.8344   23099310.0584
  22697894.271   -11246462.28449  -8739027.45049  22697890.3324   22697895.1194
  22324619.010   -11847496.34649  -9207906.37049  22324616.4194   22324621.2734
  20032258.705    -4303593.80649  -3345085.23249  20032259.2494   20032263.4964
  20860994.086   -14526926.94649 -11293579.01149  20860996.6734   20861002.1234
  20161211.735    -4416235.99349  -3427169.00849  20161210.1614   20161216.1514
 95  1 31 16 52 59.9960000  0  6  1 22 29 25 14 15
  23101484.366     2139199.42449   1660575.24849  23101486.0434   23101493.3484
  22668794.653   -11399361.43749  -8858169.62349  22668793.9044   22668799.4874
  22300696.482   -11973183.66249  -9305844.50449  22300698.8244   22300704.3344
  20028148.730    -4325185.17349  -3361909.69449  20028150.6994   20028154.6114
  20834633.827   -14665459.99049 -11401526.84549  20834634.7214   20834639.9604
  20157881.324    -4433730.68849  -3440801.26849  20157881.1624   20157887.1734
 95  1 31 16 53 29.9960000  0  6  1 22 29 25 14 15
  23103657.025     2150606.86849   1669464.10249  23103656.6604   23103663.5904
  22639694.926   -11552266.21749  -8977316.17749  22639697.3824   22639701.9294
  22276795.060   -12098801.67649  -9403728.64349  22276793.2184   22276800.0544
  20024108.656    -4346418.67449  -3378455.30049  20024109.9164   20024114.0544
  20808295.747   -14803876.05049 -11509383.52349  20808294.9074   20808300.2564
  20154641.141    -4450744.76549  -3454059.02049  20154643.5744   20154649.6044
 95  1 31 16 53 59.9960000  0  6  1 22 29 25 14 15
  23105813.456     2161947.33149   1678300.76549  23105814.9534   23105822.2134
  22610596.871   -11705198.11049  -9096483.86849  22610594.6414   22610600.0624
  22252890.841   -12224380.32549  -9501582.09149  22252896.4794   22252903.3224
  20020136.875    -4367295.22849  -3394722.76849  20020137.2114   20020141.4654
  20781977.236   -14942174.29049 -11617148.38949  20781977.8684   20781982.9164
  20151493.450    -4467284.08349  -3466946.83649  20151496.2894   20151502.3654
 95  1 31 16 54 29.9960000  0  6  1 22 29 25 14 15
  23107954.721     2173198.53749   1687067.86749  23107955.9224   23107962.7144
  22581493.536   -11858155.29349  -9215671.25749  22581488.2974   22581493.6794
  22229004.107   -12349948.60749  -9599427.47449  22229002.1724   22229007.8734
  20016233.046    -4387805.95349  -3410705.17349  20016233.9474   20016238.3934
  20755681.678   -15080361.97149 -11724827.11049  20755681.3704   20755686.6074
  20148438.954    -4483352.03849  -3479467.35249  20148438.5764   20148444.5734
 95  1 31 16 54 59.9960000  0  6  1 22 29 25 14 15
  23110076.472     2184359.92449   1695764.97849  23110079.6784   23110086.7844
  22552382.708   -12011127.53949  -9334870.38349  22552378.7184   22552383.4314
  22205107.646   -12475508.53149  -9697266.36249  22205109.2304   22205113.7274
  20012397.870    -4407954.04449  -3426405.01049  20012400.0064   20012404.4874
  20729404.202   -15218436.34249 -11832417.53349  20729406.2574   20729412.0744
  20145468.070    -4498948.67949  -3491620.61549  20145471.0224   20145476.8284
 95  1 31 16 55 29.9960000  0  6  1 22 29 25 14 15
  23112184.424     2195435.13449   1704394.92749  23112187.3344   23112194.5534
  22523276.524   -12164087.61249  -9454060.03649  22523271.5654   22523275.9194
  22181216.645   -12601066.01149  -9795103.36849  22181216.3944   22181220.3984
  20008634.153    -4427729.02249  -3441814.10749  20008637.1034   20008641.3224
  20703148.509   -15356403.87549 -11939924.69949  20703151.7804   20703157.9234
  20142592.560    -4514077.55649  -3503409.38249  20142592.2474   20142597.9114
 95  1 31 16 55 59.9960000  0  6  1 22 29 25 14 15
  23114275.947     2206409.79949   1712946.53649  23114275.8324   23114281.9494
  22494172.094   -12316996.74849  -9573209.99149  22494173.7804   22494177.6574
  22157324.773   -12726602.31949  -9892923.87049  22157328.0524   22157331.5994
  20004947.794    -4447114.73249  -3456919.87349  20004948.3744   20004952.3984
  20676919.480   -15494269.05049 -12047352.10849  20676916.8444   20676922.6234
  20139802.016    -4528736.81249  -3514832.20849  20139802.4154   20139808.6304
 95  1 31 16 56 29.9960000  0  6  1 22 29 25 14 15
  23116344.109     2217276.13749   1721413.73849  23116343.7804   23116349.4774
  22465088.026   -12469838.23049  -9692307.22549  22465087.5904   22465093.8244
  22133450.568   -12852081.53249  -9990699.88049  22133450.4884   22133454.7064
  20001333.211    -4466105.51649  -3471717.90149  20001334.2404   20001338.6684
  20650705.113   -15632011.76049 -12154684.09049  20650705.6924   20650711.4004
  20137101.408    -4542925.43649  -3525888.30849  20137102.5634   20137108.4104
 95  1 31 16 56 59.9960000  0  6  1 22 29 25 14 15
  23118390.442     2228061.74749   1729818.01449  23118395.3664   23118401.3914
  22436017.045   -12622613.76749  -9811353.08449  22436014.9694   22436021.9364
  22109589.509   -12977469.49249 -10088404.77949  22109590.2064   22109595.0884
  19997796.105    -4484695.65049  -3486203.73749  19997796.6174   19997801.1124
  20624521.238   -15769613.13649 -12261905.94249  20624521.3284   20624526.6734
  20134489.979    -4556639.25949  -3536574.43649  20134492.6574   20134498.8274
 95  1 31 16 57 29.9960000  0  6  1 22 29 25 14 15
  23120435.755     2238769.82349   1738161.86049  23120433.4354   23120439.2624
  22406953.268   -12775332.22449  -9930354.46849  22406952.5944   22406961.1994
  22085748.080   -13102764.46149 -10186037.21949  22085746.8824   22085752.4054
  19994333.100    -4502889.81149  -3500381.02249  19994334.2524   19994338.6304
  20598358.631   -15907078.43349 -12369021.75949  20598362.3614   20598367.8044
  20131971.462    -4569880.84249  -3546892.58749  20131972.9344   20131979.3464
 95  1 31 16 57 59.9960000  0  6  1 22 29 25 14 15
  23122452.521     2249405.80249   1746449.55249  23122455.9294   23122462.7294
  22377901.119   -12928010.00649 -10049324.14849  22377898.4884   22377908.3824
  22061915.702   -13227978.33349 -10283606.44749  22061918.5854   22061925.4884
  19990942.153    -4520708.17449  -3514265.48249  19990943.7894   19990948.0124
  20572228.407   -16044409.48849 -12476032.97449  20572229.5834   20572234.6964
  20129540.055    -4582653.11249  -3556845.04049  20129542.5674   20129548.8164
 95  1 31 16 58 29.9960000  0  6  1 22 29 25 14 15
  23124467.132     2260004.64649   1754708.32549  23124473.1984   23124478.3744
  22348847.872   -13080653.00149 -10168266.73649  22348852.2954   22348861.4324
  22038100.747   -13353128.41649 -10381125.96149  22038103.3494   22038110.4834
  19987622.259    -4538159.20749  -3527863.70649  19987622.9904   19987627.5014
  20546121.555   -16181596.02549 -12582931.58049  20546123.6764   20546129.2414
  20127199.517    -4594951.85149  -3566428.50449  20127201.9074   20127208.3874
 95  1 31 16 58 59.9960000  0  6  1 22 29 25 14 15
  23126484.910     2270573.39949   1762943.67649  23126485.0804   23126490.9104
  22319814.859   -13233251.16649 -10287174.38449  22319814.5574   22319823.4124
  22014295.369   -13478232.24149 -10478609.42049  22014297.3444   22014303.8464
  19984368.800    -4555253.36849  -3541183.85449  19984370.3814   19984375.1134
  20520043.997   -16318641.36749 -12689720.15949  20520044.7994   20520050.6444
  20124948.076    -4606778.70149  -3575644.25749  20124951.4804   20124957.8434
 95  1 31 16 59 29.9960000  0  6  1 22 29 25 14 15
  23128485.478     2281097.12449   1771143.90949  23128488.6504   23128495.5004
  22290787.780   -13385784.35149 -10406031.37849  22290788.9874   22290797.0094
  21990497.638   -13603304.41849 -10576068.21549  21990496.8034   21990502.8834
  19981184.266    -4571993.51349  -3554228.15249  19981184.6694   19981189.4584
  20493993.154   -16455542.68049 -12796396.51049  20493993.2134   20493998.8434
  20122789.178    -4618134.97349  -3584493.33649  20122790.6094   20122797.0324
 95  1 31 16 59 59.9960000  0  6  1 22 29 25 14 15
  23130479.756     2291573.77049   1779307.45549  23130482.2734   23130487.8404
  22261768.393   -13538239.45449 -10524827.55049  22261778.8584   22261785.7264
  21966701.672   -13728339.75549 -10673498.31049  21966703.8824   21966709.1524
  19978070.669    -4588359.47349  -3566980.87849  19978070.8784   19978075.1774
  20467970.710   -16592281.09649 -12902945.92849  20467972.5404   20467978.5034
  20120721.126    -4629017.64549  -3592973.37849  20120719.6724   20120726.0704
 95  1 31 17  0 29.9960000  0  6  1 22 29 25 14 15
  23132466.372     2301996.01559   1787428.60459  23132466.4704   23132472.6074
  22232783.842   -13690604.85049 -10643553.81449  22232785.5124   22232790.3704
  21942922.973   -13853307.53849 -10770875.78549  21942923.2804   21942928.6624
  19975028.981    -4604333.40149  -3579428.12349  19975030.8614   19975035.4504
  20441986.304   -16728833.68549 -13009350.54549  20441987.5454   20441993.0484
  20118740.849    -4639419.76949  -3601078.96549  20118740.6314   20118746.7704
 95  1 31 17  0 59.9960000  0  6  1 22 29 25 14 15
  23134432.583     2312334.200 9
  22203805.891   -13842887.13449 -10762215.31249  22203806.9954   22203811.7984
  21919158.056   -13978198.18249 -10868193.16349  21919157.4844   21919162.7714
  19972063.645    -4619917.48449  -3591571.59049  19972065.6574   19972069.7234
  20416032.976   -16865208.62749 -13115616.73749  20416036.5194   20416042.1634
  20116846.937    -4649349.70149  -3608816.61049  20116851.1714   20116857.1984
 95  1 31 17  1 29.9960000  0  6  1 22 29 25 14 15
  23136383.209     2322593.34659   1803478.32959  23136386.2134   23136391.9494
  22174848.551   -13995103.72749 -10880825.59949  22174841.2484   22174846.1314
  21895404.100   -14103005.86149 -10965445.89849  21895406.9504   21895412.7564
  19969174.900    -4635102.95749  -3603404.44549  19969175.5484   19969179.6454
  20390114.487   -17001412.20149 -13221749.39349  20390118.2694   20390123.3944
  20115050.461    -4658805.71549  -3616184.97049  20115051.7804   20115057.6154
 95  1 31 17  1 59.9960000  0  6  1 22 29 25 14 15
  23138322.866     2332786.81759   1811421.26559  23138325.9444   23138332.9804
  22145888.438   -14147255.52649 -10999385.39549  22145887.8044   22145892.6924
  21871667.429   -14227721.62149 -11062627.00149  21871674.0494   21871680.2814
  19966357.767    -4649891.40749  -3614927.93449  19966361.2204   19966365.6694
  20364228.846   -17137447.19049 -13327750.68949  20364231.6894   20364236.6954
  20113344.698    -4667787.20149  -3623183.56749  20113342.5044   20113348.5404
 95  1 31 17  2 29.9960000  0  6  1 22 29 25 14 15
  23140256.321     2342928.81249   1819324.06049  23140255.6934   23140263.7704
  22116946.148   -14299324.85549 -11117880.93449  22116949.8274   22116955.2654
  21847956.442   -14352354.52149 -11159743.54849  21847957.2324   21847962.6924
  19963618.908    -4664295.94349  -3626152.26849  19963620.4174   19963624.6094
  20338377.414   -17273311.97649 -13433619.36449  20338377.5314   20338382.5544
  20111722.290    -4676292.46849  -3629811.08449  20111724.0934   20111730.1964
 95  1 31 17  2 59.9960000  0  6  1 22 29 25 14 15
  23142180.347     2353034.97749   1827198.90449  23142179.0484   23142187.2824
  22088022.456   -14451303.94249 -11236306.15749  22088028.8404   22088035.0904
  21824250.625   -14476935.24249 -11256819.42249  21824250.8974   21824255.3064
  19960951.345    -4678325.08949  -3637084.08749  19960950.9014   19960955.4224
  20312551.095   -17409010.85349 -13539358.75249  20312554.3614   20312559.8134
  20110196.573    -4684323.59849  -3636069.13849  20110196.0314   20110201.9994
 95  1 31 17  3 29.9960000  0  6  1 22 29 25 14 15
  23144097.225     2363107.41049   1835047.46549  23144095.3684   23144103.3524
  22059129.093   -14603178.12949 -11354649.64949  22059127.8704   22059134.8274
  21800552.212   -14601474.62749 -11353863.10349  21800552.0774   21800556.0004
  19958355.173    -4691982.01549  -3647725.87149  19958351.5674   19958356.4054
  20286768.309   -17544522.76149 -13644952.45249  20286767.5484   20286772.8294
  20108755.352    -4691880.56249  -3641957.71749  20108757.9844   20108764.1454
 95  1 31 17  3 59.9960000  0  6  1 22 29 25 14 15
  23146001.605     2373138.83649   1842864.06649  23146004.6154   23146011.8834
  22030253.132   -14754916.14349 -11472887.04049  22030252.5644   22030260.4344
  21776860.957   -14725983.93849 -11450883.33849  21776857.7514   21776863.1024
  19955822.162    -4705267.82949  -3658078.47349  19955823.5694   19955828.2984
  20261015.755   -17679829.54549 -13750386.31549  20261019.3884   20261024.8244
  20107407.292    -4698965.45649  -3647478.45449  20107409.6504   20107415.8834
 95  1 31 17  4 29.9960000  0  6  1 22 29 25 14 15
  23147900.284     2383128.51149   1850648.14649  23147905.8794   23147912.9114
  22001398.707   -14906519.38949 -11591019.40949  22001402.7014   22001410.7694
  21753164.346   -14850463.03249 -11547880.00949  21753169.4344   21753176.6124
  19953363.881    -4718182.00049  -3668141.48249  19953365.9074   19953370.8024
  20235309.816   -17814926.78949 -13855656.90149  20235311.0284   20235316.2074
  20106149.361    -4705579.39949  -3652632.21749  20106151.1804   20106157.1494
 95  1 31 17  4 59.9950000  0  6  1 22 29 25 14 15
  23149797.495     2393065.12449   1858390.90049  23149796.8144   23149803.8484
  21972581.550   -15057992.37649 -11709050.27049  21972577.7804   21972587.1054
  21729490.092   -14974876.59049 -11644825.59249  21729494.0054   21729501.7034
  19950981.914    -4730701.43949  -3677896.90849  19950983.5534   19950988.5484
  20209643.089   -17949806.24249 -13960757.77949  20209644.2454   20209649.5414
  20104984.429    -4711720.07549  -3657417.20349  20104982.7084   20104988.7374
 95  1 31 17  5 29.9950000  0  6  1 22 29 25 14 15
  23151676.008     2402944.92049   1866089.38449  23151676.8014   23151684.9724
  21943778.912   -15209337.20549 -11826981.27049  21943778.1314   21943786.5594
  21705839.872   -15099197.70049 -11741699.14349  21705837.3984   21705844.0054
  19948677.002    -4742815.58149  -3687336.52949  19948678.3914   19948683.1104
  20184014.297   -18084484.39849 -14065701.80149  20184016.0514   20184021.3014
  20103899.910    -4717390.51549  -3661835.77149  20103903.5174   20103909.3994
 95  1 31 17  5 59.9950000  0  6  1 22 29 25 14 15
  23153548.166     2412781.85049   1873754.45849  23153549.1854   23153557.4154
  21915001.088   -15360548.34849 -11944808.10249  21915003.3714   21915011.7524
  21682201.779   -15223407.64849 -11838486.10149  21682201.2514   21682207.2694
  19946450.413    -4754524.47649  -3696460.37149  19946449.8874   19946454.8634
  20158425.576   -18218978.90749 -14170502.72649  20158422.6864   20158428.0634
  20102911.967    -4722595.25249  -3665891.45049  20102913.3424   20102919.1544
 95  1 31 17  6 29.9950000  0  6  1 22 29 25 14 15
  23155410.208     2422578.94749   1881388.48849  23155413.3644   23155421.3174
  21886253.091   -15511638.43449 -12062540.58349  21886251.3694   21886260.1204
  21658585.315   -15347494.55649 -11935177.18949  21658588.4404   21658594.0154
  19944298.182    -4765829.64549  -3705269.61549  19944298.8564   19944303.5104
  20132858.767   -18353293.75749 -14275163.64849  20132863.0894   20132868.6474
  20102008.459    -4727338.61749  -3669587.61149  20102010.5254   20102016.7404
 95  1 31 17  6 59.9950000  0  6  1 22 29 25 14 15
  23157265.106     2432330.63349   1888987.09949  23157269.3444   23157277.1174
  21857521.876   -15662597.94649 -12180171.32449  21857525.6074   21857532.9084
  21634998.529   -15471459.56549 -12031773.29649  21634998.9544   21635004.7494
  19942221.272    -4776735.33949  -3713767.58149  19942223.6794   19942228.3744
  20107340.420   -18487419.54749 -14379677.25249  20107340.0884   20107345.4614
  20101194.443    -4731620.98849  -3672924.56449  20101195.4744   20101201.9444
 95  1 31 17  7 29.9950000  0  6  1 22 29 25 14 15
  23159116.900     2442049.27949   1896559.95749  23159117.2364   23159126.4654
  21828826.404   -15813403.17049 -12297681.84649  21828828.1224   21828835.5234
  21611428.007   -15595320.79749 -12128288.53549  21611429.4334   21611435.2774
  19940217.458    -4787270.67549  -3721976.95349  19940219.0944   19940223.2284
  20081853.973   -18621348.37049 -14484037.37849  20081854.2164   20081859.5754
  20100461.365    -4735443.54349  -3675903.22349  20100467.9464   20100474.0914
 95  1 31 17  7 59.9950000  0  6  1 22 29 25 14 15
  23160962.102     2451729.90549   1904103.21049  23160959.5574   23160968.1804
  21800159.497   -15964048.15249 -12415067.50049  21800160.6254   21800168.2234
  21587873.013   -15719098.31149 -12224738.54549  21587875.2574   21587881.7744
  19938278.084    -4797453.81649  -3729911.88849  19938281.2714   19938285.8394
  20056407.397   -18755057.70149 -14588226.46649  20056410.3114   20056415.4504
  20099822.214    -4738809.39349  -3678526.00349  20099827.5974   20099833.4634
 95  1 31 17  8 29.9950000  0  6  1 22 29 25 14 15
  23162795.890     2461364.96049   1911610.99949  23162792.8574   23162802.1964
  21771522.831   -16114526.31949 -12532323.14849  21771526.4694   21771533.6174
  21564334.642   -15842789.61349 -12321121.38149  21564337.0184   21564343.5794
  19936406.983    -4807288.07049  -3737574.96149  19936410.1694   19936414.3734
  20031011.062   -18888529.73149 -14692230.64749  20031011.1444   20031016.5204
  20099276.756    -4741716.21349  -3680791.09949  20099274.3494   20099280.4184
 95  1 31 17  8 59.9950000  0  6  1 22 29 25 14 15
  23164617.046     2470951.88349   1919081.26749  23164617.7514   23164625.9514
  21742924.749   -16264830.20249 -12649443.00249  21742924.6234   21742932.0474
  21540811.708   -15966402.68149 -12417443.25049  21540813.8194   21540820.1474
  19934602.108    -4816787.41549  -3744977.06149  19934602.2574   19934606.4774
  20005650.547   -19021772.33949 -14796056.05649  20005655.9424   20005661.1974
  20098810.195    -4744168.23149  -3682701.80849  20098807.9734   20098813.9394
 95  1 31 17  9 29.9950000  0  6  1 22 29 25 14 15
  23166428.288     2480502.24849   1926523.02849  23166434.9984   23166443.7134
  21714359.133   -16414950.67949 -12766419.94149  21714358.6944   21714365.4784
  21517305.229   -16089938.72149 -12513705.09849  21517305.3864   21517310.7104
  19932859.671    -4825943.79649  -3752111.92249  19932859.9364   19932863.7964
  19980347.681   -19154784.86549 -14899702.19049  19980344.2674   19980349.4884
  20098420.941    -4746167.49749  -3684259.72549  20098427.9854   20098433.5534
 95  1 31 17  9 59.9950000  0  6  1 22 29 25 14 15
  23168246.527     2490020.55949   1933939.78049  23168246.5614   23168255.1484
  21685823.855   -16564907.89649 -12883269.66549  21685822.0874   21685829.3334
  21493806.324   -16213398.87249 -12609907.79649  21493812.7014   21493816.6844
  19931185.861    -4834744.26549  -3758969.44849  19931185.4194   19931189.1504
  19955073.372   -19287570.09149 -15003171.20549  19955076.1094   19955081.7324
  20098134.892    -4747717.66849  -3685467.69949  20098133.0514   20098138.6984
 95  1 31 17 10 29.9950000  0  6  1 22 29 25 14 15
  23170051.542     2499509.60649   1941333.76649  23170051.9294   23170061.2684
  21657316.059   -16714710.52749 -12999998.93749  21657315.6604   21657323.1414
  21470329.582   -16336779.85149 -12706048.78949  21470334.0804   21470338.3034
  19929579.671    -4843177.42449  -3765540.75749  19929580.6294   19929584.8984
  19929849.838   -19420137.69749 -15106470.64549  19929849.7444   19929854.9674
  20097922.655    -4748823.30249  -3686329.27949  20097923.1354   20097928.6834
 95  1 31 17 10 59.9950000  0  6  1 22 29 25 14 15
  23171850.416     2508966.81749   1948702.94549  23171852.8784   23171860.2464
  21628832.292   -16864360.90449 -13116609.57949  21628837.0204   21628845.1734
  21446876.185   -16460090.32249 -12802134.84949  21446868.0444   21446873.9344
  19928044.569    -4851240.53249  -3771823.72149  19928045.9954   19928050.5184
  19904661.914   -19552487.07649 -15209600.04149  19904664.7734   19904670.0514
  20097792.741    -4749490.49949  -3686849.21249  20097796.1004   20097801.8084
 95  1 31 17 11 29.9950000  0  6  1 22 29 25 14 15
  23173647.359     2518395.49649   1956049.82449  23173647.3544   23173654.7984
  21600388.329   -17013854.75049 -13233098.25349  21600389.3864   21600397.6244
  21423415.754   -16583320.85649 -12898158.61549  21423417.1474   21423423.9884
  19926583.346    -4858929.52949  -3777815.16749  19926583.1584   19926587.9874
  19879524.794   -19684595.28849 -15312541.51049  19879525.2654   19879530.8864
  20097751.882    -4749717.29849  -3687025.98449  20097752.8294   20097758.8314
 95  1 31 17 11 59.9950000  0  6  1 22 29 25 14 15
  23175432.559     2527786.58749   1963367.51249  23175431.9954   23175440.9084
  21571969.339   -17163191.82349 -13349464.77949  21571971.6384   21571979.7474
  21399980.735   -16706464.55849 -12994114.72349  21399984.1584   21399990.6764
  19925188.397    -4866254.28749  -3783522.80249  19925189.4224   19925193.8954
  19854430.511   -19816456.98949 -15415290.88949  19854432.8674   19854438.5054
  20097790.975    -4749504.62249  -3686860.30949  20097793.2764   20097799.0934
 95  1 31 17 12 29.9950000  0  6  1 22 29 25 14 15
  23177213.273     2537132.52249   1970650.04049  23177211.8354   23177219.5194
  21543588.564   -17312348.67149 -13465690.86349  21543588.1974   21543595.4104
  21376568.331   -16829517.88649 -13090000.42449  21376569.5514   21376574.0694
  19923861.342    -4873222.51749  -3788952.61249  19923863.4244   19923868.2604
  19829387.678   -19948064.29849 -15517842.04249  19829388.9244   19829394.3084
  20097915.889    -4748853.44949  -3686352.94149  20097916.4844   20097922.9704
 95  1 31 17 12 59.9950000  0  6  1 22 29 25 14 15
  23178982.319     2546424.86549   1977890.76549  23178980.1684   23178988.6974
  21515242.688   -17461321.26949 -13581773.39449  21515240.3524   21515247.3734
  21353169.171   -16952481.19749 -13185815.97449  21353169.7664   21353174.4834
  19922599.262    -4879855.40249  -3794121.12549  19922600.9534   19922606.1184
  19804393.339   -20079409.69949 -15620189.10949  19804394.8164   19804400.2254
  20098123.878    -4747762.00249  -3685502.51049  20098124.1754   20098130.7364
 95  1 31 17 13 29.9950000  0  6  1 22 29 25 14 15
  23180732.859     2555666.26849   1985091.77149  23180738.2264   23180746.0494
  21486927.104   -17610104.26349 -13697708.17049  21486926.6934   21486935.3714
  21329784.416   -17075356.14949 -13281562.67949  21329787.8054   21329791.9284
  19921402.234    -4886155.57849  -3799030.37849  19921402.1134   19921406.6034
  19779447.851   -20210498.51749 -15722336.24349  19779449.4894   19779454.7504
  20098415.445    -4746234.63549  -3684312.40449  20098414.9884   20098421.7374
 95  1 31 17 13 59.9950000  0  6  1 22 29 25 14 15
  23182478.878     2564860.17249   1992255.73249  23182488.4274   23182495.2234
  21458652.311   -17758694.22849 -13813492.55349  21458650.7504   21458659.0874
  21306420.866   -17198151.98249 -13377247.74049  21306420.0614   21306424.9034
  19920267.160    -4892111.96549  -3803671.74349  19920268.8554   19920273.3544
  19754548.584   -20341350.67249 -15824298.96449  19754548.9754   19754554.5184
  20098783.563    -4744275.74549  -3682786.05249  20098787.8374   20098794.5874
 95  1 31 17 14 29.9950000  0  6  1 22 29 25 14 15
  23184226.925     2574007.36249   1999383.39749  23184229.2254   23184237.5244
  21430413.887   -17907088.85649 -13929124.71349  21430411.9834   21430419.7364
  21283060.900   -17320876.08249 -13472876.90349  21283066.5834   21283071.9544
  19919198.173    -4897723.88749  -3808044.69549  19919200.9514   19919205.4104
  19729693.935   -20471969.06549 -15926079.52649  19729693.2624   19729698.6194
  20099240.026    -4741887.58749  -3680925.20049  20099242.3344   20099249.0254
 95  1 31 17 14 59.9950000  0  6  1 22 29 25 14 15
  23185956.521     2583109.25749   2006475.63349  23185961.5444   23185969.0864
  21402213.488   -18055284.98349 -14044602.19649  21402211.2084   21402218.4214
  21259725.760   -17443524.33049 -13568446.96249  21259727.6424   21259733.7124
  19918200.017    -4902979.96149  -3812140.35949  19918201.0174   19918205.5154
  19704879.336   -20602360.41749 -16027683.18049  19704880.5704   19704885.8834
  20099778.293    -4739071.18349  -3678730.65349  20099778.5714   20099784.9124
 95  1 31 17 15 29.9950000  0  6  1 22 29 25 14 15
  23187685.464     2592181.31349   2013544.82249  23187687.6914   23187694.6284
  21374051.970   -18203266.54149 -14159912.48949  21374052.5314   21374058.1944
  21236401.748   -17566093.94949 -13663955.74349  21236403.8074   21236409.8514
  19917267.302    -4907860.45249  -3815943.37349  19917272.1954   19917276.6914
  19680111.181   -20732521.10949 -16129107.09849  19680111.8074   19680117.0424
  20100393.498    -4735831.14849  -3676205.99949  20100395.5904   20100401.3284
 95  1 31 17 15 59.9950000  0  6  1 22 29 25 14 15
  23189410.474     2601210.56549   2020580.51349  23189405.5554   23189411.2424
  21345933.200   -18351038.99649 -14275059.83949  21345933.1534   21345937.8994
  21213089.367   -17688577.81949 -13759397.70549  21213095.6644   21213101.5834
  19916409.162    -4912383.24649  -3819467.65549  19916411.4554   19916416.2144
  19655385.304   -20862445.23749 -16230346.68149  19655388.0354   19655393.2044
  20101088.237    -4732176.82549  -3673358.52149  20101090.6684   20101096.6934
 95  1 31 17 16 29.9950000  0  6  1 22 29 25 14 15
  23191116.474     2610203.63949   2027588.04549  23191118.7624   23191122.2644
  21317851.549   -18498583.22749 -14390029.36549  21317854.7044   21317861.0634
  21189806.521   -17810962.27749 -13854762.20749  21189805.3234   21189811.6294
  19915618.456    -4916554.90549  -3822718.32949  19915617.7054   19915622.4654
  19630713.952   -20992108.07649 -16331382.65949  19630714.0414   19630719.2074
  20101864.820    -4728105.88949  -3670186.41749  20101865.5994   20101871.4614
 95  1 31 17 16 59.9940000  0  6  1 22 29 25 14 15
  23192830.190     2619181.04149   2034583.32749  23192826.6514   23192832.9334
  21289826.130   -18645883.45749 -14504808.73949  21289824.0164   21289830.7494
  21166538.868   -17933225.84349 -13950032.51049  21166538.1524   21166544.9444
  19914892.931    -4920359.27649  -3825682.80349  19914893.4254   19914898.2154
  19606091.990   -21121484.61549 -16432195.54549  19606094.4364   19606099.6064
  20102723.549    -4723612.06049  -3666684.78349  20102720.7244   20102726.5894
 95  1 31 17 17 29.9940000  0  6  1 22 29 25 14 15
  23194529.367     2628142.95949   2041566.62649  23194531.7094   23194541.0154
  21261837.025   -18792964.10649 -14619417.02349  21261836.1974   21261842.1264
  21143290.415   -18055386.97649 -14045222.99649  21143292.7804   21143298.3294
  19914234.183    -4923815.27049  -3828375.80949  19914235.8204   19914240.9254
  19581527.907   -21250574.42749 -16532785.00649  19581529.6194   19581534.7284
  20103652.300    -4718703.84049  -3662860.24949  20103654.5654   20103660.6394
 95  1 31 17 17 59.9940000  0  6  1 22 29 25 14 15
  23196228.750     2637074.83949   2048526.46249  23196229.4824   23196239.4754
  21233890.993   -18939839.33349 -14733865.23749  21233887.6424   21233892.6864
  21120059.842   -18177457.51049 -14140342.87349  21120064.5164   21120069.4794
  19913639.778    -4926946.51249  -3830815.77349  19913639.8974   19913645.0154
  19557016.592   -21379384.97349 -16633156.85749  19557017.8704   19557023.2184
  20104663.675    -4713389.04749  -3658718.90649  20104666.0224   20104672.2004
 95  1 31 17 18 29.9940000  0  6  1 22 29 25 14 15
  23197926.508     2645984.99649   2055469.36849  23197925.4704   23197933.9504
  21205975.391   -19086516.53949 -14848159.14549  21205975.3774   21205980.8804
  21096849.452   -18299467.25649 -14235415.39949  21096847.5374   21096852.4034
  19913100.463    -4929763.91249  -3833011.17549  19913103.6854   19913108.9494
  19532555.672   -21507924.05849 -16733317.17849  19532557.6314   19532563.2604
  20105755.167    -4707671.42449  -3654263.66349  20105754.1444   20105759.9874
 95  1 31 17 18 59.9940000  0  6  1 22 29 25 14 15
  23199608.877     2654858.59049   2062383.74049  23199615.3094   23199624.1504
  21178095.411   -19233019.78849 -14962317.48649  21178097.0304   21178102.3024
  21073640.871   -18421419.33249 -14330442.98749  21073641.1014   21073645.4644
  19912624.936    -4932280.28849  -3834972.02049  19912624.9624   19912630.5904
  19508146.710   -21636206.25949 -16833277.33249  19508146.1134   19508151.8084
  20106913.276    -4701562.51049  -3649503.51849  20106916.3454   20106922.8124
 95  1 31 17 19 29.9940000  0  5 22 29 25 14 15
  21150257.004   -19379325.38849 -15076321.81449  21150257.5084   21150260.9334
  21050440.649   -18543307.24249 -14425420.57649  21050445.5804   21050450.4844
  19912202.260    -4934497.77949  -3836699.96249  19912202.9114   19912207.8574
  19483784.995   -21764231.14849 -16933036.98049  19483783.8494   19483789.2444
  20108155.239    -4695055.84949  -3644433.44249  20108154.5544   20108161.3604
 95  1 31 17 19 59.9940000  0  5 22 29 25 14 15
  21122454.575   -19525416.70549 -15190159.18249  21122456.9494   21122460.5104
  21027265.622   -18665130.52349 -14520347.80749  21027262.5114   21027267.2484
  19911837.975    -4936413.81249  -3838193.00749  19911838.4524   19911843.8504
  19459468.756   -21892003.13149 -17032599.56349  19459469.6844   19459474.9984
  20109467.802    -4688152.10549  -3639053.96249  20109468.9364   20109475.2584
 95  1 31 17 20 29.9940000  0  5 22 29 25 14 15
  21094701.763   -19671271.00849 -15303811.83749  21094699.6704   21094704.9274
  21004092.820   -18786880.11249 -14615217.60949  21004095.0704   21004099.6534
  19911529.245    -4938014.81549  -3839440.57049  19911533.7324   19911539.1754
  19435202.338   -22019514.43449 -17131959.01649  19435205.1824   19435210.2824
  20110854.989    -4680857.48149  -3633369.89049  20110857.1764   20110863.2694
 95  1 31 17 20 59.9940000  0  5 22 29 25 14 15
  21067001.488   -19816862.82549 -15417259.95749  21066995.3704   21066999.5494
  20980945.068   -18908537.84149 -14710015.81949  20980945.7594   20980949.1654
  19911289.776    -4939277.04449  -3840424.15449  19911293.6444   19911298.8894
  19410989.841   -22146756.67449 -17231108.81249  19410991.6914   19410997.0084
  20112315.995    -4673170.18149  -3627379.84349  20112319.8844   20112326.3454
 95  1 31 17 21 29.9940000  0  5 22 29 25 14 15
  21039342.164   -19962177.89249 -15530492.44349  21039344.2054   21039347.7124
  20957809.540   -19030117.63249 -14804753.28849  20957809.6534   20957813.8084
  19911116.265    -4940200.53549  -3841143.78849  19911118.0094   19911123.1184
  19386829.260   -22273723.17049 -17330043.74549  19386830.5534   19386836.1814
  20113855.313    -4665091.29649  -3621084.67149  20113857.2954   20113863.0674
 95  1 31 17 21 59.9940000  0  5 22 29 25 14 15
  21011737.810   -20107226.47349 -15643517.27849  21011739.2124   21011746.1004
  20934685.747   -19151619.25149 -14899429.84849  20934687.4274   20934693.8924
  19911002.772    -4940792.02649  -3841604.70949  19911005.4954   19911010.9294
  19362722.674   -22400403.59149 -17428755.75849  19362724.1144   19362729.6864
  20115469.013    -4656624.81149  -3614487.45649  20115468.4874   20115474.3494
 95  1 31 17 22 29.9940000  0  5 22 29 25 14 15
  20984191.937   -20252019.59649 -15756343.04949  20984186.9884   20984193.4034
  20911578.663   -19273038.51249 -14994042.25249  20911581.2574   20911588.6174
  19910954.336    -4941060.07149  -3841813.60349  19910954.6924   19910959.6254
  19338667.607   -22526807.50749 -17527252.32149  19338670.3744   19338675.7164
  20117147.596    -4647780.27449  -3607595.66949  20117151.9594   20117157.4984
 95  1 31 17 22 59.9940000  0  5 22 29 25 14 15
  20956676.232   -20396573.82349 -15868982.67749  20956680.3134   20956686.3654
  20888490.624   -19394370.45649 -15088586.60749  20888492.4784   20888499.6504
  19910963.749    -4941011.87649  -3841776.07049  19910964.0674   19910969.0154
  19314668.404   -22652929.88149 -17625529.49249  19314669.7314   19314675.4504
  20118906.635    -4638556.47549  -3600408.34149  20118907.2544   20118912.9434
 95  1 31 17 23 29.9940000  0  5 22 29 25 14 15
  20929207.855   -20540902.11749 -15981446.24449  20929213.5424   20929222.3584
  20865418.267   -19515617.72149 -15183064.98249  20865420.9564   20865426.2414
  19911026.342    -4940675.23449  -3841513.77449  19911028.1074   19911033.1884
  19290723.096   -22778758.36849 -17723577.66149  19290725.5634   19290731.1224
  20120733.704    -4628955.92849  -3592927.43749  20120734.0134   20120739.5884
 95  1 31 17 23 59.9940000  0  5 22 29 25 14 15
  20901792.329   -20685002.94049 -16093732.56649  20901793.0914   20901801.4764
  20842361.764   -19636779.12649 -15277476.44749  20842365.2294   20842369.9094
  19911141.807    -4940056.43549  -3841031.62049  19911145.5844   19911150.4454
  19266836.448   -22904293.18349 -17821396.99949  19266837.3994   19266842.4754
  20122631.988    -4618986.34649  -3585158.98349  20122631.1244   20122637.0974
 95  1 31 17 24 29.9940000  0  5 22 29 25 14 15
  20874414.154   -20828868.09249 -16205835.24149  20874417.2934   20874425.0394
  20819322.414   -19757853.18649 -15371819.84949  20819325.1924   20819331.1734
  19911318.020    -4939142.28949  -3840319.32649  19911319.8904   19911324.7764
  19243003.380   -23029531.86749 -17918985.58949  19243005.0324   19243010.3234
  20124596.428    -4608650.90449  -3577105.44349  20124597.4594   20124604.2034
 95  1 31 17 24 59.9940000  0  5 22 29 25 14 15
  20847081.833   -20972488.12449 -16317746.92549  20847086.5574   20847094.7974
  20796298.301   -19878843.94349 -15466098.35149  20796300.8414   20796307.5364
  19911545.503    -4937938.72849  -3839381.51249  19911548.6784   19911553.8834
  19219232.251   -23154459.79549 -18016332.02749  19219231.9024   19219237.5744
  20126629.775    -4597952.29849  -3568768.92049  20126633.5504   20126640.2024
 95  1 31 17 25 29.9940000  0  5 22 29 25 14 15
  20819811.927   -21115830.66749 -16429442.37649  20819810.2274   20819816.6224
  20773291.543   -19999748.10349 -15560309.39349  20773293.8204   20773300.3774
  19911831.420    -4936434.06449  -3838209.06849  19911835.1044   19911839.9684
  19195516.174   -23279077.67449 -18113436.87049  19195517.8534   19195523.5254
  20128740.793    -4586886.28749  -3560146.11249  20128739.7824   20128745.7634
 95  1 31 17 25 59.9940000  0  5 22 29 25 14 15
  20792586.818   -21258887.92249 -16540915.52449  20792587.2854   20792593.3274
  20750304.838   -20120549.97049 -15654440.72949  20750306.9624   20750311.8184
  19912179.177    -4934603.66449  -3836782.80349  19912183.4154   19912188.1974
  19171856.689   -23403408.69549 -18210318.18549  19171858.7524   19171864.3224
  20130913.842    -4575459.76049  -3551242.37649  20130914.1024   20130920.5904
 95  1 31 17 26 29.9940000  0  5 22 29 25 14 15
  20765415.813   -21401674.99049 -16652178.13649  20765415.6164   20765421.4554
  20727333.917   -20241247.07549 -15748490.43349  20727338.9684   20727342.9144
  19912590.987    -4932448.84449  -3835103.73749  19912593.7564   19912598.3914
  19148251.959   -23527450.19849 -18306973.90349  19148254.2704   19148259.9994
  20133154.549    -4563677.27349  -3542061.27249  20133156.2234   20133162.6524
 95  1 31 17 26 59.9940000  0  5 22 29 25 14 15
  20738296.170   -21544194.32349 -16763232.12649  20738295.3294   20738300.7574
  20704388.813   -20361847.54249 -15842464.83049  20704388.6104   20704392.8564
  19913057.168    -4929994.24849  -3833191.08749  19913060.5874   19913065.5204
  19124702.509   -23651203.51049 -18403405.05249  19124704.9914   19124710.6394
  20135459.749    -4551544.70049  -3532607.36249  20135464.7204   20135471.2914
 95  1 31 17 27 29.9940000  0  5 22 29 25 14 15
  20711226.916   -21686443.62649 -16874075.69949  20711225.7364   20711231.5144
  20681454.798   -20482351.32849 -15936363.88349  20681456.7824   20681462.5624
  19913585.606    -4927237.91949  -3831043.32049  19913585.1804   19913590.0564
  19101211.689   -23774658.02149 -18499603.37649  19101212.4224   19101217.9264
  20137837.814    -4539061.16949  -3522879.98749  20137840.2234   20137846.8244
 95  1 31 17 27 59.9940000  0  5 22 29 25 14 15
  20684209.702   -21828433.50149 -16984717.10949  20684206.5304   20684212.1684
  20658541.487   -20602764.27049 -16030192.15549  20658543.4694   20658549.2164
  19914162.929    -4924191.36549  -3828669.40849  19914165.0944   19914170.1254
  19077778.723   -23897791.69549 -18595551.69449  19077780.7404   19077786.2964
  20140280.222    -4526228.61049  -3512880.64049  20140282.4084   20140288.9564
 95  1 31 17 28 29.9940000  0  5 22 29 25 14 15
  20657236.345   -21970155.06549 -17095149.45049  20657237.0984   20657243.9794
  20635639.421   -20723122.55949 -16123977.83649  20635640.2144   20635646.0474
  19914793.556    -4920881.57349  -3826090.37649  19914794.7394   19914800.0614
  19054412.342   -24020588.26149 -18691237.33049  19054413.1634   19054418.6224
  20142785.598    -4513054.57849  -3502615.20649  20142789.0394   20142795.9244
 95  1 31 17 28 59.9930000  0  5 22 29 25 14 15
  20630328.090   -22111572.33749 -17205344.67949  20630326.3094   20630332.9254
  20612740.446   -20843435.33649 -16217728.03549  20612744.9504   20612750.7754
  19915473.594    -4917304.96049  -3823303.43749  19915475.6384   19915480.5164
  19031108.934   -24143055.25149 -18786666.15449  19031108.5204   19031113.7304
  20145357.680    -4499543.32849  -3492087.00649  20145360.0414   20145366.8114
 95  1 31 17 29 29.9930000  0  5 22 29 25 14 15
  20603475.342   -22252672.51149 -17315292.82149  20603475.4024   20603482.1324
  20589860.471   -20963704.61149 -16311444.32449  20589858.9634   20589863.9024
  19916209.460    -4913445.22549  -3820295.87949  19916210.0234   19916215.1024
  19007865.838   -24265192.71149 -18881838.20149  19007866.5724   19007871.7454
  20147997.037    -4485688.76649  -3481291.29149  20147996.6594   20148003.4284
 95  1 31 17 29 59.9930000  0  5 22 29 25 14 15
  20576683.173   -22393450.89049 -17424990.22149  20576686.3994   20576692.3624
  20566975.863   -21083935.53549 -16405130.72749  20566979.2304   20566985.0294
  19916998.065    -4909307.32349  -3817071.57549  19916997.2274   19917002.3874
  18984685.762   -24387013.58949 -18976763.56749  18984684.8584   18984690.1284
  20150691.718    -4471502.88249  -3470237.40249  20150696.6334   20150702.9444
 95  1 31 17 30 29.9930000  0  5 22 29 25 14 15
  20549957.974   -22533906.84049 -17534436.38049  20549958.3304   20549964.2574
  20544103.105   -21204127.78649 -16498787.01149  20544107.9534   20544114.4914
  19917830.458    -4904906.04449  -3813642.03649  19917834.4704   19917839.9594
  18961556.307   -24508540.81049 -19071460.10749  18961559.0134   18961564.4804
  20153457.436    -4456998.96149  -3458935.70249  20153456.4614   20153462.8104
 95  1 31 17 30 59.9930000  0  5 22 29 25 14 15
  20523291.083   -22674043.82649 -17643633.99049  20523290.0674   20523297.0594
  20521248.334   -21324247.60549 -16592386.85749  20521249.9304   20521256.8014
  19918718.619    -4900237.37249  -3810004.14049  19918723.1944   19918728.1994
  18938489.743   -24629762.81749 -19165918.81449  18938491.2974   18938496.7734
  20156270.964    -4442171.38249  -3447381.79249  20156278.6464   20156284.2364
 95  1 31 17 31 29.9930000  0  5 22 29 25 14 15
  20496678.954   -22813888.12049 -17752603.53049  20496678.6184   20496685.3824
  20498409.420   -21444283.80649 -16685921.54949  20498408.4524   20498414.2604
  19919658.794    -4895316.36549  -3806169.61949  19919659.5324   19919664.9284
  18915482.764   -24750670.27549 -19260132.41949  18915483.4954   18915488.7464
  20159161.234    -4427023.89149  -3435578.60949  20159161.0714   20159167.2234
 95  1 31 17 31 59.9930000  0  5 22 29 25 14 15
  20470120.354   -22953457.90049 -17861359.17549  20470119.4724   20470126.5224
  20475584.934   -21564224.67049 -16779381.94849  20475584.9164   20475589.7294
  19920640.343    -4890139.97049  -3802136.09249  19920644.5654   19920649.9804
  18892532.365   -24871267.66849 -19354104.41549  18892534.6704   18892539.9374
  20162098.191    -4411560.22949  -3423529.06149  20162103.3244   20162109.7674
 95  1 31 17 32 29.9930000  0  5 22 29 25 14 15
  20443608.671   -23092759.40049 -17969905.76849  20443611.6274   20443618.0144
  20452772.568   -21684071.89449 -16872769.38149  20452778.3874   20452782.3284
  19921676.442    -4884719.33349  -3797912.24949  19921676.1614   19921681.4724
  18869641.098   -24991557.01149 -19447836.37449  18869644.1164   18869649.6624
  20165104.691    -4395784.14349  -3411236.06349  20165105.8624   20165111.6404
 95  1 31 17 32 59.9930000  0  5 22 29 25 14 15
  20417155.836   -23231792.33249 -18078243.09149  20417155.2754   20417161.7494
  20429986.335   -21803833.57849 -16966090.15949  20429988.0074   20429992.0104
  19922753.501    -4879049.49749  -3793494.22349  19922754.8994   19922760.2274
  18846812.481   -25111533.45449 -19541324.51049  18846813.3704   18846818.8874
  20168164.120    -4379696.64549  -3398700.40249  20168166.8254   20168172.9844
 95  1 31 17 33 29.9930000  0  5 22 29 25 14 15
  20390752.196   -23370540.11049 -18186358.21449  20390752.1984   20390759.8414
  20407207.879   -21923527.64449 -17059358.25949  20407211.2624   20407215.2064
  19923880.815    -4873128.88749  -3788880.78849  19923882.1494   19923887.0094
  18824039.940   -25231202.06649 -19634572.77349  18824041.1884   18824046.8174
  20171286.540    -4363299.75749  -3385923.65749  20171286.8634   20171293.5254
 95  1 31 17 33 59.9930000  0  5 22 29 25 14 15
  20364403.046   -23508981.11649 -18294234.29749  20364407.5924   20364414.7194
  20384443.432   -22043158.97849 -17152577.45749  20384446.3284   20384450.7374
  19925053.113    -4866956.42449  -3784071.10249  19925056.6974   19925061.4894
  18801326.773   -25350556.99249 -19727576.60449  18801328.7544   18801334.0834
  20174465.790    -4346593.29449  -3372905.68449  20174466.3764   20174472.8384
 95  1 31 17 34 29.9930000  0  5 22 29 25 14 15
  20338122.882   -23647096.03249 -18401856.29349  20338125.4904   20338132.1024
  20361690.130   -22162741.42649 -17245758.56849  20361690.2294   20361694.5014
  19926272.704    -4860550.66049  -3779079.62949  19926275.4854   19926280.2074
  18778677.525   -25469590.01249 -19820329.60249  18778677.9304   18778683.2604
  20177702.442    -4329585.76049  -3359653.10449  20177702.7834   20177709.1404
 95  1 31 17 34 59.9930000  0  5 22 29 25 14 15
  20311906.435   -23784872.12049 -18509214.25549  20311907.3174   20311913.9434
  20338943.949   -22282258.40649 -17338888.66949  20338946.3814   20338950.8584
  19927542.317    -4853899.99049  -3773897.31449  19927541.2294   19927546.0024
  18756090.729   -25588281.44449 -19912816.43249  18756091.4234   18756097.1884
  20180992.698    -4312277.93349  -3346166.53549  20180996.7154   20181003.3044
 95  1 31 17 35 29.9930000  0  5 22 29 25 14 15
  20285755.700   -23922318.15849 -18616315.04749  20285752.0424   20285758.9034
  20316213.542   -22401704.28549 -17431963.35449  20316216.4834   20316221.2444
  19928854.009    -4846996.34349  -3768517.87849  19928854.7094   19928859.7904
  18733569.731   -25706626.63149 -20005033.45849  18733571.0614   18733576.7964
  20184343.890    -4294675.87149  -3332450.69749  20184346.4464   20184353.5054
 95  1 31 17 35 59.9930000  0  5 22 29 25 14 15
  20259657.932   -24059453.91149 -18723174.05649  20259655.9144   20259662.2284
  20293501.651   -22521068.23649 -17524974.20149  20293503.1224   20293506.9604
  19930213.901    -4839835.41849  -3762937.97349  19930217.6644   19930222.8264
  18711115.256   -25824623.54349 -20096979.10849  18711116.9154   18711122.5114
  20187749.541    -4276789.67449  -3318513.46349  20187750.2044   20187757.0284
 95  1 31 17 36 29.9930000  0  5 22 29 25 14 15
  20233620.581   -24196275.78649 -18829788.48949  20233619.6924   20233625.1424
  20270807.478   -22640339.15549 -17617912.56149  20270806.7714   20270810.6604
  19931631.421    -4832412.27549  -3757153.74149  19931630.5564   19931635.8514
  18688728.500   -25942274.97349 -20188655.54749  18688728.8264   18688733.9304
  20191204.659    -4258618.91049  -3304354.47549  20191207.9564   20191214.0504
 95  1 31 17 36 59.9930000  0  5 22 29 25 14 15
  20207641.590   -24332783.06549 -18936157.77349  20207642.9204   20207648.5924
  20248124.879   -22759512.47449 -17710774.86749  20248128.5934   20248132.8454
  19933091.460    -4824712.85249  -3751154.22949  19933095.5954   19933100.7894
  18666404.272   -26059581.83649 -20280063.49249  18666406.0344   18666411.2494
  20194719.555    -4240162.96649  -3289973.26849  20194719.9734   20194726.2414
 95  1 31 17 37 29.9930000  0  5 22 29 25 14 15
  20181721.608   -24468970.24549 -19042277.62349  20181727.1344   20181733.2814
  20225464.821   -22878606.80449 -17803575.62849  20225464.7364   20225470.1234
  19934608.061    -4816751.79449  -3744950.84949  19934610.5054   19934615.9494
  18644147.286   -26176557.45349 -20371213.32349  18644146.3664   18644151.6204
  20198283.567    -4221427.50249  -3275374.24849  20198285.2674   20198291.3054
 95  1 31 17 37 59.9930000  0  5 22 29 25 14 15
  20155876.407   -24604819.02149 -19148133.79949  20155875.8574   20155882.3074
  20202813.508   -22997629.40249 -17896320.49649  20202815.4414   20202821.3984
  19936167.316    -4808559.74249  -3738567.47149  19936169.8444   19936174.7454
  18621948.873   -26293206.32249 -20462108.54549  18621948.5804   18621954.0304
  20201897.284    -4202418.55049  -3260562.12349  20201902.5324   20201908.7954
 95  1 31 17 38 29.9930000  0  5 22 29 25 14 15
  20130093.393   -24740307.18549 -19253708.97549  20130093.2334   20130100.2334
  20180176.147   -23116590.68449 -17989017.58449  20180178.6744   20180183.5804
  19937768.046    -4800148.57949  -3732013.35749  19937770.4944   19937775.3764
  18599813.308   -26409519.84049 -20552742.45149  18599814.9804   18599820.6064
  20205572.561    -4183135.58349  -3245536.48449  20205571.7674   20205578.4154
 95  1 31 17 38 59.9930000  0  5 22 29 25 14 15
  20104373.271   -24875445.56049 -19359011.59149  20104377.6254   20104384.5424
  20157545.457   -23235503.32049 -18081676.76449  20157550.2644   20157554.9404
  19939412.955    -4791523.73149  -3725292.73449  19939412.0874   19939416.5044
  18577750.422   -26525477.47149 -20643099.04549  18577749.0474   18577754.4774
  20209290.716    -4163583.32949  -3230301.01349  20209292.1654   20209298.9914
 95  1 31 17 39 29.9930000  0  5 22 29 25 14 15
  20078723.643   -25010241.51049 -19464047.38449  20078727.5664   20078734.1654
  20134930.221   -23354369.32649 -18174299.61349  20134930.8634   20134935.4534
  19941088.216    -4782698.29049  -3718415.79949  19941091.1454   19941096.0854
  18555752.508   -26641064.58849 -20733166.92949  18555753.7684   18555759.0274
  20213057.717    -4143765.51649  -3214858.61349  20213063.7964   20213070.1784
 95  1 31 17 39 59.9930000  0  5 22 29 25 14 15
  20053137.202   -25144707.01949 -19568825.68849  20053139.4214   20053146.0634
  20112319.253   -23473182.55849 -18266881.35349  20112321.2024   20112326.5054
  19942808.003    -4773664.36249  -3711376.40549  19942810.0254   19942815.3184
  18533828.088   -26756275.23749 -20822941.45949  18533829.7474   18533834.9054
  20216889.026    -4123684.00249  -3199210.71949  20216884.8684   20216891.7114
 95  1 31 17 40 29.9930000  0  5 22 29 25 14 15
  20027613.557   -25278855.10849 -19673356.65249  20027612.1944   20027618.3864
  20089716.668   -23591951.06849 -18359428.25349  20089720.9744   20089725.3864
  19944569.595    -4764401.86249  -3704158.90249  19944572.6834   19944577.6724
  18511977.065   -26871108.32149 -20912421.78749  18511977.9114   18511983.0344
  20220754.936    -4103345.45049  -3183362.54649  20220755.5384   20220761.9174
 95  1 31 17 40 59.9920000  0  5 22 29 25 14 15
  20002150.953   -25412680.66849 -19777636.30449  20002145.1784   20002152.0374
  20067129.722   -23710665.43549 -18451932.95349  20067130.2494   20067134.7024
  19946377.571    -4754898.29149  -3696753.55949  19946380.7704   19946386.2304
  18490196.177   -26985565.66449 -21001609.33149  18490197.1474   18490202.4844
  20224672.693    -4082750.60649  -3167314.66249  20224674.6594   20224681.4684
 95  1 31 17 41 29.9920000  0  5 22 29 25 14 15
  19976740.655   -25546175.08249 -19881657.90949  19976741.9764   19976749.2014
  20044549.909   -23829330.10049 -18544398.92049  20044548.8994   20044553.6584
  19948236.560    -4745159.58749  -3689164.99849  19948234.1114   19948239.3804
  18468482.499   -27099679.33949 -21090529.07749  18468481.7374   18468487.2744
  20228644.328    -4061906.48149  -3151072.53349  20228641.9574   20228647.9114
 95  1 31 17 41 59.9920000  0  5 22 29 25 14 15
  19951401.567   -25679315.86749 -19985403.95149  19951406.3194   19951413.7714
  20021972.872   -23947945.51049 -18636826.52149  20021976.7764   20021981.6044
  19950126.089    -4735180.54149  -3681389.15449  19950133.0094   19950138.1874
  18446828.574   -27213456.89049 -21179186.91349  18446830.7914   18446836.2544
  20232651.737    -4040820.75449  -3134642.13749  20232654.3224   20232660.5894
 95  1 31 17 42 29.9920000  0  5 22 29 25 14 15
  19926143.841   -25812078.25849 -20088855.14149  19926142.4404   19926149.4764
  19999416.569   -24066499.16349 -18729205.99349  19999416.6374   19999421.2374
  19952075.686    -4724973.61849  -3673435.74749  19952075.6344   19952080.3974
  18425242.976   -27326894.85449 -21267580.13549  18425244.2344   18425249.5264
  20236713.563    -4019491.74849  -3118022.19149  20236712.8974   20236719.2994
 95  1 31 17 42 59.9920000  0  5 22 29 25 14 15
  19900950.214   -25944451.26349 -20192002.90149  19900952.5934   19900959.5254
  19976872.597   -24184970.54649 -18821521.36549  19976873.0254   19976876.6674
  19954051.720    -4714563.75849  -3665324.19549  19954056.6824   19954061.0144
  18403721.543   -27439998.35049 -21355712.73449  18403721.4974   18403726.5694
  20240817.023    -3997921.75949  -3101214.47249  20240817.8854   20240823.5034
 95  1 31 17 43 29.9920000  0  5 22 29 25 14 15
  19875829.895   -26076442.70349 -20294853.32649  19875835.9304   19875841.6574
  19954346.694   -24303342.49649 -18913759.24149  19954347.9184   19954351.8994
  19956068.434    -4703973.34249  -3657071.95249  19956072.2424   19956076.2914
  18382260.109   -27552764.20549 -21443582.23649  18382262.8494   18382268.0614
  20244964.881    -3976118.70849  -3084225.13549  20244967.1434   20244972.5064
 95  1 31 17 43 59.9920000  0  5 22 29 25 14 15
  19850790.713   -26208060.56649 -20397412.66049  19850789.3584   19850795.0324
  19931837.905   -24421617.90149 -19005921.88249  19931840.3274   19931844.9014
  19958122.174    -4693214.61649  -3648688.55649  19958119.7754   19958123.8194
  18360870.199   -27665182.92249 -21531181.24449  18360870.4054   18360875.6144
  20249162.690    -3954085.20449  -3067056.22549  20249160.0014   20249165.2324
 95  1 31 17 44 29.9920000  0  5 22 29 25 14 15
  19825810.546   -26339316.83549 -20499690.23149  19825812.0674   19825817.6414
  19909348.049   -24539785.78749 -19098000.74149  19909353.5534   19909358.3574
  19960191.980    -4682295.16349  -3640179.92749  19960197.4014   19960201.7964
  18339540.766   -27777251.00149 -21618507.02549  18339544.3664   18339549.8134
  20253394.197    -3931819.27749  -3049706.20449  20253396.8464   20253402.2684
 95  1 31 17 44 59.9920000  0  5 22 29 25 14 15
  19800900.562   -26470222.27849 -20601694.42949  19800901.8314   19800907.2584
  19886881.886   -24657875.61749 -19190018.78249  19886882.0404   19886886.8404
  19962302.270    -4671213.40849  -3631544.83049  19962306.4624   19962310.9344
  18318284.921   -27888965.34049 -21705557.16449  18318286.2494   18318291.5834
  20257670.341    -3909333.39049  -3032184.79449  20257675.3604   20257681.9064
 95  1 31 17 45 29.9920000  0  6 22 18 29 25 14 15
  19776059.760   -26600771.52049 -20703421.08049  19776059.2414   19776064.4414
  22358293.486    -2702090.41359  -2087581.53059  22358283.7114   22358292.2514
  19864415.741   -24775926.38849 -19282006.38349  19864417.8174   19864422.4224
  19964442.585    -4659968.02249  -3622782.24049  19964446.3534   19964451.1314
  18297095.681   -28000320.14049 -21792327.14749  18297095.8864   18297101.4154
  20261991.567    -3886639.08049  -3014500.99049  20261993.8254   20262000.5484
 95  1 31 17 45 59.9920000  0  6 22 18 29 25 14 15
  19751285.192   -26730952.02249 -20804860.39949  19751287.0014   19751292.2344
  22330338.291    -2848858.48149  -2201946.28549  22330353.5944   22330362.7374
  19841953.601   -24893968.26649 -19373987.04749  19841954.9084   19841959.2044
  19966617.359    -4648548.93449  -3613884.29149  19966619.5824   19966623.9994
  18275973.864   -28111313.55449 -21878815.52549  18275974.7914   18275980.1854
  20266343.901    -3863741.16449  -2996658.52249  20266351.4714   20266358.2294
 95  1 31 17 46 29.9920000  0  6 22 18 29 25 14 15
  19726587.891   -26860734.10249 -20905989.26149  19726590.2234   19726595.9314
  22302418.548    -2995644.76849  -2316325.24949  22302420.8284   22302428.5334
  19819492.955   -25011984.62349 -19465947.83749  19819497.0274   19819501.6004
  19968831.305    -4636931.03649  -3604831.41349  19968830.1214   19968834.5524
  18254926.170   -28221914.34849 -21964997.96449  18254927.8974   18254933.5784
  20270747.022    -3840627.61149  -2978648.02749  20270749.7214   20270756.9164
 95  1 31 17 46 59.9920000  0  6 22 18 29 25 14 15
  19701968.227   -26990104.46649 -21006797.30149  19701971.7204   19701977.9074
  22274485.612    -3142443.68949  -2430714.05249  22274487.4074   22274493.3844
  19797044.041   -25129973.07249 -19557886.87649  19797044.5694   19797049.3684
  19971078.140    -4625114.13549  -3595623.47949  19971079.1044   19971083.6124
  18233955.408   -28332115.95249 -22050869.34349  18233957.2014   18233962.9114
  20275190.977    -3817302.66349  -2960472.81749  20275188.4004   20275195.8394
 95  1 31 17 47 29.9920000  0  6 22 18 29 25 14 15
  19677427.302   -27119078.02149 -21107296.15049  19677428.1064   19677434.7984
  22246542.286    -3289257.47049  -2545114.45849  22246547.1794   22246554.4184
  19774601.134   -25247911.53049 -19649786.96849  19774601.9064   19774606.5364
  19973361.056    -4613106.35649  -3586266.81049  19973363.9344   19973368.3284
  18213058.859   -28441915.29949 -22136427.27549  18213062.9884   18213068.5894
  20279667.856    -3793771.47749  -2942136.89749  20279666.8474   20279673.0874
 95  1 31 17 47 59.9920000  0  6 22 18 29 25 14 15
  19652954.617   -27247686.16449 -21207510.26249  19652954.6304   19652961.7114
  22218617.203    -3436098.87449  -2659536.38549  22218603.7614   22218611.2244
  19752165.893   -25365783.89849 -19741635.55449  19752171.5384   19752175.7334
  19975688.192    -4600905.33849  -3576759.56749  19975685.5574   19975690.2064
  18192240.941   -28551320.81849 -22221678.32849  18192243.7074   18192249.4464
  20284179.239    -3770044.33149  -2923648.26649  20284182.4184   20284188.4294
 95  1 31 17 48 29.9920000  0  6 22 18 29 25 14 15
  19628549.837   -27375928.67849 -21307439.47349  19628550.9014   19628558.2824
  22190654.448    -3582952.04849  -2773967.49049  22190661.3804   22190666.8964
  19729753.285   -25483560.58949 -19833409.58849  19729759.0064   19729763.5854
  19978042.955    -4588500.10249  -3567093.19249  19978046.0534   19978050.8894
  18171500.125   -28660322.45049 -22306614.66649  18171501.7334   18171507.1024
  20288728.861    -3746114.67149  -2905001.85349  20288735.5094   20288742.0174
 95  1 31 17 48 59.9920000  0  6 22 18 29 25 14 15
  19604214.502   -27503826.55849 -21407100.13949  19604213.2234   19604220.1444
  22162713.407    -3729825.29949  -2888414.13549  22162712.5394   22162717.0404
  19707359.168   -25601248.71149 -19925114.60849  19707363.3424   19707368.0974
  19980438.216    -4575903.53049  -3557277.72049  19980443.1434   19980448.1074
  18150828.830   -28768940.13749 -22391251.83149  18150832.6364   18150837.7954
  20293326.956    -3721993.59849  -2886206.30549  20293325.1014   20293332.3524
 95  1 31 17 49 29.9920000  0  6 22 18 29 25 14 15
  19579941.584   -27631378.98249 -21506491.61149  19579940.8854   19579947.4604
  22134755.630    -3876714.84449  -3002873.41349  22134760.8384   22134766.7174
  19684981.549   -25718854.01049 -20016755.09349  19684984.0174   19684988.9334
  19982872.488    -4563114.44849  -3547312.24249  19982877.1594   19982882.0404
  18130234.828   -28877163.63949 -22475581.83949  18130238.2054   18130243.5394
  20297950.596    -3697683.47249  -2867263.44049  20297951.8254   20297958.3144
 95  1 31 17 49 59.9920000  0  6 22 18 29 25 14 15
  19555740.606   -27758557.18449 -21605591.48649  19555740.3534   19555746.5514
  22106811.867    -4023611.52649  -3117338.48449  22106808.3734   22106814.8864
  19662618.641   -25836386.47749 -20108338.82049  19662618.8604   19662623.4804
  19985346.668    -4550130.45349  -3537194.88649  19985348.1634   19985353.2254
  18109715.974   -28984997.08049 -22559607.89849  18109718.0834   18109723.4594
  20302615.050    -3673184.93649  -2848173.74449  20302613.4684   20302620.6524
 95  1 31 17 50 29.9920000  0  6 22 18 29 25 14 15
  19531616.661   -27885338.25849 -21704381.90549  19531614.9584   19531620.4414
  22078840.836    -4170507.92849  -3231803.14949  22078854.3624   22078862.7884
  19640259.013   -25953858.99549 -20199875.83649  19640264.4514   19640269.5084
  19987850.236    -4536983.95349  -3526950.89549  19987850.0324   19987854.5474
  18089269.736   -29092446.34149 -22643334.59949  18089271.3774   18089276.5174
  20307308.374    -3648498.81849  -2828937.89049  20307311.1694   20307318.6464
 95  1 31 17 50 59.9920000  0  6 22 18 29 25 14 15
  19507566.695   -28011712.10649 -21802855.00949  19507566.7794   19507571.9924
  22050909.055    -4317400.56549  -3346264.86049  22050900.6234   22050910.3534
  19617919.658   -26071278.83449 -20291371.79949  19617919.8334   19617925.3754
  19990377.721    -4523688.09249  -3516590.52249  19990379.9304   19990384.8724
  18068896.351   -29199506.02349 -22726757.73049  18068898.3014   18068903.6734
  20312043.320    -3623628.13049  -2809558.21749  20312044.3164   20312051.2984
 95  1 31 17 51 29.9920000  0  6 22 18 29 25 14 15
  19483599.715   -28137669.48649 -21901003.58349  19483597.8874   19483603.1424
  22022922.428    -4464301.32949  -3460733.01349  22022945.3454   22022954.7824
  19595582.030   -26188652.52249 -20382831.81049  19595584.4854   19595589.6864
  19992936.819    -4510244.51249  -3506115.05149  19992938.5394   19992943.5604
  18048597.283   -29306179.89249 -22809880.22749  18048599.2174   18048604.4034
  20316808.283    -3598579.42249  -2790039.83149  20316810.5304   20316818.1464
 95  1 31 17 51 59.9920000  0  6 22 18 29 25 14 15
  19459705.251   -28263205.39449 -21998823.73949  19459708.8954   19459714.5474
  21994976.466    -4611223.52249  -3575217.85149  21994985.4514   21994994.5144
  19573256.525   -26305979.98549 -20474255.80449  19573258.3154   19573262.8124
  19995523.273    -4496657.74949  -3495528.00349  19995524.2744   19995528.7334
  18028367.872   -29412481.55449 -22892712.69549  18028370.8514   18028375.8614
  20321610.186    -3573352.91849  -2770382.90549  20321611.8324   20321618.7774
 95  1 31 17 52 29.9910000  0  6 22 18 29 25 14 15
  19435897.305   -28388323.65049 -22096318.45149  19435899.2334   19435905.4994
  21967033.268    -4758165.77049  -3689718.35749  21967024.9174   21967032.1044
  19550943.928   -26423247.85149 -20565633.35649  19550943.3994   19550947.3974
  19998135.062    -4482933.02149  -3484833.45449  19998135.7734   19998140.5664
  18008213.224   -29518402.34849 -22975248.37949  18008214.6674   18008219.9024
  20326447.187    -3547953.53149  -2750591.23949  20326444.7154   20326451.3894
 95  1 31 17 52 59.9910000  0  6 22 18 29 25 14 15
  19412166.953   -28513031.31749 -22193493.22949  19412167.9824   19412174.8184
  21939060.115    -4905145.49049  -3804248.03649  21939057.3444   21939059.0424
  19528636.638   -26540460.06049 -20656967.53549  19528638.7624   19528642.4314
  20000775.693    -4469041.90649  -3474009.25349  20000778.9414   20000784.0344
  17988130.171   -29623935.00749 -23057481.61949  17988132.4694   17988137.8444
  20331302.404    -3522384.21449  -2730667.16949  20331309.8764   20331316.8414
 95  1 31 17 53 29.9910000  0  6 22 18 29 25 14 15
  19388514.824   -28637321.22449 -22290342.49449  19388515.9034   19388523.2404
  21911070.484    -5052173.56649  -3918815.39249  21911078.5614   21911079.6634
  19506342.455   -26657613.14649 -20748255.65249  19506344.9784   19506349.3614
  20003452.534    -4454980.65249  -3463052.48449  20003454.9114   20003459.7674
  17968122.334   -29729081.24249 -23139413.74949  17968123.8534   17968129.2774
  20336202.669    -3496646.09149  -2710611.58649  20336207.8974   20336215.3614
 95  1 31 17 53 59.9910000  0  6 22 18 29 25 14 15
  19364942.321   -28761189.77549 -22386863.43149  19364944.4564   19364951.6674
  21883087.825    -5199248.19849  -4033419.01049  21883090.6984   21883094.7054
  19484060.567   -26774708.69349 -20839498.93349  19484061.7514   19484066.9454
  20006159.098    -4440765.36749  -3451975.68349  20006160.2274   20006165.0094
  17948185.455   -29833839.24549 -23221043.35949  17948188.9834   17948194.2354
  20341131.105    -3470745.55549  -2690429.43149  20341137.1454   20341143.9744
 95  1 31 17 54 29.9910000  0  6 22 18 29 25 14 15
  19341454.636   -28884623.53349 -22483045.56649  19341456.2694   19341463.0934
  21855105.775    -5346350.96349  -4148044.58249  21855097.4764   21855104.5524
  19461790.068   -26891738.48649 -20930690.97749  19461791.6294   19461796.6144
  20008891.496    -4426389.93649  -3440774.08449  20008895.7364   20008900.5434
  17928330.606   -29938189.41349 -23302355.18349  17928332.2294   17928337.0684
  20346096.979    -3444682.85249  -2670120.91149  20346096.8284   20346103.4984
 95  1 31 17 54 59.9910000  0  6 22 18 29 25 14 15
  19318048.799   -29007616.42949 -22578884.18149  19318051.8384   19318058.4034
  21827079.933    -5493489.12049  -4262697.70849  21827097.4734   21827105.4994
  19439528.791   -27008706.91649 -21021835.20249  19439532.9344   19439537.9154
  20011659.142    -4411850.48349  -3429444.68049  20011662.2654   20011667.8034
  17908550.638   -30042131.00349 -23383348.63549  17908552.8294   17908557.8254
  20351085.658    -3418457.70349  -2649685.80449  20351087.3724   20351094.6084
 95  1 31 17 55 29.9910000  0  6 22 18 29 25 14 15
  19294729.018   -29130166.56549 -22674377.77749  19294731.1914   19294737.8024
  21799089.599    -5640651.78149  -4377369.98449  21799093.9564   21799103.0354
  19417285.423   -27125603.97449 -21112923.80849  19417288.4244   19417293.4604
  20014456.658    -4397168.03849  -3418003.86049  20014456.6774   20014461.5684
  17888848.671   -30145662.60449 -23464022.61749  17888851.3084   17888856.7194
  20356108.114    -3392070.39649  -2629124.33849  20356109.0804   20356115.4124
 95  1 31 17 55 59.9910000  0  6 22 18 29 25 14 15
  19271495.141   -29252274.51849 -22769526.81049  19271495.3864   19271501.0824
  21771085.117    -5787811.06649  -4492039.58649  21771090.5904   21771099.5584
  19395055.248   -27242428.46549 -21203955.87649  19395057.9034   19395062.6054
  20017275.426    -4382342.68849  -3406451.68449  20017277.5044   20017282.4594
  17869227.055   -30248770.11149 -23544366.13649  17869230.3984   17869236.0614
  20361158.705    -3365526.74949  -2608441.05349  20361159.9944   20361167.3764
 95  1 31 17 56 29.9910000  0  6 22 18 29 25 14 15
  19248338.392   -29373956.37949 -22864343.83449  19248339.9194   19248345.3084
  21743091.613    -5934964.77149  -4606704.79449  21743089.3754   21743095.3474
  19372838.987   -27359175.72349 -21294927.76049  19372841.6074   19372846.5444
  20020126.323    -4367369.78949  -3394784.53749  20020126.3994   20020131.6244
  17849689.694   -30351448.15749 -23624375.01049  17849691.2844   17849696.5554
  20366237.516    -3338834.83849  -2587642.22949  20366239.3364   20366246.1344
 95  1 31 17 56 59.9910000  0  6 22 18 29 25 14 15
  19225259.837   -29495229.70149 -22958842.50449  19225262.1624   19225267.7864
  21715078.429    -6082120.75649  -4721371.75949  21715086.7074   21715092.1794
  19350639.076   -27475847.92549 -21385841.16149  19350639.3134   19350644.5674
  20023000.723    -4352250.50549  -3383003.32349  20023003.6294   20023008.5364
  17830231.388   -30453703.66549 -23704054.63049  17830232.7314   17830238.1514
  20371345.016    -3311996.64449  -2566729.43649  20371346.6624   20371352.8234
 95  1 31 17 57 29.9910000  0  6 22 18 29 25 14 15
  19202259.221   -29616095.43949 -23053023.57649  19202262.0894   19202268.2084
  21687078.514    -6229264.74049  -4836029.38249  21687084.8674   21687091.4944
  19328449.866   -27592437.97949 -21476690.55249  19328452.4274   19328457.9294
  20025904.013    -4336975.39749  -3371100.68249  20025910.5324   20025915.5214
  17810855.766   -30555524.40349 -23783395.46849  17810856.9794   17810862.4394
  20376476.066    -3285010.38149  -2545701.26749  20376481.8344   20376488.3684
 95  1 31 17 57 59.9910000  0  6 22 18 29 25 14 15
  19179339.848   -29736556.14849 -23146889.05449  19179338.8694   19179345.2584
  21659088.941    -6376398.92549  -4950679.39949  21659083.7894   21659090.8444
  19306283.443   -27708949.62949 -21567478.84149  19306281.2754   19306286.4154
  20028846.961    -4321525.97549  -3359062.21149  20028850.2044   20028854.9424
  17791562.123   -30656906.69349 -23862394.65549  17791564.5564   17791570.0284
  20381643.962    -3257878.66649  -2524559.74949  20381645.0644   20381651.4474
 95  1 31 17 58 29.9910000  0  6 22 18 29 25 14 15
  19156491.884   -29856597.46649 -23240427.73949  19156495.4854   19156502.3964
  21631071.984    -6523534.51149  -5065330.48649  21631084.3434   21631093.8784
  19284124.632   -27825375.43949 -21658200.25149  19284126.5184   19284131.0694
  20031824.953    -4305899.38849  -3346885.68449  20031824.1004   20031828.6814
  17772354.925   -30757848.54749 -23941050.64649  17772355.7834   17772361.1234
  20386837.409    -3230596.04649  -2503300.64349  20386836.2684   20386843.5684
 95  1 31 17 58 59.9910000  0  6 22 18 29 25 14 15
  19133731.927   -29976205.36149 -23333628.69549  19133734.8434   19133741.7614
  21603078.838    -6670668.66049  -5179980.45149  21603088.0004   21603096.7084
  19261985.457   -27941726.56549 -21748863.46449  19261985.8804   19261990.1844
  20034826.880    -4290104.88749  -3334578.32449  20034830.1684   20034834.1734
  17753227.574   -30858362.36749 -24019373.10949  17753229.0484   17753234.2394
  20392057.904    -3203166.88749  -2481927.36449  20392055.8954   20392063.0844
 95  1 31 17 59 29.9910000  0  6 22 18 29 25 14 15
  19111056.208   -30095353.45049 -23426471.35949  19111061.5514   19111068.5104
  21575089.483    -6817798.24049  -5294626.86249  21575090.9854   21575098.6604
  19239859.526   -28058005.04349 -21839470.06549  19239858.9294   19239863.3734
  20037861.922    -4274159.68949  -3322153.53349  20037863.8094   20037869.0904
  17734182.474   -30958439.57549 -24097355.35049  17734185.1064   17734190.1484
  20397297.860    -3175601.50249  -2460447.91449  20397301.9524   20397308.7954
 95  1 31 17 59 59.9910000  0  6 22 18 29 25 14 15
  19088476.876   -30214022.47349 -23518940.72649  19088479.9324   19088486.3384
  21547100.706    -6964922.83849  -5409269.39449  21547094.7584   21547101.6324
  19217743.800   -28174212.59149 -21930021.39849  19217745.2364   19217749.8304
  20040922.848    -4258091.45149  -3309632.86549  20040922.0624   20040926.5764
  17715220.713   -31058083.47749 -24174999.95649  17715223.5804   17715228.4864
  20402567.214    -3147905.73449  -2438866.87449  20402572.0614   20402579.4004
 95  1 31 18  0 29.9910000  0  6 22 18 29 25 14 15
  19065984.787   -30332203.31549 -23611029.69049  19065991.3234   19065997.3064
  21519094.696    -7112050.25549  -5523914.12049  21519097.7494   21519102.1384
  19195644.258   -28290343.48349 -22020512.99949  19195646.0784   19195650.8934
  20043998.429    -4241918.29449  -3297030.45649  20043999.6924   20044004.9434
  17696341.245   -31157296.93549 -24252309.15549  17696343.6774   17696348.7464
  20407867.461    -3120083.93549  -2417187.63549  20407866.6244   20407873.9244
 95  1 31 18  0 59.9910000  0  6 22 18 29 25 14 15
  19043591.808   -30449904.60149 -23702744.97849  19043593.9064   19043599.0344
  21491091.615    -7259194.33449  -5638571.86849  21491095.9444   21491101.5984
  19173556.453   -28406408.41349 -22110953.20149  19173559.1984   19173564.4424
  20047098.169    -4225645.27449  -3284350.22049  20047095.7224   20047101.0634
  17677546.504   -31256076.92949 -24329280.58949  17677546.4244   17677551.6824
  20413182.011    -3092146.70549  -2395418.43949  20413183.7124   20413189.7434
 95  1 31 18  1 29.9910000  0  6 22 18 29 25 14 15
  19021285.338   -30567119.67449 -23794081.38449  19021288.2294   19021293.9714
  21463091.639    -7406361.87749  -5753247.91249  21463090.9744   21463097.6704
  19151483.926   -28522399.01949 -22201335.47949  19151486.8924   19151492.1784
  20050205.975    -4209262.21649  -3271584.25149  20050213.3234   20050218.9264
  17658833.202   -31354401.21749 -24405896.92349  17658836.1364   17658841.4264
  20418520.674    -3064084.58849  -2373551.94249  20418522.5724   20418530.5284
 95  1 31 18  1 59.9910000  0  6 22 18 29 25 14 15
  18999065.579   -30683871.33749 -23885056.68849  18999070.6854   18999076.7504
  21435075.938    -7553559.94249  -5867947.67649  21435079.4714   21435086.9234
  19129426.355   -28638311.19949 -22291656.65049  19129429.7804   19129435.1894
  20053352.650    -4192762.03949  -3258727.02549  20053353.4994   20053359.2534
  17640208.052   -31452274.38649 -24482161.73349  17640211.3234   17640216.7224
  20423886.979    -3035897.82949  -2351588.33349  20423887.0294   20423895.0144
 95  1 31 18  2 29.9910000  0  6 22 18 29 25 14 15
  18976937.659   -30800178.42349 -23975685.56949  18976938.2634   18976944.4794
  21407066.422    -7700792.95749  -5982674.63349  21407063.0884   21407069.9784
  19107383.205   -28754153.62249 -22381923.45949  19107386.1024   19107391.3094
  20056511.606    -4176131.04249  -3245767.86549  20056518.7824   20056523.4854
  17621670.124   -31549699.16349 -24558077.14449  17621672.0374   17621677.3504
  20429270.998    -3007593.17149  -2329532.85949  20429273.1814   20429281.0794
 95  1 31 18  2 59.9910000  0  6 22 18 29 25 14 15
  18954892.015   -30916030.50949 -24065959.91149  18954892.3394   18954899.0034
  21379039.744    -7848035.87049  -6097409.30849  21379043.2894   21379051.2574
  19085351.853   -28869927.91149 -22472137.18749  19085354.8244   19085360.2284
  20059709.950    -4159357.50849  -3232697.62949  20059710.8684   20059715.8614
  17603217.513   -31646660.17349 -24633631.18149  17603220.9924   17603226.2784
  20434682.464    -2979160.60349  -2307377.70449  20434683.7484   20434692.1534
 95  1 31 18  3 29.9910000  0  6 22 18 29 25 14 15
  18932932.569   -31031421.62249 -24155875.05849  18932933.7494   18932940.3904
  21351029.807    -7995265.00449  -6212133.25549  21351027.2524   21351035.1264
  19063337.129   -28985625.25449 -22562290.95549  19063338.1344   19063343.8274
  20062928.476    -4142446.66649  -3219520.39649  20062929.0494   20062934.0224
  17584855.464   -31743160.22949 -24708826.03049  17584857.5704   17584862.9404
  20440116.149    -2950603.22149  -2285125.29749  20440118.3864   20440125.6934
 95  1 31 18  3 59.9900000  0  6 22 18 29 25 14 15
  18911067.399   -31146332.86349 -24245416.28249  18911067.1464   18911074.0284
  21323012.640    -8142452.84249  -6326825.03749  21323018.1354   21323025.2314
  19041338.475   -29101227.49249 -22652370.61349  19041340.0154   19041345.2634
  20066167.865    -4125395.96549  -3206234.17549  20066173.6384   20066178.7724
  17566582.059   -31839192.66449 -24783656.50349  17566583.1954   17566588.3884
  20445575.773    -2921919.84949  -2262774.71749  20445576.8534   20445584.1104
 95  1 31 18  4 29.9900000  0  6 22 18 29 25 14 15
  18889293.611   -31260755.54649 -24334576.80649  18889293.2804   18889300.1624
  21295008.127    -8289616.51249  -6441497.99149  21295012.9984   21295019.0574
  19019353.982   -29216747.10549 -22742385.89149  19019357.5524   19019362.2104
  20069442.393    -4108202.17249  -3192836.46749  20069445.3074   20069450.3814
  17548392.002   -31934769.06849 -24858131.62849  17548395.4624   17548400.7774
  20451052.349    -2893113.11249  -2240327.99749  20451058.5384   20451065.8974
 95  1 31 18  4 59.9900000  0  6 22 18 29 25 14 15
  18867611.128   -31374675.45749 -24423345.55449  18867615.3314   18867621.6714
  21266999.099    -8436765.24949  -6556159.30149  21267011.3494   21267016.0484
  18997388.307   -29332180.77249 -22832334.19349  18997391.8604   18997395.7474
  20072739.805    -4090870.02049  -3179330.92649  20072743.2484   20072748.8564
  17530293.595   -32029889.21249 -24932251.22249  17530294.8764   17530299.9984
  20456561.427    -2864191.58749  -2217791.81849  20456562.8034   20456569.8444
 95  1 31 18  5 29.9900000  0  6 22 18 29 25 14 15
  18846032.197   -31488092.78349 -24511722.67249  18846032.8124   18846038.6754
  21239009.672    -8583907.53249  -6670815.59349  21239011.2804   21239016.0124
  18975441.506   -29447513.92449 -22922204.17049  18975444.8574   18975448.6774
  20076065.199    -4073402.67749  -3165720.06149  20076066.8214   20076073.5654
  17512276.641   -32124561.34849 -25006021.71849  17512279.4494   17512284.9104
  20462084.810    -2835161.64849  -2195171.17149  20462087.1634   20462093.8454
 95  1 31 18  5 59.9900000  0  6 22 18 29 25 14 15
  18824546.875   -31600997.94449 -24599700.69649  18824547.6014   18824553.4604
  21211008.306    -8731045.21249  -6785468.29749  21211012.3004   21211017.3154
  18953516.387   -29562742.67049 -23011992.79249  18953517.0424   18953521.3644
  20079416.642    -4055787.08149  -3151993.66649  20079418.7234   20079425.1994
  17494348.130   -32218775.63649 -25079435.45249  17494350.9574   17494356.5294
  20467633.861    -2806015.12549  -2172459.69849  20467633.6384   20467640.7224
 95  1 31 18  6 29.9900000  0  6 22 18 29 25 14 15
  18803157.081   -31713384.54749 -24687274.65249  18803160.8694   18803167.1134
  21183015.866    -8878170.12849  -6900111.10749  21183016.1464   21183020.3784
  18931604.955   -29677868.99249 -23101701.61349  18931608.8704   18931613.3954
  20082798.347    -4038030.49249  -3138157.42349  20082797.9504   20082805.5104
  17476508.617   -32312519.44049 -25152482.57649  17476511.8324   17476517.7204
  20473201.325    -2776753.67849  -2149658.68149  20473201.3174   20473209.5144
 95  1 31 18  6 59.9900000  0  6 22 18 29 25 14 15
  18781867.548   -31825267.62349 -24774456.24549  18781870.0204   18781876.2854
  21155014.916    -9025270.88849  -7014735.03649  21155023.2234   21155029.4094
  18909715.487   -29792907.04749 -23191341.64649  18909717.9084   18909722.2864
  20086200.332    -4020158.22249  -3124231.03549  20086199.1364   20086205.7134
  17458760.876   -32405786.31149 -25225158.06249  17458763.8154   17458769.4444
  20478787.296    -2747388.12349  -2126776.54349  20478789.7134   20478797.5194
 95  1 31 18  7 29.9900000  0  6 22 18 29 25 14 15
  18760673.553   -31936648.74949 -24861246.70749  18760674.9774   18760681.5084
  21127044.671    -9172334.27049  -7129329.83849  21127037.5924   21127044.1014
  18887840.810   -29907849.75349 -23280907.37949  18887844.9324   18887849.3644
  20089616.897    -4002176.85249  -3110219.62949  20089621.4384   20089628.0914
  17441103.318   -32498568.48849 -25297455.86749  17441108.0414   17441113.6524
  20484394.582    -2717919.61249  -2103814.18149  20484397.3124   20484405.4404
 95  1 31 18  7 59.9900000  0  6 22 18 29 25 14 15
  18739577.404   -32047508.22649 -24947630.69249  18739579.2144   18739585.9494
  21099045.756    -9319359.80249  -7243895.13449  21099058.6044   21099066.3354
  18865987.764   -30022697.11449 -23370398.81649  18865990.1924   18865994.6804
  20093064.432    -3984083.95449  -3096121.32649  20093064.7784   20093070.6944
  17423545.654   -32590849.28649 -25369362.98849  17423547.6344   17423553.3024
  20490021.060    -2688345.06649  -2080769.18149  20490025.3364   20490032.7904
 95  1 31 18  8 29.9900000  0  6 22 18 29 25 14 15
  18718581.495   -32157836.14449 -25033600.47549  18718583.8804   18718591.4894
  21071086.219    -9466347.64049  -7358431.08549  21071086.8224   21071095.3834
  18844152.486   -30137439.34049 -23459808.33649  18844154.7464   18844159.8214
  20096527.731    -3965881.02449  -3081937.28849  20096528.2404   20096534.8434
  17406082.830   -32682618.45749 -25440871.43849  17406084.4214   17406090.2794
  20495670.110    -2658663.23149  -2057640.58349  20495674.2404   20495681.8874
 95  1 31 18  8 59.9900000  0  6 22 18 29 25 14 15
  18697688.641   -32267639.29249 -25119161.34949  18697689.3764   18697696.7554
  21043119.730    -9613312.87849  -7472949.38949  21043120.7874   21043128.8214
  18822336.054   -30252071.45749 -23549132.05649  18822341.2384   18822346.5864
  20100014.745    -3947555.36049  -3067657.61949  20100015.5464   20100022.0964
  17388716.232   -32773885.59849 -25511988.69149  17388716.9614   17388722.8814
  20501340.727    -2628879.55849  -2034432.62549  20501340.9394   20501349.9254
 95  1 31 18  9 29.9900000  0  6 22 18 29 25 14 15
  18676894.901   -32376910.02849 -25204307.35849  18676896.2664   18676903.3054
  21015163.799    -9760270.30149  -7587461.57849  21015155.3934   21015163.9584
  18800548.375   -30366587.55849 -23638365.38349  18800550.1244   18800554.8564
  20103522.611    -3929102.87449  -3053279.11149  20103526.7234   20103533.2144
  17371438.243   -32864664.34649 -25582725.38349  17371442.3974   17371448.1914
  20507020.737    -2599007.34349  -2011155.68649  20507025.4424   20507034.2264
 95  1 31 18  9 59.9900000  0  6 22 18 29 25 14 15
  18656203.899   -32485644.55549 -25289035.53949  18656204.8534   18656211.3534
  20987191.664    -9907212.05849  -7701961.60649  20987194.5194   20987202.3794
  18778780.220   -30480975.90749 -23727499.16349  18778783.1554   18778787.6004
  20107062.561    -3910513.08649  -3038793.63249  20107064.1754   20107071.3444
  17354259.202   -32954952.45349 -25653079.75649  17354260.9194   17354266.9104
  20512724.348    -2569038.65749  -1987803.58049  20512729.0754   20512737.0834
 95  1 31 18 10 29.9900000  0  6 22 18 29 25 14 15
  18635612.493   -32593862.91249 -25373361.51049  18635611.5224   18635617.7144
  20959227.867   -10054135.74549  -7816447.55349  20959236.5684   20959243.2964
  18757037.768   -30595241.78849 -23816537.50849  18757039.0804   18757043.6784
  20110623.969    -3891779.70449  -3024196.26349  20110628.6054   20110635.9634
  17337168.882   -33044759.63249 -25723059.38349  17337171.1904   17337177.0234
  20518444.512    -2538981.93849  -1964382.85949  20518448.7834   20518456.4574
 95  1 31 18 10 59.9900000  0  6 22 18 29 25 14 15
  18615115.314   -32701561.07649 -25457282.14349  18615117.2904   18615122.9784
  20931275.766   -10201033.08259  -7930912.94759  20931282.6384   20931288.3544
  18735315.645   -30709386.98449 -23905481.81649  18735317.4474   18735322.4934
  20114219.272    -3872894.68749  -3009480.72749  20114222.7804   20114229.8184
  17320173.633   -33134084.95849 -25792663.54449  17320173.4484   17320178.9284
  20524179.273    -2508834.32049  -1940891.30849  20524185.8184   20524193.5664
 95  1 31 18 11 29.9900000  0  6 22 18 29 25 14 15
  18594720.447   -32808736.97949 -25540795.82149  18594722.3264   18594727.4804
  20903330.022   -10347901.84259  -8045356.07159  20903334.0624   20903338.7384
  18713615.955   -30823417.28049 -23994336.58949  18713618.2744   18713623.1284
  20117840.175    -3853867.34149  -2994654.29749  20117843.9404   20117850.2424
  17303264.249   -33222921.12649 -25861886.54049  17303268.4524   17303274.1914
  20529940.614    -2478594.62049  -1917328.02349  20529939.9584   20529947.9494
 95  1 31 18 11 59.9900000  0  6 22 18 29 25 14 15
  18574424.119   -32915402.57949 -25623911.86449  18574424.3134   18574429.4774
  20875382.933   -10494753.38049  -8159785.75949  20875389.1364   20875394.1834
  18691933.369   -30937351.93149 -24083116.83949  18691937.2024   18691941.7734
  20121487.056    -3834706.76649  -2979724.03949  20121490.0734   20121495.8564
  17286452.814   -33311267.88049 -25930728.17549  17286456.5824   17286462.3794
  20535709.846    -2448267.15549  -1893696.36349  20535711.5364   20535719.1234
 95  1 31 18 12 29.9900000  0  6 22 18 29 25 14 15
  18554221.093   -33021542.87849 -25706618.57849  18554226.5484   18554231.7854
  20847445.257   -10641590.681 9
  18670266.604   -31051214.53949 -24171840.94849  18670270.0864   18670274.3044
  20125156.209    -3815429.26549  -2964702.67449  20125159.0354   20125164.1364
  17269741.146   -33399108.21949 -25999175.19949  17269740.9734   17269746.9064
  20541496.963    -2417859.50749  -1870002.18449  20541497.6634   20541505.7914
 95  1 31 18 12 59.9900000  0  6 22 18 29 25 14 15
  18534135.638   -33127149.64049 -25788909.54049  18534130.1284   18534135.6474
  20819503.155   -10788419.22459  -8388616.19459  20819506.4934   20819513.0434
  18648611.645   -31165013.13049 -24260515.16849  18648615.0604   18648619.1264
  20128844.881    -3796051.94549  -2949603.49949  20128846.5464   20128850.4504
  17253122.360   -33486435.12849 -26067222.14449  17253123.1704   17253129.1174
  20547297.895    -2387376.37049  -1846249.20249  20547298.5854   20547306.1964
 95  1 31 18 13 29.9900000  0  6 22 18 29 25 14 15
  18514133.264   -33232226.98249 -25870787.96649  18514134.6424   18514140.3114
  20791563.654   -10935239.85049  -8503021.80049  20791567.9214   20791575.3344
  18626968.041   -31278740.93349 -24349134.22949  18626973.1164   18626977.2704
  20132549.582    -3776576.35949  -2934427.78349  20132552.8044   20132557.2984
  17236603.069   -33573237.71049 -26134860.52449  17236605.5754   17236611.0954
  20553110.114    -2356821.79349  -1822440.55649  20553113.2584   20553120.6914
 95  1 31 18 13 59.9900000  0  6 22 18 29 25 14 15
  18494240.845   -33336769.37249 -25952249.54549  18494240.8754   18494247.1024
  20763630.965   -11082043.69849  -8617414.32249  20763631.6724   20763639.2154
  18605342.377   -31392389.23749 -24437691.33849  18605346.2554   18605350.9374
  20136270.011    -3757012.20049  -2919183.03649  20136275.3424   20136279.9154
  17220186.533   -33659509.99449 -26202085.68749  17220188.6274   17220193.8314
  20558932.452    -2326197.61349  -1798577.68149  20558940.3184   20558947.7334
 95  1 31 18 14 29.9900000  0  6 22 18 29 25 14 15
  18474447.139   -33440784.35449 -26033300.15849  18474447.6984   18474453.6484
  20735698.201   -11228829.26049  -8731792.57849  20735699.8234   20735704.9734
  18583734.813   -31505945.88349 -24526177.02349  18583737.6304   18583741.8354
  20140008.577    -3737377.10249  -2903883.00749  20140011.9844   20140016.4894
  17203867.589   -33745266.31849 -26268908.79549  17203869.3634   17203874.9864
  20564769.111    -2295516.85049  -1774670.68749  20564779.3764   20564786.1334
 95  1 31 18 14 59.9900000  0  6 22 18 29 25 14 15
  18454746.125   -33544287.27649 -26113951.76949  18454751.6434   18454757.8484
  20707770.779   -11375595.26849  -8846155.64749  20707770.8484   20707775.7384
  18562149.014   -31619387.24749 -24614572.88149  18562150.5744   18562154.7504
  20143760.898    -3717668.70549  -2888525.86549  20143762.0134   20143768.1104
  17187642.221   -33830524.91849 -26335344.07149  17187645.2924   17187650.7174
  20570626.978    -2264785.20849  -1750724.06849  20570627.4724   20570635.1804
 95  1 31 18 15 29.9890000  0  6 22 18 29 25 14 15
  18435159.575   -33647272.33349 -26194199.84349  18435153.9034   18435160.4334
  20679840.670   -11522335.25049  -8960498.44349  20679846.2664   20679851.8784
  18540581.823   -31732707.94049 -24702874.71649  18540586.3074   18540590.4564
  20147518.281    -3697902.94249  -2873124.02449  20147523.5474   20147528.4964
  17171512.250   -33915290.21749 -26401394.96249  17171514.8324   17171520.3384
  20576478.242    -2234015.15549  -1726747.52549  20576482.6414   20576490.8274
 95  1 31 18 15 59.9890000  0  6 22 18 29 25 14 15
  18415658.574   -33749713.91649 -26274024.43049  18415659.8524   18415666.2194
  20651926.896   -11669040.93049  -9074814.48349  20651928.2274   20651936.4254
  18519044.034   -31845913.05649 -24791086.48849  18519043.8634   18519048.3774
  20151293.367    -3678076.52449  -2857674.91149  20151295.9434   20151303.7404
  17155476.014   -33999572.35049 -26467069.35449  17155476.6904   17155482.0244
  20582349.515    -2203197.91749  -1702734.21449  20582347.6514   20582356.1194
 95  1 31 18 16 29.9890000  0  6 22 18 29 25 14 15
  18396270.320   -33851592.91849 -26353410.64449  18396273.2354   18396279.0054
  20624019.113   -11815708.30949  -9189100.65649  20624018.0094   20624027.2714
  18497522.824   -31959002.92049 -24879208.45249  18497523.6094   18497528.0164
  20155084.140    -3658171.71449  -2842164.73549  20155084.7474   20155090.6654
  17139530.240   -34083369.53149 -26532365.86149  17139530.6724   17139536.0844
  20588214.087    -2172337.88049  -1678687.54149  20588220.0214   20588228.1724
 95  1 31 18 16 59.9890000  0  6 22 18 29 25 14 15
  18376992.039   -33952895.80549 -26432347.93949  18376995.9144   18377001.7414
  20596116.300   -11962348.68649  -9303365.80349  20596115.2814   20596122.0234
  18476017.379   -32071989.98249 -24967250.31249  18476023.0214   18476027.0754
  20158888.429    -3638169.51649  -2826578.66149  20158890.5324   20158897.4924
  17123680.785   -34166658.90149 -26597266.67449  17123681.0554   17123686.7614
  20594093.032    -2141435.74649  -1654608.08949  20594099.4444   20594108.1594
 95  1 31 18 17 29.9890000  0  6 22 18 29 25 14 15
  18357829.888   -34053608.61449 -26510825.43349  18357830.9174   18357836.4844
  20568211.110   -12108962.789 9
  18454536.677   -32184881.64449 -25055217.83249  18454540.5774   18454544.5734
  20162714.337    -3618052.60549  -2810903.20349  20162718.8554   20162725.0774
  17107928.394   -34249425.90649 -26661760.44849  17107931.1334   17107936.8354
  20599986.660    -2110487.59249  -1630492.77049  20599989.2084   20599997.5384
 95  1 31 18 17 59.9890000  0  6 22 18 29 25 14 15
  18338772.742   -34153749.38549 -26588857.18149  18338774.4974   18338780.5024
  20540313.525   -12255561.00559  -9531842.85459  20540317.7174   20540320.8104
  18433073.958   -32297683.94149 -25143115.71249  18433074.9984   18433078.9354
  20166566.464    -3597812.07649  -2795131.41449  20166570.7794   20166575.6524
  17092276.350   -34331679.46449 -26725854.13349  17092278.6694   17092284.4824
  20605884.739    -2079501.12549  -1606347.59449  20605885.9434   20605894.2434
 95  1 31 18 18 29.9890000  0  6 22 18 29 25 14 15
  18319818.268   -34253338.15649 -26666458.80749  18319823.5804   18319829.7454
  20512417.580   -12402154.85359  -9646071.81059  20512419.9644   20512424.7654
  18411626.110   -32410378.54549 -25230929.67749  18411629.8164   18411633.8534
  20170442.064    -3577442.57049  -2779259.11549  20170446.7554   20170452.3504
  17076726.226   -34413401.23349 -26789533.43949  17076727.7284   17076733.3534
  20611788.611    -2048479.43649  -1582174.96449  20611789.0164   20611797.3134
 95  1 31 18 18 59.9890000  0  6 22 18 29 25 14 15
  18300971.132   -34352402.50949 -26743651.79349  18300972.0154   18300978.4974
  20484522.578   -12548754.44649  -9760305.19549  20484523.6094   20484528.6094
  18390201.827   -32522974.29049 -25318666.60749  18390203.5694   18390207.3994
  20174340.905    -3556968.50249  -2763305.34649  20174343.2284   20174347.0234
  17061274.851   -34494594.05849 -26852800.58349  17061277.4354   17061282.8584
  20617696.456    -2017433.04949  -1557983.09949  20617696.7624   20617704.5544
 95  1 31 18 19 29.9890000  0  6 22 18 29 25 14 15
  18282219.607   -34450952.09349 -26820443.66349  18282218.5114   18282225.3864
  20456623.415   -12695351.05549  -9874536.26249  20456629.3464   20456634.5024
  18368793.660   -32635469.03949 -25406324.84149  18368796.2294   18368800.3864
  20178255.587    -3536408.29549  -2747284.43649  20178255.7924   20178260.1184
  17045921.196   -34575279.71649 -26915672.53249  17045923.3184   17045928.8934
  20623608.834    -1986369.13549  -1533777.58949  20623607.5964   20623616.4494
 95  1 31 18 19 59.9890000  0  7 22 19 18 29 25 14 15
  18263559.991   -34548980.11749 -26896829.12049  18263564.4584   18263571.0804
  21519923.119    -3076685.79259  -2360914.93959  21519930.1014   21519942.2344
  20428732.824   -12841938.19049  -9988759.93049  20428734.9184   20428740.9514
  18347407.690   -32747850.18649 -25493894.55249  18347410.8374   18347415.3694
  20182181.390    -3515778.47249  -2731209.29049  20182181.6134   20182185.5244
  17030663.365   -34655449.38849 -26978142.41549  17030667.3464   17030672.7654
  20629518.519    -1955286.39049  -1509557.38349  20629523.1204   20629531.7664
 95  1 31 18 20 29.9890000  0  7 22 19 18 29 25 14 15
  18245009.825   -34646478.63749 -26972801.98349  18245011.5984   18245017.7124
  21488598.963    -3241360.89749  -2489233.21249  21488595.9944   21488602.0354
  20400841.491   -12988526.40349 -10102984.42549  20400839.9864   20400847.1134
  18326042.330   -32860121.49249 -25581378.66849  18326046.0364   18326050.8674
  20186114.987    -3495085.97749  -2715085.31149  20186119.2144   20186124.3634
  17015505.835   -34735098.94049 -27040207.00649  17015510.3304   17015515.9164
  20635440.808    -1924190.63849  -1485327.04549  20635441.5444   20635448.2664
 95  1 31 18 20 59.9890000  0  7 22 19 18 29 25 14 15
  18226558.196   -34743438.73149 -27048355.28849  18226560.5454   18226566.3094
  21457289.868    -3405928.85149  -2617467.95949  21457280.2814   21457286.6394
  20372941.025   -13135103.74149 -10217200.44849  20372945.4114   20372954.5224
  18304700.601   -32972291.37949 -25668783.75849  18304700.6024   18304705.4634
  20190065.266    -3474336.53649  -2698916.97049  20190068.0034   20190073.3974
  17000449.009   -34814242.46149 -27101877.29149  17000450.0074   17000455.4784
  20641359.982    -1893082.33749  -1461086.91049  20641360.8924   20641368.8274
 95  1 31 18 21 29.9890000  0  7 22 19 18 29 25 14 15
  18208217.778   -34839842.86349 -27123475.38149  18208215.5134   18208221.0684
  21425980.530    -3570370.38749  -2745604.24049  21425988.0214   21425993.7774
  20345054.176   -13281660.95149 -10331400.78849  20345057.4434   20345064.8124
  18283370.217   -33084352.10749 -25756103.79149  18283376.5264   18283381.4154
  20194025.447    -3453527.70249  -2682702.34749  20194027.6714   20194033.6774
  16985482.270   -34892893.19349 -27163163.58549  16985483.2454   16985488.7124
  20647281.235    -1861960.72249  -1436836.40949  20647282.9344   20647291.5764
 95  1 31 18 21 59.9890000  0  7 22 19 18 29 25 14 15
  18189978.479   -34935684.40749 -27198157.08949  18189977.4974   18189983.2414
  21394725.794    -3734664.68949  -2873625.77349  21394725.3804   21394730.8364
  20317169.959   -13428206.24549 -10445591.86549  20317171.1914   20317177.5954
  18262067.704   -33196311.59749 -25843344.93349  18262071.4714   18262076.2664
  20197994.853    -3432667.72249  -2666447.88049  20197997.4234   20198003.5024
  16970607.099   -34971052.09849 -27224066.63649  16970610.2104   16970615.6054
  20653205.051    -1830836.89149  -1412584.18449  20653205.8864   20653214.5664
 95  1 31 18 22 29.9890000  0  7 22 19 18 29 25 14 15
  18171845.838   -35030959.75849 -27272397.60649  18171847.0204   18171853.0084
  21363501.755    -3898791.46849  -3001516.72049  21363490.7114   21363496.6374
  20289279.333   -13574734.81649 -10559769.93049  20289287.0864   20289294.3664
  18240782.713   -33308180.93349 -25930515.83049  18240783.3694   18240788.0824
  20201971.695    -3411753.14949  -2650150.86249  20201977.3594   20201983.9804
  16955825.690   -35048729.38149 -27284594.39449  16955828.9794   16955834.6284
  20659121.127    -1799717.72249  -1388335.60449  20659127.2864   20659136.7734
 95  1 31 18 22 59.9890000  0  7 22 19 18 29 25 14 15
  18153825.598   -35125672.09649 -27346199.41149  18153824.2034   18153830.2984
  21332288.626    -4062753.58349  -3129279.44549  21332290.3924   21332295.4644
  20261407.440   -13721227.00449 -10673919.66249  20261410.6974   20261417.0914
  18219506.273   -33419962.57449 -26017618.39649  18219511.9084   18219516.7254
  20205965.178    -3390785.98549  -2633812.89449  20205967.1234   20205973.6914
  16941137.285   -35125921.21249 -27344743.88249  16941139.8334   16941145.6184
  20665045.784    -1768603.73849  -1364091.06249  20665048.7734   20665057.5504
 95  1 31 18 23 29.9890000  0  7 22 19 18 29 25 14 15
  18135910.268   -35219802.53749 -27419547.79749  18135911.7594   18135917.9544
  21301116.510    -4226554.32049  -3256916.35649  21301118.5304   21301125.8224
  20233542.563   -13867669.06749 -10788030.33849  20233543.9204   20233549.8394
  18198256.454   -33531653.97549 -26104650.64049  18198257.8434   18198262.4004
  20209966.496    -3369748.92549  -2617420.43649  20209970.3344   20209977.0324
  16926546.984   -35202599.69749 -27404493.35849  16926548.2384   16926554.1374
  20670963.643    -1737490.45649  -1339847.08249  20670968.7694   20670977.9654
 95  1 31 18 23 59.9890000  0  7 22 19 18 29 25 14 15
  18118106.100   -35313356.34249 -27492446.85649  18118108.7584   18118115.1544
  21269973.761    -4390217.13749  -3384445.80049  21269974.1384   21269982.5664
  20205687.750   -14014061.70949 -10902102.51349  20205686.5654   20205691.1934
  18177021.513   -33643244.98449 -26191604.66149  18177022.9404   18177027.1914
  20213987.724    -3348639.96549  -2600971.97349  20213987.1414   20213994.0844
  16912058.016   -35278737.34149 -27463821.40049  16912059.7314   16912065.4944
  20676891.414    -1706379.04449  -1315604.57349  20676890.2294   20676898.5364
 95  1 31 18 24 29.9890000  0  7 22 19 18 29 25 14 15
  18100408.967   -35406365.17549 -27564921.25949  18100409.5554   18100416.2474
  21238849.417    -4553765.44249  -3511886.04449  21238851.4984   21238860.2294
  20177833.021   -14160422.48949 -11016149.86049  20177834.6994   20177839.2674
  18155803.072   -33754738.75849 -26278482.91649  18155806.2814   18155810.5754
  20218013.094    -3327465.75349  -2584472.66149  20218016.2784   20218022.5094
  16897672.572   -35354334.40849 -27522728.21249  16897674.0764   16897679.6924
  20682812.114    -1675274.74749  -1291367.59349  20682810.4254   20682817.4014
 95  1 31 18 24 59.9890000  0  7 22 19 18 29 25 14 15
  18082807.491   -35498842.15249 -27636981.22749  18082811.8304   18082818.0354
  21207742.854    -4717215.45749  -3639249.67849  21207746.9074   21207757.5314
  20149977.914   -14306757.02749 -11130176.71749  20149986.3344   20149993.7884
  18134610.451   -33866124.41149 -26365276.92249  18134610.5464   18134614.4954
  20222050.528    -3306241.97849  -2567934.73349  20222055.2914   20222062.0464
  16883389.363   -35429389.61149 -27581212.79049  16883391.6414   16883397.1744
  20688723.127    -1644178.91749  -1267137.19849  20688726.8944   20688735.5284
 95  1 31 18 25 29.9890000  0  7 22 19 18 29 25 14 15
  18065312.928   -35590777.34149 -27708619.02349  18065317.7294   18065322.9914
  21176650.207    -4880567.65649  -3766537.09749  21176661.9214   21176673.2534
  20122140.214   -14453078.32349 -11244193.22949  20122142.2324   20122150.5714
  18113434.302   -33977385.36649 -26451973.76649  18113438.2724   18113442.5044
  20226095.620    -3284982.13649  -2551368.68949  20226100.7314   20226107.6784
  16869209.024   -35503900.96449 -27639273.59149  16869212.5084   16869218.0744
  20694641.068    -1613091.40449  -1242913.26349  20694642.2994   20694651.4674
 95  1 31 18 25 59.9890000  0  8 22  4 19 18 29 25 14 15
  18047922.532   -35682174.39549 -27779837.48349  18047925.3434   18047930.7214
  21490101.409    -6394878.45159  -4964589.01359  21490114.4114   21490120.9204
  21145597.021    -5043802.88149  -3893733.37349  21145599.2724   21145610.7764
  20094299.023   -14599398.36349 -11358208.75649  20094299.2734   20094306.9944
  18092291.715   -34088505.29349 -26538560.71349  18092292.7254   18092297.1264
  20230146.775    -3263698.91749  -2534784.43149  20230150.5644   20230157.3084
  16855133.744   -35577875.75149 -27696916.28849  16855135.6134   16855141.1954
  20700550.884    -1582010.53549  -1218694.55149  20700556.9694   20700564.8524
 95  1 31 18 26 29.9890000  0  8 22  4 19 18 29 25 14 15
  18030632.697   -35773040.71549 -27850642.37749  18030633.7814   18030639.5904
  21469262.073    -6504477.16549  -5049990.62549  21469259.3644   21469265.3864
  21114564.916    -5206895.31949  -4020818.38649  21114565.3594   21114576.1594
  20066461.252   -14745715.21749 -11472221.80749  20066457.3254   20066463.5574
  18071167.617   -34199496.80249 -26625047.59549  18071171.6894   18071176.2784
  20234202.703    -3242396.03649  -2518184.85349  20234204.5294   20234210.7444
  16841154.304   -35651339.66249 -27754160.89849  16841155.8294   16841161.6414
  20706469.202    -1550942.77349  -1194486.02849  20706469.5954   20706478.5514
 95  1 31 18 26 59.9880000  0  8 22  4 19 18 29 25 14 15
  18013444.335   -35863332.50149 -27920999.58349  18013452.0004   18013457.2684
  21448505.839    -6613546.23249  -5134979.54949  21448505.4034   21448511.8724
  21083560.950    -5369825.44849  -4147776.91649  21083559.8824   21083570.2204
  20038620.993   -14891993.85349 -11586205.08749  20038621.6664   20038627.5974
  18050074.758   -34310345.28949 -26711423.03449  18050077.9024   18050082.4644
  20238261.224    -3221069.46849  -2501566.81149  20238262.9194   20238269.2094
  16827272.890   -35724283.80249 -27811000.49549  16827275.0704   16827280.9704
  20712377.177    -1519885.55549  -1170285.72549  20712379.2094   20712388.5094
 95  1 31 18 27 29.9880000  0  8 22  4 19 18 29 25 14 15
  17996377.382   -35953043.27349 -27990904.05149  17996380.7304   17996386.2164
  21427842.731    -6722114.87949  -5219578.50449  21427845.3624   21427850.3904
  21052584.156    -5532601.21149  -4274615.22049  21052584.3664   21052594.8894
  20010788.590   -15038240.57149 -11700163.49949  20010791.5514   20010797.8084
  18029007.185   -34421066.96649 -26797699.65949  18029008.0264   18029012.5854
  20242322.715    -3199697.74049  -2484913.58849  20242330.0084   20242336.8044
  16813491.859   -35796710.99049 -27867437.27449  16813492.6294   16813498.4704
  20718281.575    -1488845.84149  -1146099.08749  20718285.3144   20718295.1224
 95  1 31 18 27 59.9880000  0  8 22  4 19 18 29 25 14 15
  17979419.595   -36042166.05049 -28060350.33449  17979420.9084   17979426.8764
  21407267.197    -6830202.57649  -5303802.70149  21407275.4824   21407281.9024
  21021638.914    -5695208.59949  -4401322.26849  21021642.8644   21021652.9364
  19982966.540   -15184443.26449 -11814087.62249  19982969.8994   19982976.5184
  18007957.743   -34531669.80349 -26883883.68349  18007961.2194   18007965.4144
  20246403.953    -3178263.73649  -2468211.83749  20246409.1214   20246415.6674
  16799806.716   -35868619.14949 -27923469.61349  16799809.1254   16799814.8914
  20724189.766    -1457828.52449  -1121929.90749  20724188.2964   20724198.3674
 95  1 31 18 28 29.9880000  0  8 22  4 19 18 29 25 14 15
  17962579.126   -36130683.81949 -28129325.19049  17962576.4064   17962582.9654
  21386788.320    -6937835.35849  -5387672.42449  21386794.9654   21386799.2294
  20990722.837    -5857664.33149  -4527911.17149  20990728.0094   20990736.7834
  19955156.514   -15330595.70649 -11927972.60649  19955157.8264   19955164.8834
  17986931.235   -34642166.20749 -26969984.76949  17986934.4794   17986938.6094
  20250494.541    -3156762.59549  -2451457.76849  20250500.6284   20250506.8124
  16786223.699   -35940004.14449 -27979094.29149  16786224.8644   16786230.6454
  20730086.797    -1426838.76349  -1097782.19549  20730085.6494   20730094.7074
 95  1 31 18 28 59.9880000  0  8 22  4 19 18 29 25 14 15
  17945850.413   -36218581.04949 -28197816.50949  17945850.2994   17945856.7414
  21366398.092    -7045037.87849  -5471206.93649  21366393.5704   21366399.5434
  20959833.337    -6019991.42949  -4654399.78749  20959836.8334   20959847.1984
  19927351.283   -15476709.28049 -12041827.32349  19927353.1584   19927359.1144
  17965925.345   -34752561.26849 -27056006.88349  17965926.8374   17965930.9734
  20254605.330    -3135185.59349  -2434644.57849  20254606.9094   20254612.7804
  16772741.602   -36010848.54249 -28034297.72349  16772743.5054   16772749.4044
  20735973.206    -1395880.83949  -1073659.27749  20735976.5304   20735985.6174
 95  1 31 18 29 29.9880000  0  8 22  4 19 18 29 25 14 15
  17929235.015   -36305879.14049 -28265840.97349  17929238.1314   17929244.1494
  21346068.303    -7151832.94749  -5554423.88949  21346070.6524   21346078.8654
  20928969.710    -6182184.75049  -4780784.21749  20928973.5664   20928983.1334
  19899548.945   -15622805.14549 -12155668.25049  19899552.7074   19899558.2964
  17944933.584   -34862863.44749 -27141956.62449  17944937.2744   17944941.2664
  20258728.146    -3113519.67049  -2417762.10049  20258729.6164   20258735.9074
  16759365.131   -36081150.98849 -28089078.85249  16759365.7214   16759371.2344
  20741860.180    -1364957.30449  -1049563.15149  20741861.0014   20741870.3244
 95  1 31 18 29 59.9880000  0  8 22  4 19 18 29 25 14 15
  17912737.369   -36392587.78049 -28333406.12649  17912737.8504   17912744.0004
  21325828.627    -7258201.61749  -5637308.60249  21325830.1524   21325837.0074
  20898129.019    -6344241.96549  -4907062.53849  20898134.5134   20898143.6814
  19871753.076   -15768898.53249 -12269507.22949  19871751.5964   19871756.5604
  17923960.516   -34973081.83849 -27227841.08049  17923963.5594   17923967.5294
  20262865.328    -3091782.29149  -2400823.95349  20262866.3574   20262872.0074
  16746091.524   -36150906.78149 -28143434.02149  16746091.3184   16746096.9514
  20747741.285    -1334070.38149  -1025495.58649  20747738.0174   20747747.9224
 95  1 31 18 30 29.9880000  0  8 22  4 19 18 29 25 14 15
  17896343.838   -36478721.73449 -28400523.47549  17896347.3194   17896353.3184
  21305668.283    -7364134.47049  -5719853.69949  21305672.2084   21305679.0674
  20867321.442    -6506172.54349  -5033242.20249  20867320.9234   20867328.4624
  19843951.151   -15914998.12949 -12383351.01349  19843948.7874   19843952.7634
  17903001.865   -35083221.94449 -27313664.53449  17903004.6674   17903008.7034
  20267012.319    -3069990.95349  -2383843.72949  20267012.6434   20267018.2364
  16732917.166   -36220119.25149 -28197365.82449  16732920.6134   16732926.4484
  20753604.716    -1303231.61349  -1001465.53449  20753606.4894   20753616.7194
 95  1 31 18 30 59.9880000  0  8 22  4 19 18 29 25 14 15
  17880062.073   -36564295.65749 -28467204.43749  17880062.9094   17880068.5404
  21285595.748    -7469611.24549  -5802043.39849  21285600.4044   21285607.1494
  20836530.618    -6667956.12849  -5159307.29249  20836533.8244   20836542.6884
  19816142.432   -16061099.24949 -12497195.99549  19816146.9614   19816150.7894
  17882063.529   -35193268.38449 -27399415.00149  17882063.4934   17882067.5314
  20271167.267    -3048144.63349  -2366820.68349  20271169.2964   20271175.2034
  16719853.312   -36288783.72449 -28250870.61749  16719854.3994   16719859.9384
  20759459.850    -1272441.44249   -977473.34649  20759467.1074   20759475.9124
 95  1 31 18 31 29.9880000  0  8 22  4 19 18 29 25 14 15
  17863881.570   -36649315.24049 -28533453.45149  17863884.1014   17863889.7814
  21265610.716    -7574618.91849  -5883867.60049  21265619.5664   21265625.2544
  20805765.524    -6829577.25449  -5285245.78949  20805778.5894   20805787.3924
  19788341.001   -16207189.93649 -12611032.85549  19788346.5794   19788352.1274
  17861138.521   -35303210.97349 -27485084.54449  17861141.9744   17861146.0054
  20275333.677    -3026262.48349  -2349769.71149  20275332.6074   20275340.0884
  16706889.970   -36356904.93649 -28303952.09249  16706891.3314   16706896.9474
  20765311.497    -1241705.05049   -953523.03749  20765316.9944   20765325.1534
 95  1 31 18 31 59.9880000  0  8 22  4 19 18 29 25 14 15
  17847810.567   -36733773.98049 -28599265.44549  17847811.9264   17847817.7914
  21245726.844    -7679152.77749  -5965322.58749  21245725.5244   21245732.7844
  20775055.335    -6991045.14949  -5411064.83049  20775051.6374   20775060.1434
  19760546.179   -16353261.45649 -12724854.78049  19760550.2164   19760556.8874
  17840236.930   -35413050.22349 -27570673.55849  17840240.2434   17840244.2364
  20279493.433    -3004374.77849  -2332714.39449  20279497.7234   20279504.2494
  16694027.993   -36424489.96049 -28356615.75549  16694030.3894   16694036.0354
  20771149.734    -1211033.14349   -929623.00249  20771153.2244   20771163.6714
 95  1 31 18 32 29.9880000  0  8 22  4 19 18 29 25 14 15
  17831845.052   -36817674.76749 -28664642.67849  17831846.5414   17831851.8664
  21225922.171    -7783229.58649  -6046421.38949  21225922.1894   21225927.7464
  20744351.692    -7152365.54949  -5536768.97949  20744354.4334   20744362.6734
  19732762.274   -16499299.97349 -12838650.98149  19732760.8314   19732767.9894
  17819357.250   -35522770.26849 -27656169.68549  17819361.2634   17819365.2914
  20283658.592    -2982485.83149  -2315658.13149  20283663.7414   20283670.9734
  16681268.200   -36491548.73249 -28408869.35449  16681269.5374   16681275.0884
  20776973.963    -1180429.79149   -905776.41749  20776975.8204   20776986.7154
 95  1 31 18 32 59.9880000  0  8 22  4 19 18 29 25 14 15
  17815982.218   -36901011.63849 -28729580.49949  17815987.9294   17815993.9284
  21206198.857    -7886851.62949  -6127165.88449  21206203.9974   21206210.2944
  20713682.762    -7313537.87149  -5662357.71149  20713684.2104   20713691.7424
  19704981.162   -16645291.91149 -12952410.88349  19704979.3444   19704986.4024
  17798506.266   -35632355.77549 -27741560.97949  17798507.9484   17798511.9374
  20287828.929    -2960590.66649  -2298597.02149  20287830.5054   20287837.3874
  16668605.786   -36558076.90249 -28460709.49549  16668609.5454   16668615.2144
  20782788.170    -1149891.58949   -881980.61049  20782786.7194   20782796.9774
 95  1 31 18 33 29.9880000  0  8 22  4 19 18 29 25 14 15
  17800240.477   -36983777.13749 -28794073.09449  17800238.1964   17800244.1114
  21186568.220    -7990025.16849  -6207560.86549  21186566.3234   21186575.5704
  20683034.285    -7474576.01449  -5787841.89049  20683039.9754   20683047.9524
  19677206.798   -16791232.72249 -13066130.94649  19677208.0064   19677214.2454
  17777676.766   -35741819.81449 -27826857.62349  17777677.4864   17777681.5184
  20291994.186    -2938701.71449  -2281540.75949  20291996.6444   20292003.1094
  16656047.850   -36624081.12249 -28512141.36149  16656049.6874   16656055.1084
  20788585.987    -1119426.36049   -858241.61749  20788585.4454   20788594.6024
 95  1 31 18 33 59.9880000  0  8 22  4 19 18 29 25 14 15
  17784596.855   -37065967.18149 -28858117.28749  17784598.1314   17784604.0584
  21167016.071    -8092746.18249  -6287603.21949  21167021.3104   21167028.1024
  20652423.179    -7635479.64849  -5913221.27049  20652421.2534   20652428.2604
  19649445.600   -16937135.62349 -13179821.46749  19649443.8254   19649448.9204
  17756865.345   -35851167.70349 -27912063.76449  17756869.2424   17756873.5264
  20296164.500    -2916811.41949  -2264483.44849  20296162.8184   20296169.0414
  16643584.939   -36689561.66849 -28563165.16849  16643589.0274   16643594.7184
  20794374.548    -1089035.41949   -834560.53749  20794369.3024   20794377.0554
 95  1 31 18 34 29.9880000  0  8 22  4 19 18 29 25 14 15
  17769064.133   -37147584.13349 -28921714.90649  17769066.7534   17769072.4494
  21147564.178    -8194996.93949  -6367279.15749  21147566.0394   21147571.9274
  20621821.558    -7796244.79349  -6038492.71949  20621827.8544   20621835.1224
  19621682.610   -17083006.87549 -13293487.30449  19621684.3804   19621690.3914
  17736079.260   -35960398.98849 -27997179.03749  17736083.1844   17736087.3774
  20300331.743    -2894904.09549  -2247412.87049  20300331.5044   20300337.0974
  16631224.409   -36754524.81449 -28613785.80649  16631226.6444   16631232.2434
  20800130.790    -1058721.41149   -810939.40249  20800137.5344   20800146.7924
 95  1 31 18 34 59.9880000  0  8 22  4 19 18 29 25 14 15
  17753642.782   -37228621.29349 -28984860.73449  17753645.9334   17753651.6314
  21128194.254    -8296762.55049  -6446577.07049  21128199.3534   21128206.7134
  20591255.575    -7956859.16849  -6163646.69749  20591262.8444   20591271.8224
  19593928.120   -17228855.64849 -13407135.63049  19593929.5514   19593935.6304
  17715315.711   -36069522.73349 -28082210.51249  17715317.7674   17715321.8384
  20304499.626    -2872970.77049  -2230322.01649  20304504.8384   20304511.0654
  16618961.829   -36818966.51249 -28664000.12749  16618964.4184   16618969.6844
  20805890.005    -1028486.05649   -787379.56049  20805891.8624   20805901.0714
 95  1 31 18 35 29.9880000  0  8 22  4 19 18 29 25 14 15
  17738333.970   -37309090.36349 -29047563.89149  17738333.1094   17738338.6754
  21108918.749    -8398044.58949  -6525498.13949  21108925.4534   21108933.3154
  20560724.192    -8117319.61449  -6288680.76249  20560728.8374   20560736.9354
  19566173.308   -17374710.66849 -13520788.82749  19566175.3834   19566179.9414
  17694568.259   -36178556.55849 -28167171.92049  17694569.3024   17694573.1034
  20308681.689    -2851020.84249  -2213218.24349  20308681.8164   20308688.1984
  16606794.647   -36882898.54549 -28713817.30449  16606798.3274   16606803.7864
  20811623.195     -998338.86449   -763888.42149  20811628.7504   20811637.0014
 95  1 31 18 35 59.9880000  0  8 22  4 19 18 29 25 14 15
  17723123.684   -37388996.39449 -29109828.31649  17723127.4774   17723133.2174
  21089742.368    -8498830.09749  -6604032.31959  21089749.2734   21089754.1954
  20530228.289    -8277614.46349  -6413585.75249  20530225.5394   20530234.4144
  19538416.019   -17520574.86949 -13634449.20749  19538417.7574   19538423.2634
  17673836.863   -36287486.32649 -28252052.24549  17673840.5754   17673844.5334
  20312864.192    -2829038.23649  -2196089.01649  20312865.5264   20312871.4164
  16594729.775   -36946303.44849 -28763223.73549  16594732.3874   16594737.9034
  20817353.942     -968267.83849   -740456.64449  20817351.6524   20817359.1804
 95  1 31 18 36 29.9880000  0  8 22  4 19 18 29 25 14 15
  17708024.620   -37468341.77649 -29171655.88249  17708028.4564   17708034.4114
  21070660.813    -8599127.40659  -6682186.12059  21070661.8634   21070667.8404
  20499750.918    -8437745.52049  -6538363.14549  20499753.6114   20499761.4964
  19510661.416   -17666432.26949 -13748104.29249  19510662.0754   19510667.6794
  17653129.877   -36396293.88849 -28336837.34549  17653135.0784   17653139.4554
  20317052.911    -2807022.92749  -2178934.29749  20317054.8614   20317060.8704
  16582768.092   -37009173.11349 -28812213.10049  16582769.0034   16582774.2854
  20823046.634     -938269.88949   -717081.78949  20823058.4074   20823068.0504
 95  1 31 18 36 59.9880000  0  8 22  4 19 18 29 25 14 15
  17693037.010   -37547128.50949 -29233048.13749  17693035.6634   17693042.0534
  21051659.747    -8698963.31949  -6759980.33649  21051663.0284   21051670.4654
  20469316.196    -8597715.31249  -6663014.89449  20469313.0554   20469320.8894
  19482905.792   -17812290.60349 -13861760.11349  19482906.5624   19482911.6624
  17632450.399   -36504978.94449 -28421526.98649  17632452.8714   17632457.2914
  20321250.194    -2784995.77449  -2161770.34049  20321246.5624   20321251.6794
  16570904.288   -37071503.93849 -28860782.58249  16570907.7184   16570913.2924
  20828751.587     -908348.94849   -693766.97149  20828753.0484   20828762.9814
 95  1 31 18 37 29.9880000  0  8 22  4 19 18 29 25 14 15
  17678150.069   -37625338.49549 -29293990.97549  17678153.2984   17678158.9534
  21032754.220    -8798329.82149  -6837408.77149  21032755.9294   21032759.8634
  20438905.202    -8757521.13249  -6787538.88449  20438903.9954   20438910.0694
  19455149.814   -17958132.65749 -13975403.22349  19455153.6904   19455159.1354
  17611792.697   -36613537.97249 -28506118.42549  17611795.0204   17611799.1844
  20325433.998    -2762963.94649  -2144602.73749  20325438.7464   20325444.1714
  16559147.672   -37133284.36649 -28908923.18549  16559151.4864   16559157.2364
  20834427.534     -878499.82049   -670508.12949  20834433.6644   20834443.5004
 95  1 31 18 37 59.9870000  0  8 22  4 19 18 29 25 14 15
  17663379.623   -37702961.32349 -29354476.29049  17663381.6764   17663388.0874
  21013935.859    -8897224.33449  -6914469.47049  21013936.1304   21013939.2924
  20408522.218    -8917164.01849  -6911935.91549  20408524.9194   20408531.8314
  19427404.386   -18103935.75449 -14089015.99649  19427408.0124   19427413.9094
  17591160.862   -36721961.68749 -28590604.42749  17591162.5204   17591166.9014
  20329632.418    -2740929.62449  -2127433.20549  20329632.3154   20329636.6344
  16547500.723   -37194506.84149 -28956629.02049  16547501.3094   16547507.0584
  20840099.624     -848730.96949   -647311.79149  20840100.5604   20840106.8264
 95  1 31 18 38 29.9870000  0  8 22  4 19 18 29 25 14 15
  17648725.100   -37779976.79449 -29414488.33249  17648726.3154   17648732.2224
  20995207.139    -8995641.35949  -6991158.10549  20995206.0684   20995211.3184
  20378172.600    -9076650.08749  -7036210.77649  20378176.0014   20378183.7794
  19399668.292   -18249693.94149 -14202593.77649  19399671.6884   19399677.0984
  17570553.087   -36830252.71549 -28674987.03449  17570555.1574   17570559.7374
  20333823.332    -2718891.98549  -2110261.08349  20333825.5214   20333830.9144
  16535953.524   -37255183.11949 -29003909.24849  16535955.1394   16535960.5854
  20845748.345     -819044.84949   -624179.90049  20845748.8994   20845756.6374
 95  1 31 18 38 59.9870000  0  8 22  4 19 18 29 25 14 15
  17634184.677   -37856381.52349 -29474024.47349  17634186.7254   17634192.4424
  20976571.943    -9093564.72249  -7067462.00349  20976571.3844   20976579.3984
  20347855.849    -9235980.58149  -7160364.39949  20347857.1204   20347864.0564
  19371940.431   -18395402.76849 -14316133.08149  19371944.4254   19371949.8084
  17549962.487   -36938441.85549 -28759290.24649  17549967.2694   17549971.9114
  20338017.635    -2696857.54049  -2093091.46049  20338017.5614   20338023.3714
  16524508.241   -37315315.24649 -29050765.46449  16524512.3734   16524517.8814
  20851376.694     -789452.64949   -601121.19449  20851379.4084   20851387.1194
 95  1 31 18 39 29.9870000  0  8 22  4 19 18 29 25 14 15
  17619757.958   -37932187.68749 -29533094.19749  17619761.4034   17619767.2104
  20958032.564    -9190990.66249  -7143378.34249  20958034.9984   20958039.9174
  20317562.998    -9395169.16649  -7284407.44149  20317563.1694   20317571.6314
  19344226.095   -18541057.22649 -14429630.03049  19344226.6724   19344232.1184
  17529395.522   -37046537.53449 -28843520.63249  17529397.4844   17529402.0684
  20342209.810    -2674812.90849  -2075913.88349  20342212.2434   20342217.7164
  16513171.317   -37374902.36749 -29097196.99749  16513173.5424   16513178.5254
  20856984.664     -759967.97149   -578146.29749  20856989.6404   20856999.6544
 95  1 31 18 39 59.9870000  0  8 22  4 19 18 29 25 14 15
  17605444.627   -38007407.45949 -29591706.99349  17605447.4174   17605453.0624
  20939574.128    -9287925.89849  -7218912.32349  20939586.5784   20939592.9614
  20287282.414    -9554220.25249  -7408343.32149  20287296.2924   20287305.2184
  19316519.120   -18686666.20949 -14543091.53349  19316518.1924   19316524.3144
  17508844.980   -37154529.83649 -28927670.46349  17508847.2104   17508851.5834
  20346410.127    -2652752.57749  -2058724.07549  20346410.4034   20346416.6884
  16501933.439   -37433953.75749 -29143211.07749  16501936.1064   16501941.3314
  20862572.118     -730599.79349   -555262.20149  20862577.9774   20862589.7344
 95  1 31 18 40 29.9870000  0  8 22  4 19 18 29 25 14 15
  17591243.908   -38082043.57949 -29649865.00049  17591244.8154   17591250.3574
  20921225.703    -9384380.32949  -7294071.67349  20921232.4834   20921236.7294
  20257052.242    -9713138.25949  -7532175.51949  20257055.4114   20257063.9994
  19288814.995   -18832243.21349 -14656528.10349  19288815.3444   19288821.7764
  17488315.561   -37262420.97049 -29011741.46049  17488316.1064   17488320.7124
  20350611.288    -2630688.76749  -2041531.56749  20350609.1264   20350615.8674
  16490797.287   -37492477.00649 -29188813.62149  16490799.4464   16490804.7104
  20868143.922     -701353.98549   -532473.47849  20868145.7694   20868154.6824
 95  1 31 18 40 59.9870000  0  8 22  4 19 18 29 25 14 15
  17577150.138   -38156103.71649 -29707574.19249  17577151.8144   17577157.3434
  20902962.506    -9480365.21349  -7368865.11249  20902966.6314   20902973.0784
  20226847.196    -9871911.28349  -7655894.76049  20226841.5004   20226850.2744
  19261115.188   -18977796.35049 -14769946.08649  19261117.2954   19261123.9984
  17467806.031   -37370197.60249 -29095723.23649  17467806.5934   17467811.5084
  20354805.271    -2608619.27349  -2024334.62449  20354809.5744   20354816.2204
  16479764.678   -37550453.94449 -29233990.47249  16479767.0054   16479772.1554
  20873686.775     -672228.77849   -509778.70749  20873687.2014   20873697.7244
 95  1 31 18 41 29.9870000  0  8 22  4 19 18 29 25 14 15
  17563167.957   -38229594.23549 -29764839.52149  17563167.0604   17563172.8284
  20884779.174    -9575896.44949  -7443305.04449  20884787.5194   20884795.1284
  20196660.824   -10030530.13649  -7779493.82849  20196657.4804   20196666.2164
  19233415.716   -19123342.05049 -14883358.27049  19233420.6274   19233426.3874
  17447322.718   -37477825.60549 -29179589.19649  17447325.7924   17447330.3674
  20359015.281    -2586544.44749  -2007133.52449  20359010.0514   20359016.8914
  16468835.306   -37607890.81449 -29278746.48849  16468837.1724   16468842.5114
  20879198.434     -643229.53649   -487182.09549  20879206.8184   20879214.7664
 95  1 31 18 41 59.9870000  0  8 22  4 19 18 29 25 14 15
  17549291.558   -38302507.77249 -29821655.25949  17549292.3304   17549297.7444
  20866695.103    -9670975.46349  -7517392.62849  20866694.5224   20866700.1444
  20166502.120   -10188980.62349  -7902961.73749  20166505.5724   20166512.9154
  19205717.666   -19268887.57349 -14996770.33949  19205725.0044   19205729.6834
  17426872.271   -37585295.61549 -29263332.04449  17426875.1674   17426879.4444
  20363203.879    -2564488.07749  -1989946.81949  20363208.2474   20363214.3264
  16458005.676   -37664792.17149 -29323085.22049  16458009.3974   16458014.6434
  20884697.914     -614352.39049   -464680.63449  20884700.8844   20884710.0764
 95  1 31 18 42 29.9870000  0  8 22  4 19 18 29 25 14 15
  17535526.742   -38374843.27849 -29878020.59349  17535527.1594   17535532.9514
  20848687.094    -9765609.14049  -7591133.17749  20848685.5064   20848691.8644
  20136380.453   -10347257.89649  -8026294.68549  20136385.9314   20136392.9464
  19178027.001   -19414429.63449 -15110179.71749  19178029.5464   19178033.6974
  17406451.480   -37692614.20749 -29346956.90649  17406453.3084   17406457.2064
  20367398.148    -2542454.87749  -1972778.14149  20367400.9634   20367407.8584
  16447282.010   -37721154.25749 -29367003.74449  16447283.9834   16447289.2474
  20890170.650     -585596.67749   -442273.77949  20890173.8074   20890182.5334
 95  1 31 18 42 59.9870000  0  8 22  4 19 18 29 25 14 15
  17521872.586   -38446589.46249 -29933926.71249  17521874.0754   17521880.0484
  20830756.475    -9859790.07549  -7664520.95349  20830764.3474   20830771.1874
  20106310.681   -10505338.53249  -8149474.35449  20106303.8164   20106310.5684
  19150337.837   -19559936.05249 -15223561.32749  19150341.0794   19150344.9484
  17386058.941   -37799772.64849 -29430456.97549  17386061.5604   17386065.6504
  20371586.110    -2520419.42949  -1955607.75549  20371593.4424   20371601.3994
  16436660.745   -37776957.73349 -29410486.98949  16436664.8984   16436670.2874
  20895611.573     -556949.21249   -419951.26449  20895625.7334   20895634.3994
 95  1 31 18 43 29.9870000  0  8 22  4 19 18 29 25 14 15
  17508331.172   -38517751.25149 -29989377.45949  17508332.7754   17508338.1674
  20812933.296    -9953521.85749  -7737558.73849  20812928.1774   20812935.7874
  20076256.266   -10663241.49949  -8272515.61449  20076255.9914   20076262.9964
  19122658.141   -19705404.31549 -15336913.20549  19122659.0144   19122663.4104
  17365689.482   -37906800.82949 -29513855.54249  17365694.5474   17365698.9874
  20375784.449    -2498396.40249  -1938447.02349  20375785.4294   20375792.0444
  16426146.441   -37832221.05349 -29453549.33249  16426148.8104   16426154.1294
  20901052.211     -528418.13149   -397719.43749  20901052.8874   20901064.0914
 95  1 31 18 43 59.9870000  0  8 22  4 19 18 29 25 14 15
  17494901.580   -38588324.52949 -30044369.62449  17494903.1814   17494908.4504
  20795173.716   -10046799.89149  -7810242.96349  20795176.9794   20795184.8914
  20046232.840   -10820978.98049  -8395427.90049  20046239.2644   20046245.5914
  19094982.994   -19850819.05649 -15450223.37549  19094987.0604   19094992.3124
  17345342.754   -38013738.48949 -29597183.58049  17345345.3154   17345349.5584
  20379968.970    -2476395.00549  -1921303.16749  20379971.7014   20379979.2654
  16415730.144   -37886950.83249 -29496195.93049  16415733.9524   16415739.2114
  20906458.169     -500006.45549   -375580.68149  20906458.6304   20906468.3904
 95  1 31 18 44 29.9870000  0  8 22  4 19 18 29 25 14 15
  17481585.351   -38658291.65449 -30098889.45349  17481588.3254   17481594.0644
  20777514.737   -10139605.01549  -7882558.64649  20777517.3554   20777524.5854
  20016248.661   -10978548.48449  -8518209.27049  20016254.9684   20016261.4654
  19067326.613   -19996148.74849 -15563467.27349  19067332.2584   19067337.7534
  17325011.712   -38120588.30349 -29680443.17649  17325012.5854   17325016.6254
  20384154.932    -2454392.42949  -1904158.39649  20384158.2474   20384165.4214
  16405420.663   -37941136.47049 -29538418.52149  16405422.8734   16405428.0354
  20911837.546     -471707.88949   -353530.07449  20911844.3524   20911856.1664
 95  1 31 18 44 59.9870000  0  8 22  4 19 18 29 25 14 15
  17468389.876   -38727647.35549 -30152932.84649  17468390.5134   17468396.3264
  20759953.285   -10231917.72449  -7954490.65149  20759951.8224   20759959.4314
  19986295.387   -11135948.41649  -8640858.50349  19986302.6804   19986310.9044
  19039691.827   -20141396.78049 -15676647.51849  19039691.5854   19039698.0584
  17304692.944   -38227352.90549 -29763636.36549  17304696.0934   17304699.9484
  20388343.129    -2432391.05449  -1887014.56949  20388345.4024   20388352.6394
  16395214.487   -37994774.26449 -29580214.22049  16395215.9354   16395220.9464
  20917201.663     -443525.96249   -331570.27549  20917209.1584   20917217.8664
 95  1 31 18 45 29.9870000  0  7 22  4 19 18 29 25 14
  17455313.600   -38796365.75849 -30206479.63949  17455314.1354   17455319.4624
  20742479.809   -10323698.29949  -8026008.00349  20742487.4394   20742492.7534
  19956386.180   -11293157.92049  -8763359.34249  19956386.9954   19956395.3264
  19012066.774   -20286554.97449 -15789757.74649  19012068.9594   19012075.4394
  17284398.350   -38334005.16849 -29846742.02349  17284401.0344   17284404.6004
  20392530.032    -2410378.38049  -1869861.90049  20392533.9374   20392540.5274
  16385111.810   -38047848.44049 -29621570.74149  16385116.0654   16385121.1454
 95  1 31 18 45 59.9870000  0  7 22  4 19 18 29 25 14
  17442362.951   -38864422.29949 -30259510.69849  17442363.1474   17442368.8414
  20725122.964   -10414919.68049  -8097089.61749  20725127.9644   20725134.7174
  19926513.901   -11450134.35949  -8885678.59649  19926515.7864   19926523.7784
  18984468.569   -20431599.96849 -15902779.76749  18984467.6974   18984473.8964
  17264138.217   -38440490.37749 -29929717.51349  17264137.2834   17264141.0364
  20396730.768    -2388320.66849  -1852674.16549  20396732.1824   20396738.2974
  16375127.903   -38100320.76749 -29662458.28849  16375130.8784   16375135.8944
 95  1 31 18 46 29.9870000  0  7 22  4 19 18 29 25 14
  17429539.722   -38931804.05449 -30312015.95349  17429540.7684   17429547.0024
  20707878.499   -10505565.33749  -8167722.63749  20707879.4284   20707885.1144
  19896692.505   -11606854.77949  -9007798.32949  19896692.4444   19896701.8714
  18956886.114   -20576530.78149 -16015712.84149  18956887.9324   18956893.8514
  17243912.923   -38546764.94249 -30012528.86849  17243913.8674   17243917.7174
  20400941.391    -2366200.00349  -1835437.34849  20400942.4764   20400946.8564
  16365261.310   -38152168.51349 -29702859.15449  16365264.8814   16365269.8604
 95  1 31 18 46 59.9870000  0  7 22  4 19 18 29 25 14
  17416843.351   -38998520.15649 -30364002.52549  17416844.9534   17416851.4674
  20690737.194   -10595636.93859  -8237908.31559  20690739.6114   20690745.8384
  19866919.307   -11763309.37449  -9129710.92149  19866921.5374   19866930.6584
  18929328.500   -20721360.55549 -16128567.19149  18929327.8514   18929333.7284
  17223729.626   -38652807.60649 -30095159.52149  17223734.7604   17223738.7414
  20405160.443    -2344008.59159  -1818145.39459  20405165.0934   20405168.6994
  16355517.677   -38203381.91349 -29742765.72949  16355519.5134   16355524.3074
 95  1 31 18 47 29.9870000  0  7 22  4 19 18 29 25 14
  17404274.262   -39064592.65549 -30415487.58949  17404271.8994   17404278.2724
  20673705.686   -10685154.47149  -8307662.25149  20673704.7854   20673709.7884
  19837198.064   -11919507.63049  -9251423.77149  19837196.4714   19837206.5314
  18901784.985   -20866083.83449 -16241338.55749  18901788.4904   18901793.7034
  17203601.896   -38758603.22349 -30177597.66849  17203602.5494   17203606.7954
  20409399.629    -2321749.50659  -1800800.68359  20409400.5804   20409404.6444
  16345889.141   -38253976.89649 -29782190.41549  16345891.4394   16345896.5954
 95  1 31 18 47 59.9870000  0  7 22  4 19 18 29 25 14
  17391819.796   -39130017.43149 -30466467.93349  17391822.2824   17391827.9364
  20656774.532   -10774109.22349  -8376977.68449  20656776.1574   20656781.4874
  19807520.314   -12075447.84649  -9372935.51349  19807522.5364   19807531.9554
  18874272.061   -21010687.50849 -16354016.72049  18874271.8444   18874276.4594
  17183516.495   -38864129.70849 -30259826.10549  17183521.2174   17183525.6744
  20413652.226    -2299409.13459  -1783392.67859  20413652.7284   20413655.5994
  16336382.771   -38303940.76949 -29821123.33249  16336383.7414   16336389.0504
 95  1 31 18 48 29.9870000  0  7 22  4 19 18 29 25 14
  17379495.323   -39194793.68349 -30516942.92649  17379495.7314   17379501.3234
  20639947.882   -10862500.09549  -8445853.68749  20639957.4954   20639964.2244
  19777889.633   -12231142.47049  -9494255.94249  19777894.8274   19777903.1194
  18846774.229   -21155176.92449 -16466605.86049  18846776.0364   18846781.0794
  17163486.239   -38969399.21549 -30341854.30449  17163488.9834   17163493.3694
  20417914.729    -2276995.70249  -1765927.71949  20417917.7114   20417921.5454
  16326990.790   -38353291.46849 -29859578.44249  16326992.7054   16326998.2174
 95  1 31 18 48 59.9860000  0  7 22  4 19 18 29 25 14
  17367289.051   -39258923.00649 -30566913.80849  17367292.5054   17367297.8854
  20623240.783   -10950333.58249  -8514295.39849  20623242.0144   20623250.0854
  19748313.334   -12386590.57649  -9615384.27849  19748313.9934   19748322.3174
  18819302.402   -21299555.87649 -16579108.92949  18819301.5824   18819306.6854
  17143503.029   -39074416.64949 -30423686.07949  17143504.9144   17143509.1434
  20422187.893    -2254514.59949  -1748410.02549  20422194.4984   20422202.2914
  16317715.501   -38402037.10749 -29897562.07849  16317716.6454   16317722.0304
 95  1 31 18 49 29.9860000  0  7 22  4 19 18 29 25 14
  17355207.646   -39322400.50549 -30616376.78049  17355212.9764   17355218.3194
  20606626.462   -11037617.66149  -8582308.98049  20606631.8554   20606638.5924
  19718772.868   -12541811.36349  -9736335.46449  19718776.3934   19718784.3424
  18791841.089   -21443846.26249 -16691542.97749  18791843.6784   18791849.6924
  17123561.316   -39179212.83949 -30505345.45349  17123563.0654   17123567.1844
  20426480.728    -2231977.94549  -1730849.09349  20426481.4214   20426491.6884
  16308547.949   -38450194.49849 -29935087.33549  16308552.6224   16308557.9104
 95  1 31 18 49 59.9860000  0  7 22  4 19 18 29 25 14
  17343258.957   -39385201.06349 -30665312.26749  17343262.4874   17343268.0904
  20590122.742   -11124335.40849  -8649881.29349  20590128.3624   20590135.5674
  19689284.811   -12696789.35849  -9857097.46549  19689284.9764   19689292.3744
  18764399.328   -21588058.61749 -16803916.23049  18764400.7554   18764406.5704
  17103657.160   -39283803.57649 -30586844.73149  17103659.8484   17103664.3864
  20430772.156    -2209387.64049  -1713246.39049  20430779.6044   20430790.1534
  16299500.142   -38497744.97149 -29972139.67049  16299503.7394   16299509.2684
 95  1 31 18 50 29.9860000  0  7 22  4 19 18 29 25 14
  17331442.834   -39447313.76749 -30713711.76649  17331442.7444   17331448.6104
  20573726.745   -11210488.26849  -8717013.44349  20573734.8344   20573742.4224
  19659837.921   -12851511.08649  -9977659.77949  19659842.8654   19659849.7724
  18736975.735   -21732188.10449 -16916224.89549  18736973.6794   18736979.4444
  17083793.244   -39388195.93149 -30668189.42749  17083794.7534   17083799.1794
  20435086.111    -2186747.25449  -1695604.66049  20435089.3404   20435098.4714
  16290568.015   -38544685.68149 -30008716.86849  16290571.2494   16290576.6904
 95  1 31 18 50 59.9860000  0  7 22  4 19 18 29 25 14
  17319751.024   -39508748.86949 -30761583.27549  17319751.8494   17319758.0044
  20557436.003   -11296084.51549  -8783711.83149  20557447.8544   20557453.6474
  19630448.470   -13005984.47949 -10098028.57849  19630447.5854   19630454.1984
  18709568.272   -21876221.74449 -17028458.87249  18709565.1694   18709570.6064
  17063961.853   -39492401.56949 -30749388.63249  17063965.0114   17063969.3584
  20439402.781    -2164067.61049  -1677932.27049  20439405.7624   20439414.2874
  16281753.726   -38591012.84349 -30044815.97849  16281755.6354   16281760.7444
 95  1 31 18 51 29.9860000  0  7 22  4 19 18 29 25 14
  17308185.555   -39569514.71549 -30808933.29449  17308188.7214   17308194.6334
  20541261.624   -11381124.26849  -8849976.60249  20541263.5764   20541271.2144
  19601097.811   -13160213.12949 -10218206.64949  19601098.7624   19601105.7894
  18682179.119   -22020136.49949 -17140600.20549  18682179.5174   18682184.9294
  17044166.489   -39596417.04349 -30830439.65749  17044171.8074   17044176.0144
  20443724.505    -2141356.00649  -1660234.98849  20443728.1774   20443736.0414
  16273056.295   -38636712.12349 -30080425.83249  16273059.2934   16273064.2904
 95  1 31 18 51 59.9860000  0  7 22  4 19 18 29 25 14
  17296749.174   -39629616.15349 -30855765.59349  17296751.5534   17296757.7764
  20525195.296   -11465617.69949  -8915815.63649  20525186.8344   20525193.6134
  19571795.737   -13314177.87049 -10338179.05049  19571799.2684   19571806.7564
  18654817.714   -22163906.40749 -17252628.66849  18654820.7674   18654826.6104
  17024417.311   -39700220.30149 -30911325.31049  17024418.4144   17024422.6654
  20448049.713    -2118615.67549  -1642515.34249  20448056.1614   20448063.7594
  16264481.248   -38681777.95049 -30115542.08549  16264483.6724   16264488.8074
 95  1 31 18 52 29.9860000  0  7 22  4 19 18 29 25 14
  17285439.018   -39689054.81549 -30902081.44449  17285440.8914   17285447.0024
  20509208.590   -11549568.46849  -8981231.86449  20509212.3854   20509217.3024
  19542552.078   -13467873.89949 -10457942.07349  19542550.2714   19542559.5844
  18627490.084   -22307510.51849 -17364527.95849  18627494.4744   18627499.6724
  17004703.193   -39803813.31149 -30992047.13549  17004705.3984   17004709.4644
  20452387.565    -2095850.26549  -1624776.13049  20452388.5394   20452395.5564
  16256025.387   -38726219.93049 -30150172.22349  16256026.7254   16256031.9124
 95  1 31 18 52 59.9860000  0  7 22  4 19 18 29 25 14
  17274257.531   -39747838.83949 -30947887.18649  17274255.0844   17274260.5924
  20493334.764   -11632978.80649  -9046226.99549  20493339.3644   20493346.1994
  19513350.006   -13621296.75449 -10577492.25349  19513354.9484   19513363.9984
  18600195.392   -22450951.44249 -17476300.09349  18600198.2704   18600203.7744
  16985028.745   -39907196.24249 -31072605.26549  16985032.3744   16985036.5674
  20456726.358    -2073052.00849  -1607011.35449  20456726.4224   20456733.9974
  16247685.942   -38770037.82649 -30184316.05649  16247688.4224   16247693.5134
 95  1 31 18 53 29.9860000  0  7 22  4 19 18 29 25 14
  17263187.220   -39805971.83949 -30993185.63049  17263192.4484   17263198.2774
  20477547.248   -11715849.48449  -9110801.57049  20477567.6594   20477578.0874
  19484213.451   -13774433.11449 -10696819.20349  19484215.1564   19484223.0744
  18572926.515   -22594245.93649 -17587958.12449  18572930.1594   18572935.6434
  16965396.403   -40010370.67549 -31153000.92549  16965399.0964   16965403.3504
  20461073.213    -2050220.23549  -1589220.43549  20461071.2774   20461079.7694
  16239464.585   -38813240.38049 -30217980.39849  16239466.8504   16239472.5544
 95  1 31 18 53 59.9860000  0  7 22  4 19 18 29 25 14
  17252253.097   -39863445.70749 -31037970.46249  17252255.3644   17252260.9834
  20461893.517   -11798175.96549  -9174952.07349  20461903.8894   20461911.9544
  19455132.191   -13927279.24649 -10815920.04449  19455129.5054   19455137.3454
  18545685.063   -22737404.64649 -17699510.35449  18545687.7744   18545693.2744
  16945801.622   -40113343.17149 -31233239.23349  16945804.2964   16945808.4244
  20465416.840    -2027345.85849  -1571396.30449  20465423.2754   20465430.3994
  16231357.706   -38855839.60249 -30251174.61749  16231360.7724   16231366.0924
 95  1 31 18 54 29.9860000  0  7 22  4 19 18 29 25 14
  17241436.825   -39920281.21449 -31082257.86749  17241439.8884   17241445.9224
  20446339.838   -11879967.35149  -9238685.65149  20446340.2044   20446345.7274
  19426084.706   -14079873.82749 -10934824.87349  19426091.1334   19426099.1494
  18518462.304   -22880445.63749 -17810970.85449  18518467.9404   18518472.8934
  16926242.438   -40216132.09049 -31313334.49749  16926244.0674   16926248.2254
  20469780.354    -2004425.65449  -1553536.53349  20469784.0164   20469792.7024
  16223366.443   -38897839.08849 -30283901.50149  16223368.8134   16223374.0634
 95  1 31 18 54 59.9860000  0  7 22  4 19 18 29 25 14
  17230741.630   -39976485.70749 -31126053.56849  17230744.3524   17230750.2474
  20430865.667   -11961238.01149  -9302013.46449  20430873.7854   20430879.3374
  19397094.768   -14232224.93949 -11053539.98049  19397099.6904   19397107.4824
  18491267.191   -23023375.85149 -17922345.02749  18491267.9324   18491273.9094
  16906721.738   -40318715.08249 -31393269.29949  16906722.9644   16906727.1024
  20474152.667    -1981454.36049  -1535636.87749  20474156.0714   20474164.6504
  16215492.522   -38939223.75249 -30316149.31249  16215493.4194   16215498.7014
 95  1 31 18 55 29.9860000  0  7 22  4 19 18 29 25 14
  17220170.354   -40032050.90349 -31169351.12849  17220170.8774   17220176.9994
  20415502.427   -12041982.11549  -9364930.97949  20415508.0084   20415516.8024
  19368153.511   -14384343.20249 -11172073.62549  19368153.0404   19368160.8284
  18464086.893   -23166196.54949 -18033633.86349  18464090.1914   18464095.9714
  16887237.885   -40421094.37649 -31473045.37449  16887241.0354   16887244.8154
  20478537.393    -1958435.98249  -1517700.55049  20478536.7544   20478544.6554
  16207731.216   -38979993.96849 -30347918.33549  16207735.3844   16207740.3764
 95  1 31 18 55 59.9860000  0  7 22  4 19 18 29 25 14
  17209718.549   -40086962.61949 -31212139.48649  17209721.3024   17209727.5254
  20400250.116   -12122193.71649  -9427433.54749  20400246.2274   20400252.5454
  19339248.159   -14536235.07749 -11290430.84549  19339248.0924   19339255.9784
  18436934.498   -23308897.22249 -18144829.17049  18436935.0814   18436940.6924
  16867797.694   -40523262.85349 -31552657.17949  16867799.2894   16867803.0414
  20482931.712    -1935359.02249  -1499718.54249  20482929.4274   20482935.8674
  16200092.732   -39020144.35449 -30379204.37149  16200094.7244   16200099.9354
 95  1 31 18 56 29.9860000  0  7 22  4 19 18 29 25 14
  17199396.689   -40141211.84849 -31254411.62049  17199398.1104   17199404.2934
  20385084.832   -12201856.89649  -9489508.78049  20385085.7974   20385092.1334
  19310386.139   -14687888.10049 -11408601.91749  19310389.9414   19310397.7714
  18409800.625   -23451471.09749 -18255925.68849  18409804.6394   18409810.2774
  16848395.503   -40625210.88749 -31632097.21249  16848398.9854   16848403.0054
  20487329.837    -1912226.15049  -1481693.03249  20487331.2354   20487337.6504
  16192571.803   -39059668.72049 -30410002.60449  16192573.5044   16192578.6074
 95  1 31 18 56 59.9860000  0  6 22  4 19 18 29 14
  17189204.222   -40194773.73849 -31296148.16449  17189205.7434   17189211.6844
  20370033.260   -12280945.07249  -9551135.98449  20370035.1834   20370041.9434
  19281576.324   -14839283.73249 -11526572.48949  19281580.3434   19281587.9194
  18382698.475   -23593914.76949 -18366920.74049  18382698.9404   18382704.4914
  16829037.232   -40726933.89949 -31711361.90249  16829041.4394   16829045.7724
  16185165.762   -39098584.30249 -30440326.45749  16185168.2204   16185173.3594
 95  1 31 18 57 29.9860000  0  6 22  4 19 18 29 14
  17179144.376   -40247635.59849 -31337339.22949  17179146.6044   17179152.3064
  20355094.737   -12359435.12449  -9612297.09749  20355099.5584   20355106.9104
  19252818.883   -14990425.57249 -11644345.30049  19252819.6714   19252827.1094
  18355618.788   -23736211.08049 -18477800.97749  18355621.2554   18355626.5314
  16809722.637   -40828428.11249 -31790448.31449  16809727.6774   16809732.0154
  16177873.145   -39136898.44449 -30470181.65649  16177876.8334   16177882.2494
 95  1 31 18 57 59.9860000  0  6 22  4 19 18 29 14
  17169214.744   -40299813.00549 -31377996.96349  17169217.2304   17169223.0624
  20340278.853   -12437335.35549  -9672998.58649  20340276.8754   20340284.5354
  19224104.203   -15141321.04549 -11761926.14949  19224104.8644   19224112.5544
  18328571.013   -23878353.85749 -18588561.56949  18328572.6744   18328577.4934
  16790455.847   -40929679.68849 -31869345.65749  16790460.1884   16790464.4794
  16170696.479   -39174610.00649 -30499567.30749  16170700.5064   16170706.1784
 95  1 31 18 58 29.9860000  0  6 22  4 19 18 29 14
  17159416.709   -40351311.47049 -31418125.64349  17159417.4264   17159423.2714
  20325557.751   -12514650.94149  -9733244.54549  20325562.6104   20325570.3294
  19195431.468   -15291970.95649 -11879315.66149  19195436.8754   19195444.9784
  18301549.130   -24020348.06249 -18699206.38149  18301552.0724   18301557.0804
  16771240.946   -41030670.54649 -31948039.84149  16771242.3164   16771246.7704
  16163637.487   -39211715.53249 -30528480.72549  16163639.4364   16163645.1754
 95  1 31 18 58 59.9860000  0  6 22  4 19 18 29 14
  17149738.926   -40402144.67749 -31457735.94049  17149744.1214   17149749.9034
  20310961.061   -12591397.90749  -9793047.41749  20310958.1134   20310963.9294
  19166808.780   -15442381.96549 -11996518.99349  19166814.0954   19166821.9884
  18274553.254   -24162199.60149 -18809740.02849  18274557.8634   18274563.4154
  16752071.665   -41131394.20349 -32026525.81649  16752075.1794   16752079.4894
  16156694.165   -39248212.24049 -30556919.73849  16156694.8234   16156700.4414
 95  1 31 18 59 29.9860000  0  6 22  4 19 18 29 14
  17140192.367   -40452331.98649 -31496842.93149  17140193.8104   17140199.3454
  20296444.449   -12667599.58949  -9852425.40249  20296456.8774   20296462.3914
  19138238.398   -15592544.68049 -12113528.86349  19138239.4344   19138247.2224
  18247587.848   -24303909.27649 -18920163.12649  18247591.1234   18247597.7914
  16732954.538   -41231848.72649 -32104802.07449  16732959.5484   16732963.6344
  16149867.252   -39284078.79049 -30584867.72549  16149869.7304   16149875.3794
 95  1 31 18 59 59.9860000  0  6 22  4 19 18 29 14
  17130762.468   -40501885.37549 -31535455.95749  17130764.2874   17130769.7324
  20282054.765   -12743277.88549  -9911395.57249  20282056.2794   20282063.0594
  19109708.780   -15742435.11449 -12230326.52949  19109715.4564   19109724.3164
  18220640.426   -24445498.47049 -19030492.34949  18220647.2714   18220654.5094
  16713889.388   -41332047.15249 -32182878.78049  16713892.4064   16713896.5364
  16143158.846   -39319320.31949 -30612328.68349  16143163.6124   16143169.0994
 95  1 31 19  0 29.9850000  0  6 22  4 19 18 29 14
  17121458.934   -40550786.20649 -31573560.49649  17121458.7974   17121464.5734
  20267752.881   -12818432.41849  -9969957.57949  20267753.1144   20267762.8264
  19081245.308   -15892024.74249 -12346889.80149  19081249.8174   19081258.5314
  18193725.499   -24586968.59649 -19140728.79349  18193726.5004   18193733.6654
  16694867.673   -41432003.79949 -32260767.08049  16694871.0294   16694875.4954
  16136573.831   -39353938.99049 -30639304.29949  16136575.7164   16136581.2054
 95  1 31 19  0 59.9850000  0  6 22  4 19 18 29 14
  17112279.116   -40599031.40349 -31611154.14949  17112278.4704   17112284.0534
  20253550.362   -12893058.45749 -10028107.76249  20253553.4104   20253562.3314
  19052838.468   -16041305.41649 -12463212.33049  19052842.8464   19052851.1264
  18166827.820   -24728309.59149 -19250864.62049  18166830.4354   18166836.7314
  16675890.344   -41531741.00349 -32338484.38349  16675891.6974   16675896.1844
  16130105.231   -39387928.10249 -30665789.35049  16130107.5464   16130112.9064
 95  1 31 19  1 29.9850000  0  6 22  4 19 18 29 14
  17103223.878   -40646600.07549 -31648220.65049  17103226.1964   17103232.2434
  20239452.484   -12967145.73049 -10085838.12949  20239455.8974   20239462.9304
  19024490.167   -16190256.33249 -12579277.92349  19024497.4464   19024507.1634
  18139961.276   -24869500.57749 -19360883.55949  18139962.5844   18139968.3504
  16656953.408   -41631249.53249 -32416023.50749  16656955.8654   16656960.2674
  16123759.592   -39421276.11949 -30691774.84849  16123761.3854   16123766.8384
 95  1 31 19  1 59.9850000  0  6 22  4 19 18 29 14
  17094301.105   -40693491.99949 -31684759.81949  17094302.8784   17094308.9054
  20225459.814   -13040672.74949 -10143131.98049  20225464.3224   20225469.8614
  18996210.359   -16338886.87649 -12695093.85349  18996214.3074   18996223.3144
  18113122.191   -25010538.23649 -19470783.02749  18113124.1624   18113129.1094
  16638060.595   -41730526.31049 -32493382.03849  16638064.2584   16638068.6434
  16117535.990   -39453996.56949 -30717271.33249  16117535.3444   16117540.5934
 95  1 31 19  2 29.9850000  0  6 22  4 19 18 29 14
  17085505.553   -40739719.83749 -31720781.52549  17085506.2374   17085511.9474
  20211579.733   -13113620.44849 -10199974.37149  20211582.8254   20211589.1294
  18967985.864   -16487220.19349 -12810678.18149  18967987.8324   18967995.7354
  18086312.791   -25151416.60349 -19580558.38949  18086315.6774   18086320.5854
  16619213.756   -41829569.49049 -32570558.54949  16619217.1324   16619221.4974
  16111426.615   -39486091.55749 -30742280.44449  16111427.8994   16111433.4154
 95  1 31 19  2 59.9850000  0  6 22  4 19 18 29 14
  17076833.752   -40785290.21149 -31756290.92249  17076834.0784   17076839.9444
  20197816.367   -13185980.24349 -10256358.66249  20197813.4744   20197820.3534
  18939815.299   -16635264.62349 -12926037.44349  18939815.6484   18939824.2244
  18059538.380   -25292125.64649 -19690201.81249  18059540.1374   18059544.7634
  16600416.252   -41928358.05349 -32647536.65249  16600418.3744   16600422.7344
  16105440.023   -39517553.52449 -30766796.29949  16105440.7904   16105446.4504
 95  1 31 19  3 29.9850000  0  6 22  4 19 18 29 14
  17068284.973   -40830210.41449 -31791293.69249  17068285.9674   17068291.9534
  20184155.437   -13257757.30449 -10312288.85549  20184153.7914   20184161.2704
  18911695.982   -16783032.38649 -13041181.08849  18911697.0784   18911704.7824
  18032791.713   -25432676.27049 -19799721.77049  18032794.3024   18032799.7154
  16581666.230   -42026883.42249 -32724309.67749  16581669.4764   16581673.8854
  16099566.637   -39548402.97149 -30790834.86549  16099570.4314   16099576.0354
 95  1 31 19  3 59.9850000  0  6 22  4 19 18 29 14
  17059858.336   -40874482.92449 -31825791.76649  17059860.9814   17059866.6554
  20170608.912   -13328943.66949 -10367758.78449  20170609.1994   20170613.0534
  18883628.284   -16930525.67249 -13156110.88549  18883630.0434   18883637.6704
  18006072.790   -25573075.41949 -19909123.69849  18006077.1694   18006083.0864
  16562969.113   -42125142.43149 -32800875.14649  16562971.3274   16562975.8014
  16093813.721   -39578644.35949 -30814399.61249  16093816.0494   16093821.5054
 95  1 31 19  4 29.9850000  0  6 22  4 19 18 29 14
  17051555.788   -40918099.40449 -31859778.65049  17051561.0724   17051567.0174
  20157166.100   -13399559.96759 -10422784.53159  20157172.1064   20157174.7094
  18855612.413   -17077742.19349 -13270825.00549  18855615.3404   18855622.6424
  17979386.121   -25713328.56749 -20018411.85149  17979387.3414   17979393.8084
  16544319.813   -42223141.35149 -32877237.94849  16544322.8114   16544327.1644
  16088176.562   -39608268.99449 -30837483.77349  16088178.6724   16088184.1604
 95  1 31 19  4 59.9850000  0  6 22  4 19 18 29 14
  17043385.877   -40961059.86649 -31893254.35049  17043386.5134   17043391.9044
  20143838.085   -13469631.23849 -10477385.56249  20143836.9234   20143842.7194
  18827649.916   -17224681.72849 -13385323.31549  18827653.6564   18827660.5984
  17952718.784   -25853442.75949 -20127591.72349  17952723.9794   17952731.0504
  16525718.916   -42320886.31549 -32953402.85649  16525722.5834   16525726.9264
  16082653.847   -39637290.53949 -30860097.99549  16082655.8884   16082661.4614
 95  1 31 19  5 29.9850000  0  6 22  4 19 18 29 14
  17035330.495   -41003375.41149 -31926227.51249  17035334.0714   17035339.7004
  20130609.479   -13539154.26549 -10531559.37649  20130607.2204   20130614.7734
  18799740.884   -17371348.78249 -13499609.28649  18799742.5714   18799750.8564
  17926084.567   -25993422.46249 -20236666.80749  17926086.9074   17926093.2264
  16507166.990   -42418380.62549 -33029372.46049  16507170.0674   16507174.2094
  16077247.228   -39665704.78949 -30882239.00149  16077249.0504   16077254.5674
 95  1 31 19  5 59.9850000  0  6 22  4 19 18 29 14
  17027402.873   -41045049.47349 -31958700.82349  17027403.6484   17027409.7974
  20117472.999   -13608141.56949 -10585315.73849  20117479.5684   20117487.3434
  18771876.084   -17517747.49049 -13613686.14649  18771884.2314   18771892.2374
  17899475.115   -26133268.36149 -20345637.63449  17899475.5324   17899481.5474
  16488662.052   -42515626.09549 -33105148.15349  16488664.9094   16488668.9294
  16071960.144   -39693495.95949 -30903894.49249  16071960.2844   16071966.0494
 95  1 31 19  6 29.9850000  0  6 22  4 19 18 29 14
  17019595.076   -41086081.17149 -31990673.59449  17019595.3864   17019601.2654
  20104451.056   -13676611.89749 -10638669.28049  20104450.7584   20104458.2734
  18744075.351   -17663882.96849 -13727557.90049  18744076.1304   18744083.2984
  17872889.794   -26272973.26949 -20454498.59349  17872890.8124   17872896.1954
  16470203.719   -42612631.61649 -33180736.87749  16470204.9824   16470209.1774
  16066786.838   -39720675.17149 -30925073.13649  16066788.0404   16066794.0354
 95  1 31 19  6 59.9850000  0  6 22  4 19 18 29 14
  17011909.614   -41126468.27449 -32022144.08649  17011909.8744   17011915.8694
  20091518.566   -13744565.09549 -10691619.87849  20091517.8224   20091524.9304
  18716315.994   -17809765.86349 -13841232.83749  18716315.4674   18716323.5324
  17846330.264   -26412536.66349 -20563249.28449  17846333.0534   17846338.1444
  16451787.013   -42709393.56449 -33256135.80049  16451791.5064   16451795.9524
  16061729.356   -39747253.11849 -30945783.25749  16061730.7624   16061736.6894
 95  1 31 19  7 29.9850000  0  6 22  4 19 18 29 14
  17004345.321   -41166190.95049 -32053096.84149  17004350.9544   17004356.7614
  20078686.586   -13811997.49749 -10744164.65749  20078686.1204   20078693.1114
  18688600.217   -17955403.52549 -13954716.68149  18688601.2194   18688609.6224
  17819801.003   -26551957.31449 -20671888.75549  17819801.8454   17819807.1744
  16433420.477   -42805916.30049 -33331348.32849  16433424.0664   16433428.7134
  16056784.235   -39773229.76749 -30966024.84049  16056787.8354   16056793.6194
 95  1 31 19  7 59.9850000  0  6 22  4 19 18 29 14
  16996920.556   -41205232.98749 -32083519.23549  16996921.1114   16996927.1524
  20065954.981   -13878917.80549 -10796310.38249  20065953.4304   20065959.3734
  18660929.147   -18100785.63749 -14068001.39449  18660936.0364   18660944.0564
  17793301.162   -26691224.35949 -20780408.53849  17793300.0414   17793305.7494
  16415096.943   -42902215.28449 -33406386.49549  16415099.0094   16415103.5774
  16051953.087   -39798622.98549 -30985811.79949  16051955.9034   16051961.0974
 95  1 31 19  8 29.9850000  0  6 22  4 19 18 29 14
  16989618.395   -41243588.78049 -32113406.90049  16989622.2924   16989628.3334
  20053325.260   -13945293.92949 -10848032.10249  20053322.5724   20053326.7024
  18633319.923   -18245892.76249 -14181071.82549  18633322.5904   18633330.8654
  17766827.574   -26830326.25949 -20888799.62749  17766830.1074   17766835.5054
  16396813.841   -42998283.72049 -33481245.01749  16396818.2624   16396822.4364
  16047232.836   -39823433.35449 -31005144.58949  16047234.6024   16047239.7264
 95  1 31 19  8 59.9850000  0  6 22  4 19 18 29 14
  16982450.877   -41281270.65649 -32142769.42949  16982452.3494   16982457.5684
  20040781.718   -14011115.92549 -10899322.02749  20040793.1304   20040802.0444
  18605760.162   -18390713.46849 -14293919.06549  18605764.3104   18605772.1224
  17740389.207   -26969259.95449 -20997059.64149  17740392.0054   17740396.9144
  16378577.878   -43094115.24749 -33555918.93749  16378581.9424   16378586.1834
  16042625.463   -39847651.94349 -31024016.24549  16042626.0254   16042631.1174
 95  1 31 19  9 29.9850000  0  6 22  4 19 18 29 14
  16975400.440   -41318307.85549 -32171629.61349  16975404.7064   16975410.0054
  20028372.762   -14076383.57349 -10950179.96049  20028374.3914   20028382.3974
  18578260.422   -18535225.93349 -14406526.12549  18578265.1144   18578272.0744
  17713986.944   -27108013.31149 -21105179.13949  17713988.2554   17713993.1354
  16360385.497   -43189716.21249 -33630413.20049  16360389.4864   16360394.0004
  16038127.884   -39871280.97449 -31042428.50549  16038129.0214   16038134.6954
 95  1 31 19  9 59.9850000  0  6 22  4 19 18 29 14
  16968471.785   -41354737.75849 -32200016.56749  16968472.1264   16968477.5414
  20016061.673   -14141099.37349 -11000607.88549  20016060.7744   20016068.4204
  18550824.201   -18679418.25149 -14518883.72749  18550826.1294   18550833.2554
  17687618.326   -27246581.52949 -21213154.35149  17687619.3264   17687624.6724
  16342239.341   -43285077.46749 -33704720.68349  16342242.7704   16342247.4144
  16033739.564   -39894313.41449 -31060375.89249  16033745.8234   16033751.7784
 95  1 31 19 10 29.9850000  0  6 22  4 19 18 29 14
  16961655.367   -41390554.38849 -32227925.65049  16961656.3904   16961661.9194
  20003853.451   -14205255.18849 -11050599.48749  20003852.9914   20003858.6814
  18523448.670   -18823281.48849 -14630984.91049  18523449.5114   18523456.4324
  17661284.452   -27384966.37149 -21320986.66949  17661285.1804   17661291.1174
  16324141.830   -43380174.83949 -33778822.54249  16324146.4824   16324150.9364
  16029476.645   -39916732.24449 -31077845.14649  16029479.7234   16029485.5794
 95  1 31 19 10 59.9850000  0  6 22  4 19 18 29 14
  16954957.142   -41425752.96249 -32255353.12249  16954958.0974   16954964.2214
  19991743.267   -14268865.48849 -11100166.00049  19991746.7914   19991753.5764
  18496126.586   -18966836.37849 -14742845.81049  18496131.6334   18496138.5744
  17634985.939   -27523162.58349 -21428672.01349  17634987.3234   17634993.1754
  16306099.709   -43474998.71349 -33852711.28149  16306102.3204   16306106.5614
  16025328.277   -39938533.98349 -31094833.54949  16025331.1334   16025336.9124
 95  1 31 19 11 29.9850000  0  6 22  4 19 18 29 14
  16948378.925   -41460325.27449 -32282292.60049  16948379.1884   16948385.2004
  19979748.389   -14331928.19149 -11149305.80749  19979745.8074   19979752.3794
  18468867.330   -19110106.18849 -14854484.56549  18468867.8994   18468875.4444
  17608722.126   -27661178.56749 -21536216.91849  17608724.0834   17608730.3754
  16288109.596   -43569541.74649 -33926381.18549  16288111.5344   16288115.6244
  16021298.340   -39959718.94049 -31111341.34549  16021299.9004   16021305.6524
 95  1 31 19 11 59.9840000  0  6 22  4 19 18 29 14
  16941922.250   -41494245.44649 -32308723.91849  16941924.0734   16941930.6504
  19967850.085   -14394446.41049 -11198021.34949  19967850.7064   19967855.5604
  18441648.764   -19253113.46049 -14965918.77149  18441654.6814   18441662.5974
  17582491.118   -27799029.54949 -21643633.24749  17582492.1994   17582497.8434
  16270172.592   -43663791.48249 -33999822.54549  16270176.2514   16270180.6404
  16017384.676   -39980293.69849 -31127373.66049  16017385.0034   16017390.3484
 95  1 31 19 12 29.9840000  0  6 22  4 19 18 29 14
  16935596.090   -41527500.37149 -32334636.86349  16935595.7224   16935602.5414
  19956061.772   -14456426.20849 -11246317.33549  19956056.7944   19956062.0894
  18414479.549   -19395885.54249 -15077169.68949  18414486.2384   18414493.1234
  17556285.911   -27936735.25049 -21750936.38349  17556287.6404   17556292.7854
  16252293.293   -43757759.88849 -34073044.69149  16252294.7084   16252299.1334
  16013581.214   -40000268.87749 -31142938.77249  16013583.9694   16013589.1934
 95  1 31 19 12 59.9840000  0  6 22  4 19 18 29 14
  16929391.866   -41560098.71649 -32360038.18849  16929392.9744   16929399.3594
  19944366.630   -14517864.20049 -11294191.13749  19944365.3294   19944369.8134
  18387364.019   -19538415.72049 -15188232.10249  18387364.2474   18387371.0274
  17530109.485   -28074281.19549 -21858115.03249  17530113.4654   17530118.4994
  16234465.404   -43851437.81749 -34146040.48949  16234468.1894   16234472.9774
  16009896.711   -40019642.93849 -31158035.47349  16009897.1234   16009902.6034
 95  1 31 19 13 29.9840000  0  6 22  4 19 18 29 14
  16923309.700   -41592045.29949 -32384931.64649  16923313.9204   16923319.9184
  19932770.469   -14578766.65849 -11341647.62949  19932776.0584   19932781.5034
  18360289.677   -19680675.45149 -15299083.80749  18360292.9534   18360299.8544
  17503967.952   -28211677.44449 -21965177.03949  17503967.9764   17503972.3684
  16216693.036   -43944825.11749 -34218809.82949  16216696.9724   16216702.0564
  16006320.577   -40038431.85049 -31172676.22049  16006321.6014   16006327.1404
 95  1 31 19 13 59.9840000  0  6 22  4 19 18 29 14
  16917354.705   -41623356.30849 -32409329.84849  16917355.8284   16917361.6344
  19921285.621   -14639144.00949 -11388694.97549  19921286.8724   19921292.4084
  18333273.864   -19822645.23849 -15409709.54449  18333276.8304   18333283.6244
  17477850.280   -28348922.37749 -22072121.13949  17477850.9534   17477855.4444
  16198975.728   -44037940.11949 -34291366.98149  16198977.9894   16198982.7274
  16002852.779   -40056646.52949 -31186869.50549  16002855.4994   16002861.3884
 95  1 31 19 14 29.9840000  0  6 22  4 19 18 29 14
  16911515.833   -41654045.06749 -32433243.18349  16911515.6764   16911521.6704
  19909899.425   -14698997.18549 -11435333.86549  19909896.7704   19909903.9354
  18306317.950   -19964303.82149 -15520092.80349  18306320.1164   18306327.0894
  17451764.121   -28486001.66849 -22178936.15949  17451765.7834   17451770.3294
  16181306.493   -44130793.66049 -34363720.39549  16181308.7464   16181313.2224
  15999498.383   -40074283.51349 -31200612.63949  15999499.0924   15999504.8584
 95  1 31 19 14 59.9840000  0  6 22  4 19 18 29 14
  16905789.819   -41684120.03749 -32456678.23449  16905792.3344   16905798.4904
  19898608.465   -14758335.30549 -11481571.40149  19898604.0424   19898612.5714
  18279422.384   -20105648.47649 -15630231.44549  18279423.3054   18279430.0444
  17425706.029   -28622914.70149 -22285621.63049  17425711.6374   17425716.6484
  16163685.370   -44223395.25749 -34435877.48049  16163687.7104   16163691.6664
  15996249.990   -40091356.16749 -31213916.04049  15996250.6094   15996256.3564
 95  1 31 19 15 29.9840000  0  6 22  4 19 18 29 14
  16900184.190   -41713583.15749 -32479636.52349  16900186.0064   16900191.7624
  19887407.695   -14817168.67549 -11527415.65849  19887408.9204   19887414.4844
  18252579.840   -20246694.75149 -15740137.58349  18252582.6874   18252590.0874
  17399687.422   -28759673.83449 -22392187.17449  17399687.2794   17399692.6514
  16146107.558   -44315764.35449 -34507853.40349  16146110.5084   16146114.4884
  15993105.591   -40107865.51649 -31226780.50249  15993109.0884   15993114.7754
 95  1 31 19 15 59.9840000  0  6 22  4 19 18 29 14
  16894698.969   -41742418.13949 -32502105.34749  16894699.2594   16894704.9034
  19876312.444   -14875477.93349 -11572851.48949  19876313.5894   19876319.1404
  18225798.013   -20387450.13649 -15849817.06549  18225798.5174   18225805.0714
  17373694.130   -28896259.80349 -22498617.79349  17373695.5354   17373701.2104
  16128572.878   -44407905.36949 -34579651.59949  16128575.9614   16128580.4204
  15990078.113   -40123786.70049 -31239186.65249  15990079.2384   15990085.0734
 95  1 31 19 16 29.9840000  0  6 22  4 19 18 29 14
  16889331.591   -41770621.90249 -32524082.31549  16889331.8104   16889337.7474
  19865320.304   -14933257.02649 -11617874.21949  19865318.5224   19865325.2634
  18199065.322   -20527921.61649 -15959275.32549  18199066.8164   18199074.0844
  17347735.283   -29032664.77049 -22604907.37049  17347738.5104   17347744.4984
  16111085.804   -44499802.41149 -34651259.68849  16111088.5324   16111093.3604
  15987163.327   -40139104.55049 -31251122.67649  15987164.4974   15987169.8214
 95  1 31 19 16 59.9840000  0  6 22  4 19 18 29 14
  16884083.104   -41798206.27949 -32545576.64449  16884082.9854   16884089.1194
  19854419.077   -14990503.51949 -11662481.93149  19854423.6174   19854430.5134
  18172385.153   -20668126.29849 -16068525.68449  18172387.5064   18172393.8194
  17321816.098   -29168904.50149 -22711068.19649  17321812.8754   17321818.9594
  16093649.042   -44591440.28049 -34722665.82849  16093650.4194   16093655.1404
  15984363.115   -40153807.28149 -31262579.38349  15984366.4614   15984372.0004
 95  1 31 19 17 29.9840000  0  6 22  4 19 18 29 14
  16878946.780   -41825186.13249 -32566599.92649  16878948.8174   16878955.0794
  19843627.654   -15047215.73849 -11706673.37449  19843632.3824   19843638.8014
  18145759.155   -20808058.96449 -16177564.09249  18145759.0854   18145765.2714
  17295914.571   -29304978.39949 -22817099.79349  17295918.7904   17295924.8964
  16076262.139   -44682812.97349 -34793865.33349  16076262.6974   16076267.3734
  15981685.539   -40167891.80549 -31273554.37249  15981686.2144   15981691.7704
 95  1 31 19 17 59.9840000  0  6 22  4 19 18 29 14
  16873923.610   -41851567.33149 -32587156.72049  16873929.0604   16873934.6264
  19832941.674   -15103383.64349 -11750440.66149  19832943.8384   19832951.4214
  18119181.981   -20947704.47249 -16286378.73949  18119185.1684   18119192.0334
  17270055.388   -29440873.97049 -22922992.44649  17270059.0044   17270064.5324
  16058925.766   -44773907.16849 -34864847.82549  16058928.2634   16058932.6864
  15979116.749   -40181371.40649 -31284057.99449  15979121.0424   15979126.9214
 95  1 31 19 18 29.9840000  0  6 22  4 19 18 29 14
  16869017.623   -41877377.68649 -32607268.70549  16869017.1724   16869023.4534
  19822348.761   -15159029.02649 -11793800.73249  19822355.7544   19822363.4444
  18092662.592   -21087072.88149 -16394977.45549  18092663.8264   18092671.1154
  17244227.942   -29576613.15649 -23028763.24249  17244228.7694   17244234.2474
  16041644.382   -44864724.77549 -34935614.79249  16041646.4594   16041650.5024
  15976664.003   -40194268.84949 -31294107.99049  15976666.9894   15976672.4664
 95  1 31 19 18 59.9840000  0  6 22  4 19 18 29 14
  16864212.410   -41902604.63749 -32626926.08749  16864217.0204   16864222.4204
  19811857.798   -15214150.27249 -11836752.44049  19811866.5634   19811872.4994
  18066198.082   -21226160.66349 -16503357.50349  18066196.0014   18066203.2014
  17218422.625   -29712199.47049 -23134414.91149  17218427.5954   17218433.0104
  16024413.643   -44955269.48349 -35006169.11249  16024416.3014   16024420.3424
  15974318.528   -40206597.92849 -31303715.10049  15974320.8694   15974326.3624
 95  1 31 19 19 29.9840000  0  6 22  4 19 18 29 14
  16859531.814   -41927217.79149 -32646105.19349  16859532.8974   16859539.0264
  19801479.196   -15268746.80849 -11879295.28149  19801475.1034   19801484.6384
  18039784.477   -21364956.59149 -16611510.14149  18039783.8894   18039791.0164
  17192656.986   -29847610.23749 -23239929.79549  17192659.7684   17192665.3404
  16007233.950   -45045547.22749 -35076515.40249  16007236.6154   16007241.0264
  15972077.022   -40218378.94549 -31312895.14849  15972079.3304   15972084.7394
 95  1 31 19 19 59.9840000  0  6 22  4 19 18 29 14
  16854971.342   -41951190.93249 -32664785.57149  16854971.1334   16854976.6174
  19791182.977   -15322819.35649 -11921429.81749  19791186.0504   19791192.5404
  18013422.868   -21503470.56049 -16719443.07149  18013425.2634   18013432.4364
  17166922.879   -29982838.08149 -23345302.14249  17166926.5774   17166932.0024
  15990107.012   -45135548.49149 -35146646.25649  15990109.8184   15990114.4814
  15969937.332   -40229609.60849 -31321646.35249  15969941.9704   15969947.7854
 95  1 31 19 20 29.9840000  0  6 22  4 19 18 29 14
  16850529.556   -41974517.41549 -32682962.05649  16850531.8834   16850537.7284
  19780990.540   -15376384.48249 -11963168.98149  19780994.5374   19780998.8324
  17987114.188   -21641715.70549 -16827166.53649  17987118.2984   17987125.6924
  17141224.143   -30117892.18349 -23450539.10249  17141226.4984   17141232.1124
  15973035.351   -45225266.80549 -35216556.63149  15973037.1044   15973041.7244
  15967908.645   -40240283.09849 -31329963.39249  15967910.9484   15967916.5774
 95  1 31 19 20 59.9840000  0  6 22  4 19 18 29 14
  16846217.479   -41997182.16349 -32700622.90749  16846218.9614   16846224.8854
  19770893.428   -15429428.62749 -12004502.16649  19770900.5764   19770905.7114
  17960863.713   -21779680.30849 -16934671.40549  17960864.6204   17960872.0994
  17115562.725   -30252749.98549 -23555623.10049  17115563.7834   17115569.3984
  15956018.753   -45314683.09049 -35286231.66449  15956021.7044   15956026.4594
  15965983.763   -40250396.72949 -31337844.17749  15965986.2864   15965992.2724
 95  1 31 19 21 29.9840000  0  6 22  4 19 18 29 14
  16842029.422   -42019186.22349 -32717768.93549  16842031.6364   16842037.7114
  19760904.990   -15481949.15249 -12045427.33649  19760908.9814   19760912.9404
  17934667.051   -21917344.63849 -17041942.29249  17934668.4574   17934675.3074
  17089941.923   -30387386.90949 -23660534.98449  17089943.4354   17089949.0074
  15939064.515   -45403771.69049 -35355651.35549  15939068.9204   15939073.5414
  15964166.910   -40259942.92749 -31345282.80549  15964169.7764   15964175.9434
 95  1 31 19 21 59.9840000  0  6 22  4 19 18 29 14
  16837958.554   -42040568.83349 -32734430.71549  16837962.5774   16837968.8764
  19751007.467   -15533961.55449 -12085956.54049  19751007.4874   19751015.2224
  17908528.672   -22054711.80249 -17148981.62449  17908527.9934   17908535.3534
  17064360.670   -30521815.47649 -23765284.51149  17064362.7344   17064368.2464
  15922175.092   -45492533.94849 -35424816.75649  15922178.2024   15922182.7524
  15962457.035   -40268913.70649 -31352273.06549  15962462.4664   15962468.7214
 95  1 31 19 22 29.9840000  0  6 22  4 19 18 29 14
  16834008.304   -42061355.03549 -32750627.76749  16834007.3374   16834013.3404
  19741199.802   -15585469.61849 -12126092.73549  19741204.2094   19741214.9844
  17882442.360   -22191769.47649 -17255779.80449  17882446.5864   17882454.9354
  17038819.959   -30656041.73649 -23869876.39449  17038820.3174   17038825.7364
  15905345.503   -45580970.84849 -35493728.63149  15905349.1224   15905353.5974
  15960863.257   -40277301.99749 -31358809.43449  15960866.2734   15960872.2534
 95  1 31 19 22 59.9840000  0  6 22  4 19 18 29 14
  16830159.352   -42081561.23949 -32766372.87649  16830162.3434   16830168.9254
  19731501.527   -15636472.61349 -12165835.40549  19731499.5834   19731506.3364
  17856420.037   -22328518.39749 -17362337.39749  17856424.3604   17856432.0884
  17013312.934   -30790065.01449 -23974310.11449  17013316.8034   17013322.3394
  15888573.800   -45669103.26449 -35562403.24749  15888578.1264   15888582.5944
  15959377.981   -40285114.80549 -31364897.37449  15959379.5004   15959385.6494
 95  1 31 19 23 29.9830000  0  6 22  4 19 18 29 14
  16826423.991   -42101197.45149 -32781673.84249  16826425.6714   16826432.5344
  19721891.816   -15686984.42849 -12205195.37449  19721889.9014   19721894.1344
  17830456.116   -22464970.94249 -17468664.04149  17830458.6964   17830466.1084
  16987847.804   -30923890.10549 -24078589.40249  16987850.3034   16987856.3704
  15871858.888   -45756951.91349 -35630856.74849  15871861.0524   15871865.6094
  15958004.064   -40292339.25849 -31370526.85849  15958005.0644   15958010.8474
 95  1 31 19 23 59.9830000  0  6 22  4 19 18 29 14
  16822802.937   -42120254.68549 -32796523.66349  16822799.2734   16822805.9914
  19712366.646   -15736999.59149 -12244168.32949  19712371.4374   19712377.1344
  17804544.853   -22601141.83849 -17574771.21849  17804545.5754   17804553.0404
  16962416.939   -31057534.83049 -24182728.15249  16962418.3054   16962424.7014
  15855193.713   -45844532.21249 -35699101.15449  15855195.0924   15855199.5394
  15956742.169   -40298967.41349 -31375691.70049  15956744.1544   15956749.5974
 95  1 31 19 24 29.9830000  0  6 22  4 19 18 29 14
  16819290.843   -42138700.96749 -32810897.42649  16819288.9764   16819295.8424
  19702939.937   -15786502.79249 -12282742.34149  19702949.0964   19702958.2164
  17778689.202   -22737016.41549 -17680647.47749  17778689.3944   17778696.8804
  16937019.928   -31190985.81249 -24286715.93849  16937023.3004   16937029.6494
  15838577.161   -45931840.40249 -35767133.53049  15838580.8294   15838585.2374
  15955593.217   -40305007.25749 -31380398.12149  15955594.8614   15955600.2634
 95  1 31 19 24 59.9830000  0  6 22  4 19 18 29 14
  16815895.905   -42156524.37849 -32824785.83749  16815897.4844   16815904.1214
  19693619.653   -15835486.51249 -12320911.57649  19693629.7404   19693639.7674
  17752888.266   -22872602.46849 -17786298.92249  17752888.0014   17752895.8434
  16911660.449   -31324236.67249 -24390547.77949  16911666.3984   16911672.4994
  15822014.201   -46018890.01149 -35834964.40949  15822015.9764   15822020.3324
  15954552.625   -40310481.61349 -31384663.89949  15954553.2974   15954558.8334
 95  1 31 19 25 29.9830000  0  6 22  4 19 18 29 14
  16812625.098   -42173717.61149 -32838183.19849  16812625.7704   16812631.9044
  19684395.908   -15883960.23949 -12358683.37149  19684405.0524   19684418.1264
  17727142.256   -23007892.78449 -17891719.92049  17727143.2834   17727151.2704
  16886346.919   -31457286.40549 -24494222.89149  16886347.8244   16886353.7464
  15805500.782   -46105666.77249 -35902582.67749  15805503.0144   15805507.1844
  15953614.321   -40315408.51249 -31388503.08349  15953615.4794   15953621.4674
 95  1 31 19 25 59.9830000  0  6 22  4 19 18 29 14
  16809469.746   -42190281.34849 -32851090.04949  16809473.4354   16809479.9964
  19675284.187   -15931929.22949 -12396061.88049  19675277.9244   19675286.5434
  17701455.925   -23142874.11049 -17996900.15549  17701457.1454   17701464.7344
  16861064.455   -31590141.01949 -24597745.95649  16861066.3694   16861072.5364
  15789041.350   -46192163.75949 -35969982.94149  15789043.3594   15789047.6454
  15952771.229   -40319817.99649 -31391939.09149  15952776.0384   15952782.3034
 95  1 31 19 26 29.9830000  0  6 22  4 19 18 29 14
  16806443.267   -42206217.91149 -32863508.18749  16806441.2674   16806446.8614
  19666244.834   -15979394.06949 -12433047.59349  19666244.3324   19666253.8474
  17675829.880   -23277541.87049 -18101836.05449  17675831.2354   17675838.0754
  16835820.788   -31722791.48649 -24701109.94849  16835823.9384   16835830.1104
  15772636.806   -46278376.31149 -36037161.56649  15772637.4074   15772641.9004
  15952035.311   -40323704.60949 -31394967.66649  15952036.6404   15952042.6454
 95  1 31 19 26 59.9830000  0  6 22  4 19 18 29 14
  16803526.229   -42221545.13949 -32875451.51449  16803524.2964   16803530.2644
  19657305.611   -16026360.39549 -12469644.83049  19657305.7854   19657313.1574
  17650257.891   -23411914.83449 -18206542.23449  17650260.8464   17650267.7614
  16810620.026   -31855238.32949 -24804315.27349  16810620.4414   16810626.3804
  15756288.754   -46364286.74449 -36104104.77549  15756288.9734   15756293.8484
  15951395.353   -40327062.42149 -31397584.18349  15951397.6434   15951403.4304
 95  1 31 19 27 29.9830000  0  6 22  4 19 18 29 14
  16800718.688   -42236271.68949 -32886926.78749  16800721.5744   16800728.0514
  19648459.764   -16072837.61649 -12505860.98249  19648463.9714   19648468.5874
  17624745.805   -23545993.76649 -18311019.30849  17624746.3714   17624753.5254
  16785453.704   -31987486.42049 -24907365.72949  16785454.5984   16785460.5304
  15739999.070   -46449877.15249 -36170798.61949  15740001.6684   15740006.4494
  15950856.838   -40329882.17849 -31399781.44049  15950861.0214   15950866.3724
 95  1 31 19 27 59.9830000  0  6 22  4 19 18 29 14
  16798033.733   -42250412.08249 -32897945.31249  16798030.9374   16798037.2294
  19639726.158   -16118816.35149 -12541688.64349  19639717.0064   19639721.3924
  17599279.185   -23679796.92949 -18415281.49049  17599284.4274   17599291.8564
  16760326.008   -32119541.13749 -25010265.50549  16760325.5354   16760331.4494
  15723771.750   -46535154.01249 -36237248.13649  15723773.8554   15723778.7924
  15950426.100   -40332147.88949 -31401546.97549  15950430.0694   15950435.5884
 95  1 31 19 28 29.9830000  0  6 22  4 19 18 29 14
  16795451.146   -42263988.42449 -32908524.31549  16795447.6834   16795454.0924
  19631054.113   -16164287.92949 -12577121.15149  19631061.9044   19631072.5174
  17573868.588   -23813341.74249 -18519342.34749  17573871.2344   17573879.0194
  16735232.523   -32251400.33749 -25113012.93549  16735233.4934   16735239.2984
  15707605.820   -46620115.30449 -36303451.76149  15707606.2544   15707610.9704
  15950105.013   -40333859.42649 -31402880.69049  15950104.5804   15950109.9494
 95  1 31 19 28 59.9830000  0  6 22  4 19 18 29 14
  16792963.170   -42277022.04949 -32918680.41349  16792967.5594   16792973.9594
  19622500.788   -16209259.23749 -12612163.83849  19622502.6464   19622513.5104
  17548505.654   -23946627.57849 -18623201.40049  17548507.7674   17548515.4004
  16710176.793   -32383066.51149 -25215609.94949  16710178.1244   16710183.6454
  15691495.815   -46704764.02449 -36369411.81849  15691498.3714   15691502.8494
  15949877.392   -40335032.99649 -31403795.20949  15949881.3384   15949886.7294
 95  1 31 19 29 29.9830000  0  6 22  4 19 18 29 14
  16790591.715   -42289510.83049 -32928411.96249  16790591.2834   16790597.8804
  19614042.861   -16253730.44449 -12646816.85049  19614040.1754   19614050.2654
  17523194.823   -24079626.61149 -18726836.97449  17523198.8204   17523206.9314
  16685161.269   -32514537.51949 -25318054.89349  16685160.2144   16685165.2414
  15675444.319   -46789114.26349 -36435139.29749  15675446.8934   15675451.2404
  15949756.171   -40335661.31749 -31404284.85849  15949761.7064   15949767.5014
 95  1 31 19 29 59.9830000  0  6 22  4 19 18 29 14
  16788320.909   -42301444.12049 -32937710.66349  16788319.8784   16788326.9894
  19605676.271   -16297705.44249 -12681083.19449  19605673.5064   19605680.6094
  17497944.033   -24212319.67749 -18830234.13749  17497948.5024   17497956.3434
  16660177.474   -32645811.65549 -25420346.42749  16660179.5024   16660184.6424
  15659448.841   -46873168.81449 -36500636.36549  15659452.0284   15659456.3014
  15949743.425   -40335740.70549 -31404346.76749  15949746.4514   15949752.7774
 95  1 31 19 30 29.9830000  0  6 22  4 19 18 29 14
  16786157.461   -42312813.31649 -32946569.81049  16786156.2794   16786163.3344
  19597406.725   -16341195.83949 -12714971.85549  19597399.8194   19597404.7624
  17472758.202   -24344676.84249 -18933369.56949  17472761.2764   17472768.5254
  16635236.403   -32776875.68549 -25522474.24949  16635238.5734   16635243.9204
  15643511.996   -46956915.38549 -36565893.45449  15643515.6884   15643519.9124
  15949831.712   -40335271.69649 -31403981.35649  15949835.6044   15949842.1404
 95  1 31 19 30 59.9830000  0  6 22  4 19 18 29 14
  16784106.178   -42323601.36249 -32954976.11449  16784103.6794   16784110.3554
  19589197.718   -16384227.34049 -12748503.01949  19589208.5534   19589218.0284
  17447638.662   -24476687.11349 -19036234.69849  17447641.4064   17447648.1994
  16610333.900   -32907737.37449 -25624444.40049  16610336.6694   16610341.9034
  15627633.020   -47040363.47049 -36630917.95249  15627636.0874   15627640.3734
  15950030.760   -40334243.41649 -31403180.14149  15950031.0384   15950037.7494
 95  1 31 19 31 29.9830000  0  6 22  4 19 18 29 14
  16782159.822   -42333787.65949 -32962913.51749  16782165.0984   16782172.2614
  19581110.128   -16426795.21849 -12781672.87549  19581107.4544   19581117.6384
  17422585.545   -24608359.35749 -19138836.43549  17422584.8234   17422591.7834
  16585470.323   -33038388.87949 -25726250.77549  16585474.5804   16585480.2054
  15611811.600   -47123504.30449 -36695703.03449  15611814.5164   15611819.3734
  15950330.984   -40332644.78349 -31401934.49449  15950335.2454   15950342.0774
 95  1 31 19 31 59.9830000  0  6 22  4 19 18 29 14
  16780332.595   -42343386.10849 -32970392.86949  16780338.2744   16780345.6414
  19573090.531   -16468887.42049 -12814472.10249  19573097.6734   19573107.2754
  17397584.180   -24739709.75849 -19241187.38549  17397589.2454   17397596.9044
  16560653.524   -33168819.65749 -25827885.15749  16560653.9594   16560660.1514
  15596049.855   -47206336.70949 -36760247.78649  15596052.2754   15596057.3004
  15950743.917   -40330486.90749 -31400253.07649  15950745.6864   15950752.5554
 95  1 31 19 32 29.9830000  0  6 22  4 19 18 29 14
  16778610.387   -42352425.06749 -32977436.24049  16778618.8064   16778625.4224
  19565185.511   -16510505.64549 -12846901.99949  19565180.6914   19565187.4064
  17372646.728   -24870771.30849 -19343313.25249  17372649.1454   17372656.0754
  16535877.325   -33299027.39649 -25929345.74049  16535876.7014   16535882.5074
  15580343.815   -47288870.02249 -36824559.48549  15580346.6114   15580351.9524
  15951257.948   -40327783.63649 -31398146.67549  15951260.3964   15951266.8784
 95  1 31 19 32 59.9830000  0  6 22  4 19 18 29 14
  16776997.402   -42360908.06549 -32984046.39849  16777004.6234   16777011.7064
  19557348.061   -16551637.45149 -12878952.86549  19557353.0094   19557360.2254
  17347752.060   -25001581.82649 -19445243.51049  17347756.4284   17347763.8924
  16511138.969   -33429016.57149 -26030636.01749  16511140.6924   16511146.2754
  15564694.887   -47371113.76649 -36888645.54549  15564696.2464   15564701.2164
  15951877.164   -40324545.96849 -31395623.86549  15951876.7794   15951882.9344
 95  1 31 19 33 29.9830000  0  6 22  4 19 18 29 14
  16775489.604   -42368867.18149 -32990248.33749  16775490.5204   16775496.5704
  19549608.679   -16592289.24249 -12910629.67849  19549617.0184   19549626.7904
  17322909.453   -25132159.42049 -19546992.27349  17322908.3874   17322915.9184
  16486445.382   -33558793.72349 -26131761.07849  16486445.0364   16486450.2144
  15549096.404   -47453072.17249 -36952509.25949  15549100.2064   15549104.9114
  15952585.979   -40320808.03049 -31392711.23449  15952588.7814   15952594.2424
 95  1 31 19 33 59.9830000  0  6 22  4 19 18 29 14
  16774069.562   -42376311.83149 -32996049.37649  16774073.7094   16774079.5524
  19541960.815   -16632471.05249 -12941940.26449  19541969.9454   19541978.3824
  17298107.048   -25262498.29749 -19648555.02149  17298105.7484   17298113.0584
  16461787.217   -33688364.52049 -26232725.34149  16461788.7224   16461793.4194
  15533555.828   -47534744.21849 -37016149.82749  15533558.5844   15533563.2694
  15953391.149   -40316589.84149 -31389424.37849  15953391.4114   15953396.9304
 95  1 31 19 34 29.9830000  0  6 22  4 19 18 29 14
  16772757.868   -42383211.37049 -33001425.66149  16772760.4394   16772766.7584
  19534408.280   -16672191.91949 -12972891.69549  19534411.8144   19534420.7824
  17273348.332   -25392591.55449 -19749926.38049  17273349.6904   17273357.2494
  16437169.202   -33817732.93849 -26333531.90349  16437170.4444   16437175.4854
  15518073.051   -47616113.20549 -37079554.24749  15518074.5074   15518079.0394
  15954286.773   -40311890.72949 -31385762.78649  15954285.5644   15954291.1774
 95  1 31 19 34 59.9830000  0  6 22  4 19 18 29 14
  16771554.069   -42389566.41149 -33006377.67249  16771551.2684   16771557.3724
  19526933.144   -16711463.83349 -13003493.29749  19526939.0644   19526946.0614
  17248644.270   -25522427.70149 -19851097.39449  17248642.4144   17248650.2564
  16412586.050   -33946912.04249 -26434190.94449  16412588.2114   16412593.5864
  15502643.083   -47697183.65849 -37142726.04649  15502647.1454   15502651.7444
  15955262.524   -40306718.81449 -31381732.77349  15955269.6164   15955275.3074
 95  1 31 19 35 29.9820000  0  6 22  4 19 18 29 14
  16770446.595   -42395369.50249 -33010899.58549  16770447.1354   16770453.0874
  19519557.019   -16750286.43449 -13033744.76649  19519551.3774   19519558.6144
  17223990.709   -25651967.35049 -19952037.36949  17223991.6484   17223999.7454
  16388043.117   -34075887.98449 -26534691.68149  16388044.8674   16388050.3754
  15487276.019   -47777950.41449 -37205661.20049  15487277.6404   15487282.3734
  15956348.719   -40301068.44449 -31377329.93149  15956344.5844   15956350.4214
 95  1 31 19 35 59.9820000  0  6 22  4 19 18 29 14
  16769455.072   -42400607.48849 -33014981.15949  16769450.0724   16769456.1214
  19512250.091   -16788646.16949 -13063635.56849  19512252.1374   19512259.7304
  17199397.999   -25781215.05549 -20052749.86249  17199397.9084   17199404.6704
  16363538.137   -34204662.90549 -26635035.78349  16363540.0554   16363545.4494
  15471962.603   -47858419.84049 -37268364.66649  15471964.5644   15471969.6044
  15957506.209   -40294920.35049 -31372539.25849  15957514.2824   15957520.7924
 95  1 31 19 36 29.9820000  0  6 22  4 19 18 29 14
  16768561.540   -42405273.32249 -33018616.89649  16768562.1644   16768568.8364
  19505037.135   -16826537.88349 -13093161.65549  19505040.8374   19505048.9864
  17174862.237   -25910152.82349 -20153220.84149  17174861.9604   17174868.7644
  16339077.543   -34333218.69449 -26735209.13449  16339076.8374   16339082.7404
  15456709.515   -47938581.73649 -37330828.49749  15456710.3624   15456715.4054
  15958784.461   -40288248.03449 -31367340.10849  15958783.8864   15958790.4944
 95  1 31 19 36 59.9820000  0  6 22  4 19 18 29 14
  16767775.038   -42409393.18149 -33021827.20849  16767778.4784   16767785.2904
  19497904.839   -16863967.69749 -13122327.82349  19497918.3094   19497926.6714
  17150385.112   -26038771.68049 -20253443.31549  17150386.6984   17150393.8604
  16314652.034   -34461555.79149 -26835212.06949  16314654.9074   16314660.9354
  15441508.602   -48018446.64249 -37393060.90549  15441512.9984   15441517.5984
  15960150.078   -40281044.03549 -31361726.65349  15960154.9284   15960161.3344
 95  1 31 19 37 29.9820000  0  6 22  4 19 18 29 14
  16767099.675   -42412959.75749 -33024606.39249  16767100.0374   16767106.4094
  19490887.273   -16900932.00349 -13151131.26949  19490884.9654   19490891.9084
  17125964.143   -26167073.77449 -20353418.95149  17125971.6794   17125978.7154
  16290271.784   -34589662.82549 -26935035.74049  16290276.9124   16290282.8634
  15426373.347   -48097998.14649 -37455049.10249  15426375.0954   15426379.4834
  15961623.767   -40273309.81049 -31355700.03149  15961626.9354   15961633.5014
 95  1 31 19 37 59.9820000  0  6 22  4 19 18 29 14
  16766525.612   -42415989.59049 -33026967.33949  16766523.2784   16766529.0424
  19483938.798   -16937449.22649 -13179586.35249  19483934.5064   19483942.9684
  17101616.990   -26295069.46249 -20453155.82349  17101614.1024   17101621.2474
  16265937.622   -34717544.88349 -27034684.10649  16265941.9764   16265947.6254
  15411295.547   -48177232.50649 -37516790.17549  15411297.3324   15411301.8834
  15963197.935   -40265046.42849 -31349261.08749  15963199.5324   15963205.7824
 95  1 31 19 38 29.9820000  0  6 22  4 19 18 29 14
  16766041.543   -42418500.28849 -33028923.75249  16766045.7034   16766051.3804
  19477077.143   -16973542.20449 -13207710.84449  19477067.5014   19477074.2034
  17077309.865   -26422772.00849 -20552664.26749  17077313.3474   17077320.2604
  16241646.105   -34845225.93749 -27134175.84549  16241644.6334   16241650.4474
  15396275.933   -48256162.28749 -37578293.91449  15396277.2764   15396282.0814
  15964868.481   -40256274.24549 -31342425.67049  15964869.1044   15964875.2824
 95  1 31 19 38 59.9820000  0  6 22  4 19 18 29 14
  16765663.929   -42420498.93449 -33030481.16649  16765665.6494   16765671.6524
  19470272.374   -17009203.85149 -13235499.23949  19470280.0444   19470288.6604
  17053063.588   -26550200.02349 -20651958.77949  17053064.6614   17053071.4454
  16217382.447   -34972718.81549 -27233520.95549  16217383.4834   16217389.3394
  15381310.451   -48334794.90349 -37639566.10049  15381314.2404   15381318.7984
  15966628.674   -40247022.30249 -31335216.41849  15966629.8734   15966635.9914
 95  1 31 19 39 29.9820000  0  6 22  4 19 18 29 14
  16765382.327   -42421990.37049 -33031643.35249  16765381.6704   16765387.5994
  19463582.959   -17044439.14749 -13262955.41349  19463575.5434   19463582.0554
  17028864.108   -26677370.07249 -20751052.28649  17028864.9414   17028871.6654
  16193155.121   -35100032.17349 -27332726.17049  16193156.4804   16193162.5404
  15366404.302   -48413131.04749 -37700607.26849  15366407.2484   15366411.6844
  15968475.464   -40237306.72049 -31327645.88849  15968478.7304   15968485.0164
 95  1 31 19 39 59.9820000  0  6 22  4 19 18 29 14
  16765193.839   -42422980.84749 -33032415.18349  16765192.8674   16765198.8594
  19456907.694   -17079255.14849 -13290084.83949  19456948.4774   19456959.1154
  17004710.618   -26804288.47949 -20849949.71449  17004712.7494   17004720.0974
  16168958.730   -35227176.92349 -27431800.00349  16168961.7864   16168967.5914
  15351551.647   -48491183.24149 -37761427.17149  15351554.3994   15351558.8604
  15970414.298   -40227123.74849 -31319711.15949  15970416.0084   15970422.7564
 95  1 31 19 40 29.9820000  0  6 22  4 19 18 29 14
  16765099.830   -42423470.88149 -33032797.05149  16765099.4404   16765104.9924
  19450419.983   -17113649.60149 -13316885.75849  19450405.0214   19450415.2964
  16980600.037   -26930968.45149 -20948661.35449  16980606.4954   16980614.0654
  16144798.064   -35354149.82349 -27530739.92549  16144799.8514   16144805.5004
  15336755.010   -48568948.14249 -37822023.21549  15336755.8034   15336760.8264
  15972436.508   -40216488.64849 -31311424.11949  15972439.9764   15972446.6734
 95  1 31 19 40 59.9820000  0  6 22  4 19 18 29 14
  16765103.333   -42423467.94449 -33032794.78549  16765099.9914   16765106.0924
  19443940.700   -17147633.87249 -13343367.16149  19443937.2294   19443946.9304
  16956544.742   -27057397.00149 -21047177.07449  16956547.9904   16956554.9224
  16120674.788   -35480914.44349 -27629517.54649  16120677.4394   16120682.8364
  15322014.868   -48646411.13349 -37882384.00349  15322015.1034   15322020.0794
  15974549.501   -40205394.06249 -31302779.03649  15974551.1024   15974558.0324
 95  1 31 19 41 29.9820000  0  6 22  4 19 18 29 14
  16765194.668   -42422980.68749 -33032415.14149  16765192.8374   16765199.4954
  19437533.797   -17181227.96849 -13369544.46349  19437544.5184   19437554.1124
  16932532.974   -27183564.83249 -21145489.65149  16932538.4824   16932545.6204
  16096595.747   -35607455.03949 -27728120.60549  16096597.6424   16096603.1074
  15307330.193   -48723563.60249 -37942502.82549  15307333.6684   15307338.4684
  15976752.405   -40193825.01149 -31293764.24449  15976752.7044   15976759.2974
 95  1 31 19 41 59.9820000  0  6 22  4 19 18 29 14
  16765376.535   -42422008.33649 -33031657.49949  16765377.7354   16765383.3074
  19431233.034   -17214441.39249 -13395425.11349  19431227.7004   19431231.6024
  16908576.997   -27309478.58249 -21243604.24149  16908578.3494   16908584.7724
  16072561.640   -35733760.91249 -27826540.76049  16072562.5054   16072568.0634
  15292706.480   -48800415.56449 -38002387.48349  15292709.1544   15292713.8404
  15979039.464   -40181790.03849 -31284386.39149  15979043.1044   15979049.5334
 95  1 31 19 42 29.9820000  0  6 22  4 19 18 29 14
  16765646.961   -42420561.58449 -33030530.17949  16765653.1944   16765659.1014
  19424977.481   -17247267.33449 -13421003.89049  19424978.9974   19424986.5244
  16884667.735   -27435122.21949 -21341508.36249  16884668.9034   16884675.3854
  16048572.564   -35859825.28549 -27924772.73949  16048573.3044   16048578.9564
  15278142.176   -48876952.68949 -38062026.81049  15278144.7304   15278149.4384
  15981418.965   -40169298.39449 -31274652.69949  15981419.9444   15981426.3514
 95  1 31 19 42 59.9820000  0  6 22  4 19 18 29 14
  16766019.985   -42418633.73849 -33029027.97949  16766020.1954   16766026.1834
  19418822.242   -17279705.83449 -13446280.74249  19418808.2354   19418812.2564
  16860809.479   -27560492.75549 -21439199.66149  16860811.5934   16860818.3314
  16024623.937   -35985662.05649 -28022827.36349  16024627.2274   16024633.1424
  15263634.837   -48953186.01949 -38121429.41049  15263638.0774   15263642.8484
  15983883.991   -40156348.66849 -31264562.06049  15983884.8474   15983890.9664
 95  1 31 19 43 29.9820000  0  6 22  4 19 18 29 14
  16766480.866   -42416203.79249 -33027134.54349  16766482.4334   16766488.9204
  19412724.952   -17311733.93249 -13471237.81149  19412712.3224   19412718.1144
  16837009.842   -27685597.24649 -21536683.67049  16837005.3664   16837011.5984
  16000718.087   -36111294.04249 -28120722.41849  16000720.2694   16000726.1524
  15249186.403   -49029115.34349 -38180595.12449  15249189.4234   15249193.9734
  15986435.005   -40142941.77349 -31254115.18449  15986436.0244   15986441.6374
 95  1 31 19 43 59.9820000  0  6 22  4 19 18 29 14
  16767041.112   -42413267.35549 -33024846.43849  16767041.3874   16767047.7764
  19406661.777   -17343334.12649 -13495861.39049  19406698.3494   19406707.1164
  16813250.263   -27810432.85549 -21633958.14849  16813249.6644   16813256.3714
  15976846.961   -36236730.52449 -28218465.13549  15976850.3994   15976855.8664
  15234796.173   -49104741.52049 -38239524.61749  15234798.1984   15234802.6214
  15989070.564   -40129091.58649 -31243322.87249  15989071.5614   15989077.1294
 95  1 31 19 44 29.9820000  0  7 22  4 19 18 29 14 28
  16767691.744   -42409838.15249 -33022174.36349  16767693.8954   16767700.4474
  19400760.305   -17374510.42049 -13520154.66849  19400765.6964   19400775.7704
  16789540.417   -27935001.83949 -21731024.87249  16789545.1484   16789551.9624
  15953013.697   -36361977.64649 -28316060.30449  15953016.8114   15953021.7184
  15220464.352   -49180058.14849 -38298212.90749  15220465.9444   15220470.6214
  15991788.983   -40114803.04549 -31232188.99749  15991790.4724   15991796.4764
  19461628.994    -3406520.82259  -2637760.91159  19461627.3424   19461634.4134
 95  1 31 19 44 59.9820000  0  7 22  4 19 18 29 14 28
  16768439.146   -42405907.35649 -33019111.43849  16768442.1334   16768448.5294
  19394910.090   -17405275.44849 -13544127.49049  19394913.0474   19394923.5064
  16765886.506   -28059318.52149 -21827895.00149  16765888.4294   16765895.8004
  15929219.299   -36487027.93649 -28413502.09249  15929220.4554   15929225.6144
  15206187.195   -49255076.70749 -38356668.93549  15206190.2784   15206195.0834
  15994589.079   -40100076.18349 -31220713.56949  15994592.5124   15994598.7744
  19436224.941    -3540028.85749  -2741793.00149  19436221.8764   19436224.2444
 95  1 31 19 45 29.9820000  0  7 22  4 19 18 29 14 28
  16769278.146   -42401495.50449 -33015673.67249  16769281.3574   16769287.8244
  19389149.080   -17435629.60749 -13567780.18549  19389137.1674   19389146.5444
  16742278.614   -28183380.19049 -21924566.42049  16742280.7494   16742287.7004
  15905463.306   -36611860.19149 -28510773.97649  15905465.3534   15905470.6794
  15191968.948   -49329788.12749 -38414885.63749  15191973.1004   15191977.7994
  15997476.393   -40084919.09549 -31208902.90049  15997476.8354   15997483.1264
  19410843.917    -3673400.85549  -2845719.17949  19410843.2894   19410839.7704
 95  1 31 19 45 59.9820000  0  7 22  4 19 18 29 14 28
  16770207.916   -42396625.09749 -33011878.57649  16770208.8374   16770214.9634
  19383423.037   -17465591.05449 -13591126.87949  19383435.9944   19383443.1874
  16718719.670   -28307186.32849 -22021038.72749  16718721.2174   16718728.1574
  15881753.850   -36736455.83149 -28607861.49149  15881755.6424   15881761.1214
  15177809.563   -49404196.05349 -38472865.85149  15177813.9014   15177818.3534
  16000442.930   -40069341.08149 -31196764.23449  16000441.3984   16000447.3714
  19385486.207    -3806636.57449  -2949539.18949  19385487.0834   19385491.9264
 95  1 31 19 46 29.9820000  0  7 22  4 19 18 29 14 28
  16771220.393   -42391293.20249 -33007723.87449  16771223.2804   16771229.0224
  19377805.406   -17495166.45549 -13614172.74149  19377806.6174   19377814.8644
  16695208.255   -28430724.59449 -22117302.30149  16695212.6104   16695219.5714
  15858090.404   -36860799.77349 -28704752.87649  15858093.8094   15858099.5534
  15163712.503   -49478293.87449 -38530604.42549  15163713.5534   15163717.9574
  16003487.470   -40053321.16449 -31184281.23449  16003490.2954   16003496.2654
  19360163.561    -3939723.80849  -3053243.43349  19360161.2444   19360165.5804
 95  1 31 19 46 59.9820000  0  7 22  4 19 18 29 14 28
  16772326.151   -42385498.11349 -33003208.24749  16772326.0814   16772331.0974
  19372259.549   -17524355.13649 -13636917.29749  19372251.0514   19372259.4414
  16671749.272   -28553996.86349 -22213358.60049  16671754.1214   16671761.5374
  15834479.803   -36984891.97549 -28801448.10249  15834479.6404   15834485.5884
  15149667.956   -49552091.53549 -38588109.11149  15149670.3004   15149674.8674
  16006622.134   -40036852.27549 -31171448.38349  16006624.2784   16006630.4724
  19334856.702    -4072661.24149  -3156830.88849  19334862.9444   19334870.2914
 95  1 31 19 47 29.9820000  0  6 22 19 18 29 14 28
  16773515.149   -42379252.14049 -32998341.27549  16773514.5554   16773519.8344
  16648342.740   -28677009.16849 -22309212.33449  16648345.2474   16648352.9004
  15810907.076   -37108746.37249 -28897958.01749  15810911.0734   15810917.2394
  15135682.944   -49625583.50049 -38645375.58749  15135684.9244   15135689.7244
  16009840.194   -40019945.41749 -31158274.25949  16009841.7334   16009848.0484
  19309590.874    -4205452.11149  -3260304.22149  19309594.0094   19309602.4964
 95  1 31 19 47 59.9810000  0  6 22 19 18 29 14 28
  16774788.388   -42372543.64649 -32993113.92249  16774791.1214   16774796.9744
  16624985.738   -28799758.04149 -22404860.79549  16624987.3434   16624994.5074
  15787382.968   -37232378.17749 -28994294.48649  15787384.8804   15787390.7474
  15121757.506   -49698768.33649 -38702402.74749  15121758.5754   15121763.3814
  16013140.454   -40002600.03449 -31144758.43849  16013142.6054   16013148.8184
  19284355.031    -4338089.07049  -3363657.67849  19284355.3864   19284363.2484
 95  1 31 19 48 29.9810000  0  6 22 19 18 29 14 28
  16776155.253   -42365366.93349 -32987521.72049  16776156.7514   16776162.0184
  16601674.469   -28922256.47649 -22500314.09649  16601676.8344   16601683.3184
  15763895.269   -37355816.80749 -29090480.42949  15763895.2134   15763900.4784
  15107888.788   -49771644.08949 -38759189.05749  15107890.9914   15107895.5344
  16016523.962   -39984822.88449 -31130906.16849  16016525.5744   16016531.8084
  19259140.410    -4470584.06549  -3466900.52749  19259143.9584   19259151.3574
 95  1 31 19 48 59.9810000  0  6 22 19 18 29 14 28
  16777611.839   -42357717.66349 -32981561.28449  16777612.5844   16777617.9354
  16578412.235   -29044504.58849 -22595572.35249  16578413.1814   16578419.6654
  15740442.728   -37479051.01349 -29186507.08249  15740444.0654   15740449.6944
  15094082.455   -49844189.12649 -38815717.66449  15094085.8274   15094090.7314
  16019984.621   -39966629.98249 -31116729.94649  16019987.5724   16019994.1214
  19233960.522    -4602928.90859  -3570026.42559  19233959.4804   19233966.8044
 95  1 31 19 49 29.9810000  0  6 22 19 18 29 14 28
  16779151.903   -42349594.75849 -32975231.79149  16779158.3784   16779164.3124
  16555202.589   -29166481.55249 -22690619.32749  16555202.1664   16555208.3904
  15717031.406   -37602075.96849 -29282370.67449  15717033.4004   15717038.7694
  15080345.137   -49916380.96049 -38871971.05149  15080348.2014   15080353.0314
  16023526.940   -39948025.50149 -31102233.00149  16023527.7034   16023534.3164
  19208809.196    -4735111.87849  -3673026.06949  19208806.9684   19208815.1154
 95  1 31 19 49 59.9810000  0  6 22 19 18 29 14 28
  16780784.445   -42341018.94349 -32968549.38349  16780790.4434   16780796.2874
  16532041.148   -29288187.01049 -22785454.73149  16532042.4954   16532049.0754
  15693661.024   -37724893.66749 -29378072.77849  15693661.9634   15693667.5804
  15066672.944   -49988233.91149 -38927960.37449  15066675.1274   15066679.7754
  16027144.090   -39929007.28649 -31087413.66949  16027146.5944   16027153.6174
  19183685.539    -4867136.42249  -3775902.23349  19183682.1064   19183688.1044
 95  1 31 19 50 29.9810000  0  6 22 19 18 29 14 28
  16782504.469   -42332001.27549 -32961522.66449  16782506.5714   16782512.6184
  16508934.245   -29409615.68849 -22880074.45949  16508935.3684   16508941.8134
  15670330.557   -37847485.73249 -29473599.06049  15670333.6794   15670339.2914
  15053062.833   -50059744.77849 -38983683.13749  15053067.0654   15053071.8144
  16030842.886   -39909567.68549 -31072265.97749  16030845.5894   16030852.9444
  19158595.014    -4998997.78859  -3878651.26059  19158590.2084   19158596.9444
 95  1 31 19 50 59.9810000  0  6 22 19 18 29 14 28
  16784301.063   -42322569.69749 -32954173.42949  16784301.4704   16784307.7954
  16485875.393   -29530791.25649 -22974496.95649  16485876.5294   16485883.2894
  15647044.346   -37969854.76049 -29568951.54849  15647047.5414   15647053.3184
  15039513.950   -50130950.24049 -39039167.92149  15039517.0734   15039522.1304
  16034617.817   -39889720.10649 -31056800.38549  16034622.3044   16034629.6914
  19133519.729    -5130708.57949  -3981283.06149  19133525.0264   19133532.9734
 95  1 31 19 51 29.9810000  0  6 22 19 18 29 14 28
  16786172.852   -42312718.42849 -32946497.16149  16786175.9694   16786182.3554
  16462865.328   -29651711.21249 -23068720.29149  16462865.8924   16462873.0324
  15623803.699   -38092003.41749 -29664132.31949  15623803.8714   15623809.2974
  15026020.764   -50201867.68049 -39094428.27449  15026021.7184   15026026.8384
  16038476.962   -39869450.00449 -31041005.55649  16038479.4074   16038486.9594
  19108489.946    -5262259.88849  -4083790.56149  19108488.4724   19108501.9584
 95  1 31 19 51 59.9810000  0  6 22 19 18 29 14 28
  16788132.033   -42302429.23749 -32938479.65549  16788133.6734   16788140.4644
  16439899.545   -29772376.86549 -23162745.46649  16439903.6374   16439911.2624
  15600604.728   -38213913.52749 -29759127.20549  15600605.1374   15600610.7714
  15012577.990   -50272506.18149 -39149471.27349  15012579.7184   15012584.7394
  16042416.246   -39848753.36649 -31024878.36749  16042417.9264   16042425.3034
  19083483.629    -5393646.19149  -4186169.50449  19083486.8504   19083498.8344
 95  1 31 19 52 29.9810000  0  6 22 19 18 29 14 28
  16790178.499   -42291687.80249 -32930109.74949  16790178.0824   16790184.4164
  16416991.442   -29892801.59349 -23256582.91449  16416987.3534   16416995.0294
  15577451.775   -38335578.89949 -29853931.38149  15577453.1264   15577458.5154
  14999189.185   -50342862.65549 -39204294.51049  14999191.6144   14999196.2244
  16046430.238   -39827659.29949 -31008441.49849  16046432.2894   16046439.4464
  19058514.957    -5524868.57849  -4288420.63649  19058517.2814   19058527.8034
 95  1 31 19 52 59.9810000  0  6 22 19 18 29 14 28
  16792310.086   -42280491.90549 -32921385.71649  16792308.2124   16792315.4864
  16394109.961   -30012995.01549 -23350240.12049  16394115.2714   16394122.9944
  15554346.323   -38457002.64849 -29948547.28249  15554347.0584   15554352.4204
  14985853.509   -50412934.96249 -39258896.32149  14985857.4064   14985862.1134
  16050518.031   -39806181.71649 -30991705.78349  16050519.7234   16050526.2924
  19033569.953    -5655926.38849  -4390543.46349  19033579.0344   19033588.5864
 95  1 31 19 53 29.9810000  0  6 22 19 18 29 14 28
  16794526.581   -42268833.28549 -32912301.11749  16794527.0764   16794533.5614
  16371293.259   -30132938.90849 -23443702.88749  16371291.1074   16371297.9404
  15531284.456   -38578185.83649 -30042975.73349  15531286.1894   15531292.0324
  14972581.047   -50482692.08449 -39313252.53149  14972583.2534   14972587.9064
  16054678.332   -39784322.26049 -30974672.50849  16054679.8694   16054685.8074
  19008670.930    -5786809.09049  -4492529.92049  19008672.7624   19008680.9544
 95  1 31 19 53 59.9810000  0  6 22 19 18 29 14 28
  16796825.373   -42256727.26149 -32902867.88849  16796830.2974   16796838.0724
  16348511.103   -30252632.38949 -23536970.52549  16348514.2974   16348520.9234
  15508271.001   -38699114.64949 -30137205.97249  15508274.1354   15508280.2204
  14959370.838   -50552118.31949 -39367350.91249  14959371.5884   14959376.1534
  16058906.588   -39762094.40649 -30957352.16949  16058909.6374   16058915.4434
  18983799.749    -5917513.36049  -4594377.28949  18983799.7454   18983810.0724
 95  1 31 19 54 29.9810000  0  6 22 19 18 29 14 28
  16799213.010   -42244198.59149 -32893105.34149  16799214.3174   16799221.8074
  16325778.881   -30372088.09549 -23630052.88749  16325782.4504   16325789.4304
  15485309.345   -38819799.29349 -30231245.94949  15485308.5414   15485314.5404
  14946225.484   -50621203.47149 -39421183.51249  14946225.2674   14946229.5424
  16063208.442   -39739493.50549 -30939741.14049  16063210.4084   16063216.3354
  18958960.376    -6048034.35149  -4696081.84849  18958962.1544   18958972.1244
 95  1 31 19 54 59.9810000  0  6 22 19 18 29 14 28
  16801677.676   -42231261.21549 -32883024.32749  16801676.3134   16801683.8934
  16303095.014   -30491296.06049 -23722942.20649  16303097.7694   16303104.9014
  15462386.905   -38940243.20849 -30325098.34749  15462388.9484   15462394.7804
  14933141.635   -50689950.81749 -39474752.88749  14933143.1894   14933147.3784
  16067583.366   -39716500.72549 -30921824.75249  16067585.8284   16067592.1154
  18934167.798    -6178365.00749  -4797638.11149  18934162.2094   18934169.9554
 95  1 31 19 55 29.9810000  0  6 22 19 18 29 14 28
  16804217.243   -42217927.01849 -32872634.09749  16804213.8184   16804221.0314
  16280461.359   -30610244.96349 -23815629.65049  16280462.3604   16280469.6674
  15439514.480   -39060445.01449 -30418762.08749  15439515.6074   15439521.0574
  14920123.644   -50758365.52449 -39528063.06749  14920124.0854   14920128.5654
  16072035.602   -39693112.90949 -30903600.55249  16072036.5174   16072042.8884
  18909401.655    -6308502.74549  -4899043.99249  18909395.2534   18909405.4224
 95  1 31 19 55 59.9810000  0  6 22 19 18 29 14 28
  16806822.902   -42204195.64149 -32861934.38349  16806826.8784   16806834.1264
  16257875.146   -30728938.52149 -23908118.13349  16257876.4254   16257883.2664
  15416693.534   -39180382.55149 -30512219.90649  15416692.3014   15416697.4114
  14907164.059   -50826458.12149 -39581122.25249  14907166.6144   14907171.1634
  16076561.063   -39669321.43349 -30885061.80849  16076563.6384   16076570.1054
  18884662.018    -6438444.60649  -5000297.26349  18884668.6194   18884677.3424
 95  1 31 19 56 29.9810000  0  6 22 19 18 29 14 28
  16809520.158   -42190057.85749 -32850917.99249  16809517.7074   16809524.5874
  16235336.670   -30847374.93949 -24000406.23749  16235338.5134   16235345.4284
  15393915.663   -39300068.48649 -30605481.67249  15393916.9204   15393921.9654
  14894267.503   -50894242.49849 -39633941.26649  14894267.8564   14894272.4584
  16081167.888   -39645132.45749 -30866213.31549  16081166.5394   16081173.0414
  18859976.912    -6568191.85649  -5101398.89049  18859979.5304   18859988.0564
 95  1 31 19 56 59.9810000  0  6 22 19 18 29 14 28
  16812282.741   -42175510.20949 -32839582.23449  16812285.8074   16812292.5034
  16212850.452   -30965537.73749 -24092481.14149  16212852.8084   16212859.3474
  15371189.139   -39419503.25849 -30698547.73449  15371189.0534   15371194.0444
  14881425.576   -50961722.84449 -39686523.38249  14881426.5814   14881431.0254
  16085841.685   -39620558.90049 -30847065.15049  16085842.7954   16085849.6104
  18835327.511    -6697743.17449  -5202347.90749  18835328.8294   18835335.7884
 95  1 31 19 57 29.9810000  0  6 22 19 18 29 14 28
  16815133.037   -42160550.78349 -32827925.60849  16815132.7384   16815139.6324
  16190418.551   -31083425.45749 -24184341.69849  16190420.0724   16190426.2804
  15348506.114   -39538693.03849 -30791422.89149  15348507.6744   15348512.8334
  14868643.224   -51028891.47649 -39738862.60149  14868644.9174   14868649.1614
  16090588.348   -39595604.15749 -30827619.95949  16090591.4304   16090598.5984
  18810714.497    -6827094.71349  -5303141.23549  18810712.3164   18810721.0964
 95  1 31 19 57 59.9810000  0  6 22 19 18 29 14 28
  16818058.814   -42145174.24649 -32815943.96649  16818058.9264   16818064.9874
  16168033.998   -31201053.64649 -24276000.02549  16168036.2944   16168042.6974
  15325870.756   -39657648.61149 -30884115.54749  15325871.1694   15325876.7484
  14855919.958   -51095746.21549 -39790957.22749  14855922.8984   14855927.1414
  16095408.482   -39570278.53549 -30807885.77349  16095410.8674   16095418.1474
  18786144.212    -6956240.65649  -5403774.33349  18786136.9064   18786145.2634
 95  1 31 19 58 29.9810000  0  6 22 19 18 29 14 28
  16821059.796   -42129403.23449 -32803654.94449  16821060.1174   16821066.3024
  16145700.741   -31318422.76849 -24367456.47649  16145701.5754   16145708.1604
  15303270.635   -39776400.95849 -30976649.84549  15303273.2604   15303278.7704
  14843260.389   -51162279.69449 -39842801.52349  14843262.1174   14843266.3284
  16100297.130   -39544597.39749 -30787874.56449  16100298.3434   16100305.2564
  18761602.153    -7085179.04649  -5504245.76649  18761601.4564   18761610.5194
 95  1 31 19 58 59.9810000  0  6 22 19 18 29 14 28
  16824133.797   -42113250.90549 -32791068.78149  16824134.0084   16824139.5794
  16123414.099   -31435524.16449 -24458704.31449  16123417.9204   16123424.3774
  15280715.151   -39894937.78349 -31069016.20449  15280716.5384   15280721.9594
  14830664.997   -51228462.38949 -39894372.47649  14830667.9894   14830672.2974
  16105252.501   -39518548.05549 -30767576.44049  16105255.1724   16105262.2444
  18737106.726    -7213902.24749  -5604549.53849  18737106.6314   18737115.7464
 95  1 31 19 59 29.9810000  0  6 22 19 18 29 14 28
  16827274.252   -42096722.06549 -32778189.24149  16827279.2684   16827285.0044
  16101179.978   -31552370.85449 -24549753.67049  16101182.1014   16101188.8044
  15258203.750   -40013247.18249 -31161205.35249  15258203.1684   15258208.5774
  14818136.390   -51294288.15349 -39945665.30049  14818141.3344   14818145.9994
  16110279.812   -39492136.23449 -30746995.86949  16110281.4524   16110288.4894
  18712650.425    -7342414.26149  -5704688.75349  18712650.9234   18712659.9704
 95  1 31 19 59 59.9800000  0  6 22 19 18 29 14 28
  16830495.895   -42079814.88949 -32765014.87849  16830496.6844   16830502.5894
  16078998.297   -31668950.14349 -24640594.65249  16078997.3244   16079004.2614
  15235736.764   -40131302.54449 -31253196.55049  15235738.0454   15235743.5434
  14805684.464   -51359740.52549 -39996667.16649  14805686.1314   14805691.0574
  16115374.027   -39465360.21649 -30726131.50749  16115376.8084   16115383.9304
  18688240.470    -7470700.21649  -5804651.80249  18688237.8204   18688247.8614
 95  1 31 20  0 29.9800000  0  6 22 19 18 29 14 28
  16833782.452   -42062539.62449 -32751553.69849  16833784.0964   16833790.2264
  16056861.720   -31785263.62249 -24731228.51449  16056863.9284   16056870.6874
  15213321.954   -40249094.60149 -31344982.57949  15213322.8654   15213328.5294
  14793299.054   -51424822.63849 -40047380.51749  14793301.5594   14793306.1244
  16120543.736   -39438214.00449 -30704978.69249  16120542.3474   16120549.4834
  18663867.764    -7598772.78749  -5904448.59649  18663867.3294   18663876.1224
 95  1 31 20  0 59.9800000  0  6 22 19 18 29 14 28
  16837148.774   -42044871.64449 -32737786.49749  16837146.4324   16837152.2784
  16034783.086   -31901307.97849 -24821652.66849  16034781.7594   16034788.3274
  15190965.528   -40366581.21249 -31436530.59849  15190966.0884   15190971.5464
  14780985.910   -51489537.78249 -40097807.92049  14780986.7164   14780991.3054
  16125780.983   -39410682.02849 -30683525.27849  16125781.5044   16125788.2314
  18639541.573    -7726620.76549  -6004070.36849  18639537.9714   18639547.8814
 95  1 31 20  1 29.9800000  0  6 22 19 18 29 14 28
  16840583.120   -42026808.28149 -32723711.21649  16840584.0334   16840589.5364
  16012744.218   -32017105.22449 -24911884.26549  16012746.5404   16012753.3594
  15168666.991   -40483762.46449 -31527840.67949  15168667.2554   15168672.5064
  14768734.423   -51553913.38749 -40147970.74649  14768736.4804   14768741.1954
  16131088.907   -39382777.09849 -30661781.24249  16131091.6214   16131098.4624
  18615249.293    -7854243.37849  -6103516.50149  18615252.3794   18615261.3174
 95  1 31 20  1 59.9800000  0  6 22 19 18 29 14 28
  16844092.271   -42008355.89249 -32709332.78049  16844095.3674   16844101.2424
  15990754.640   -32132663.72949 -25001929.83249  15990755.6264   15990763.4524
  15146421.855   -40600651.91649 -31618923.37649  15146423.7884   15146429.2204
  14756546.412   -51617967.34749 -40197882.94149  14756547.3374   14756552.3634
  16136469.656   -39354503.10149 -30639749.62449  16136472.2724   16136478.4184
  18591005.740    -7981640.96749  -6202787.30049  18591010.1104   18591016.8304
 95  1 31 20  2 29.9800000  0  6 22 19 18 29 14 28
  16847681.354   -41989504.01849 -32694643.07849  16847682.7854   16847688.8644
  15968803.591   -32247997.62149 -25091800.38349  15968808.6294   15968816.2204
  15124233.876   -40717261.12549 -31709787.70349  15124233.5494   15124239.2164
  14744413.659   -51681712.90049 -40247554.81949  14744417.2774   14744421.8734
  16141923.728   -39325862.39749 -30617432.24749  16141922.3704   16141928.8024
  18566804.978    -8108811.42149  -6301881.10649  18566810.4244   18566818.3964
 95  1 31 20  2 59.9800000  0  6 22 19 18 29 14 28
  16851347.199   -41970241.07349 -32679633.05649  16851348.6024   16851354.7024
  15946903.197   -32363110.09149 -25181498.39349  15946903.1934   15946910.4704
  15102092.777   -40833603.34349 -31800443.98449  15102094.3534   15102100.3144
  14732346.313   -51745137.61649 -40296976.69749  14732347.9404   14732352.5324
  16147436.423   -39296865.58449 -30594837.39249  16147440.5004   16147447.0734
  18542655.567    -8235747.51249  -6400792.29149  18542654.6994   18542662.3664
 95  1 31 20  3 29.9800000  0  6 22 19 18 29 14 28
  16855093.317   -41950569.97549 -32664305.00249  16855091.6354   16855097.9144
  15925036.372   -32477999.11249 -25271022.28649  15925040.7944   15925047.7414
  15079999.530   -40949701.91149 -31890910.41049  15080001.3994   15080007.3664
  14720342.353   -51808230.61249 -40346140.09149  14720341.6184   14720346.3974
  16153021.966   -39267529.15649 -30571977.90549  16153023.1594   16153029.8544
  18518546.669    -8362443.81049  -6499516.68049  18518544.7454   18518553.3464
 95  1 31 20  3 59.9800000  0  7 22 19 18 29 27 14 28
  16858911.201   -41930488.95049 -32648657.51649  16858913.0674   16858919.2634
  15903222.066   -32592651.90549 -25360362.10549  15903222.8874   15903229.7354
  15057952.593   -41065563.96649 -31981192.54049  15057953.9284   15057959.3004
  14708400.268   -51870975.49649 -40395032.23049  14708401.3424   14708406.4824
  19112197.888     -166874.37319
  16158667.210   -39237859.18549 -30548858.51949  16158669.4534   16158676.1214
  18494479.162    -8488898.44349  -6598052.73649  18494481.2944   18494490.1634
 95  1 31 20  4 29.9800000  0  7 22 19 18 29 27 14 28
  16862809.709   -41910010.41849 -32632700.28049  16862809.9704   16862815.8764
  15881448.292   -32707069.01449 -25449518.28649  15881450.4444   15881457.0894
  15035949.010   -41181192.60949 -32071292.79049  15035950.6304   15035955.9294
  14696527.376   -51933359.18149 -40443642.91449  14696529.8514   14696535.3124
  19084598.015     -311984.83559   -212166.24459  19084603.1694   19084610.5734
  16164370.956   -39207876.84149 -30525495.72849  16164375.0434   16164381.5834
  18470463.182    -8615118.63949  -6696406.09449  18470462.3534   18470470.6444
 95  1 31 20  4 59.9800000  0  7 22 19 18 29 27 14 28
  16866776.132   -41889154.01949 -32616448.60049  16866778.6704   16866785.1754
  15859723.965   -32821226.20549 -25538471.93549  15859726.9284   15859733.0434
  15013994.956   -41296565.24849 -32161193.55249  15013995.8634   15014001.2144
  14684727.305   -51995375.45649 -40491967.30349  14684728.7164   14684733.9924
  19057000.557     -457010.36449   -325173.15449  19057003.9714   19057015.0884
  16170137.477   -39177581.62249 -30501889.13349  16170139.9444   16170146.8304
  18446489.768    -8741101.96249  -6794574.84449  18446489.0754   18446496.6144
 95  1 31 20  5 29.9800000  0  7 22 19 18 29 27 14 28
  16870814.381   -41867935.50449 -32599914.76049  16870816.6494   16870822.8264
  15838054.686   -32935112.23449 -25627214.29149  15838055.5024   15838061.3074
  14992091.938   -41411660.04249 -32250877.81549  14992094.0244   14992099.3644
  14672991.331   -52057042.50949 -40540019.56749  14672994.1014   14672999.0094
  19029403.790     -601945.37049   -438109.46549  19029424.3684   19029435.8594
  16175963.148   -39146966.01649 -30478032.88749  16175965.8514   16175972.8674
  18422561.442    -8866842.31849  -6892554.32649  18422560.3664   18422567.6584
 95  1 31 20  5 59.9800000  0  7 22 19 18 29 27 14 28
  16874919.408   -41846370.40249 -32583110.84049  16874920.3944   16874926.0754
  15816433.850   -33048722.04549 -25715741.41149  15816436.1884   15816441.9494
  14970247.423   -41526461.41849 -32340333.43949  14970248.2304   14970253.5454
  14661319.233   -52118377.92349 -40587813.40949  14661322.2754   14661327.4444
  19001856.004     -746789.89049   -550975.33149  19001861.4744   19001873.1844
  16181852.631   -39116026.18249 -30453923.99049  16181853.3794   16181860.5394
  18398671.930    -8992342.94649  -6990347.01349  18398681.6464   18398686.3204
 95  1 31 20  6 29.9800000  0  7 22 19 18 29 27 14 28
  16879085.448   -41824474.47649 -32566049.13549  16879086.8734   16879093.1064
  15794866.290   -33162058.66549 -25804055.65849  15794869.0214   15794874.8924
  14948459.668   -41640956.16049 -32429550.12449  14948460.4564   14948465.6864
  14649708.899   -52179391.85249 -40635356.74449  14649711.7664   14649716.7844
  18974310.576     -891542.27349   -663769.37749  18974315.9434   18974326.0664
  16187803.567   -39084749.26749 -30429552.44249  16187805.1484   16187812.3874
  18374846.135    -9117600.05549  -7087949.90149  18374843.4774   18374851.2044
 95  1 31 20  6 59.9800000  0  7 22 19 18 29 27 14 28
  16883313.935   -41802257.95749 -32548737.61349  16883314.4154   16883321.8594
  15773351.339   -33275130.43049 -25892163.52649  15773351.9784   15773358.6154
  14926725.540   -41755159.17549 -32518539.48949  14926728.0654   14926733.5384
  14638156.183   -52240109.89949 -40682669.52349  14638157.4954   14638162.5174
  18946793.833    -1036200.00249   -776489.63249  18946786.8624   18946799.2354
  16193818.443   -39053136.44849 -30404919.14249  16193820.7384   16193828.2264
  18351044.022    -9242612.77249  -7185362.32849  18351053.7894   18351061.8464
 95  1 31 20  7 29.9800000  0  7 22 19 18 29 27 14 28
  16887604.736   -41779708.17449 -32531166.41149  16887605.5854   16887612.6804
  15751878.285   -33387951.53849 -25980076.07149  15751882.2624   15751889.7104
  14905047.222   -41869081.25049 -32607309.94049  14905049.4644   14905054.9804
  14626658.828   -52300517.43949 -40729740.34749  14626662.6274   14626667.4314
  18919274.539    -1180761.34049   -889134.78049  18919279.5114   18919290.9524
  16199897.642   -39021190.73649 -30380026.44249  16199899.7424   16199907.3064
  18327314.906    -9367369.15849  -7282575.00349  18327313.9234   18327322.4184
 95  1 31 20  7 59.9800000  0  8 31 22 19 18 29 27 14 28
  18703987.741    -5175091.36059  -4002755.37159  18703999.8704   18704015.4744
  16891957.022   -41756818.41749 -32513330.29149  16891961.1874   16891968.4874
  15730457.686   -33500531.78849 -26067800.93549  15730459.0784   15730466.2224
  14883418.542   -41982739.43449 -32695874.75649  14883421.0334   14883426.7164
  14615229.292   -52360587.44849 -40776548.15749  14615231.6534   14615236.6354
  18891790.693    -1325228.13249  -1001706.29449  18891784.1944   18891796.9894
  16206040.234   -38988913.61449 -30354875.49949  16206041.5434   16206049.5634
  18303619.746    -9491865.43649  -7379585.01249  18303623.9024   18303631.8154
 95  1 31 20  8 29.9800000  0  8 31 22 19 18 29 27 14 28
  18675629.648    -5324181.69949  -4118929.58349  18675628.4954   18675644.7374
  16896378.299   -41733592.03549 -32495231.87649  16896380.5434   16896389.1724
  15709077.227   -33612880.07249 -26155345.04049  15709079.9434   15709086.8484
  14861838.560   -42096148.45949 -32784245.42249  14861840.0204   14861846.0404
  14603866.397   -52420292.52449 -40823071.60449  14603870.1704   14603875.1064
  18864303.726    -1469604.66049  -1114207.39749  18864311.8834   18864325.5674
  16212244.196   -38956322.85649 -30329480.16749  16212243.1284   16212251.3494
  18279981.642    -9616098.46649  -7476389.90949  18279981.7244   18279989.9754
 95  1 31 20  8 59.9800000  0  8 31 22 19 18 29 27 14 28
  18647254.416    -5473286.69049  -4235115.18349  18647257.6374   18647270.4694
  16900864.895   -41710027.58249 -32476870.01849  16900865.2844   16900873.4594
  15687743.813   -33725001.66949 -26242712.50349  15687744.0974   15687750.6504
  14840304.510   -42209314.95449 -32872427.10449  14840305.1504   14840311.2404
  14592577.682   -52479625.20549 -40869304.87649  14592579.3354   14592584.6214
  18836854.448    -1613895.73349  -1226641.98349  18836855.2244   18836867.2614
  16218500.564   -38923442.13849 -30303858.90549  16218500.3044   16218508.4674
  18256392.846    -9740068.95349  -7572990.22849  18256390.5384   18256399.1974
 95  1 31 20  9 29.9800000  0  8 31 22 19 18 29 27 14 28
  18618878.409    -5622401.37649  -4351308.32649  18618884.4644   18618893.1934
  16905416.879   -41686120.72949 -32458241.36749  16905414.2384   16905422.8614
  15666445.370   -33836895.45449 -26329902.45349  15666451.0044   15666457.2754
  14818819.903   -42322217.16049 -32960402.84349  14818820.5844   14818826.5454
  14581362.875   -52538560.73649 -40915228.67949  14581364.1514   14581369.6074
  18809421.825    -1758093.12149  -1339003.54049  18809415.6524   18809426.7814
  16224810.780   -38890276.41149 -30278015.56749  16224811.9244   16224819.5874
  18232847.425    -9863772.02549  -7669382.18149  18232850.2964   18232859.3544
 95  1 31 20  9 59.9800000  0  8 31 22 19 18 29 27 14 28
  18590503.420    -5771528.67249  -4467511.31049  18590508.6014   18590512.7724
  16910023.804   -41661885.27349 -32439356.66649  16910026.3224   16910034.9154
  15645202.518   -33948549.19349 -26416905.35749  15645203.9324   15645211.0514
  14797388.427   -42434836.12449 -33048157.87749  14797389.8224   14797395.6054
  14570221.617   -52597101.71149 -40960845.03649  14570224.1864   14570229.2984
  18781999.621    -1902171.70449  -1451272.52149  18781999.4304   18782009.9564
  16231176.642   -38856833.27849 -30251956.06949  16231176.3604   16231183.5014
  18209358.430    -9987205.47949  -7765564.03549  18209362.1664   18209370.6644
 95  1 31 20 10 29.9800000  0  8 31 22 19 18 29 27 14 28
  18562123.972    -5920675.28849  -4583729.32949  18562127.2954   18562130.6684
  16914696.124   -41637342.86249 -32420232.78049  16914697.1064   16914705.0874
  15623998.719   -34059958.53449 -26503717.82049  15624003.2894   15624010.8124
  14776014.443   -42547151.43849 -33135676.29649  14776017.0674   14776022.8054
  14559154.527   -52655273.37449 -41006173.61249  14559154.9784   14559159.5024
  18754604.434    -2046136.02949  -1563452.47849  18754604.2084   18754612.8524
  16237591.041   -38823130.94649 -30225694.60449  16237590.1834   16237596.4684
  18185926.078   -10110373.73949  -7861539.18949  18185925.0614   18185931.6304
 95  1 31 20 10 59.9800000  0  8 31 22 19 18 29 27 14 28
  18533740.105    -6069850.86449  -4699969.94549  18533739.3104   18533743.3574
  16919428.704   -41612490.40949 -32400867.30649  16919426.3774   16919433.3254
  15602851.109   -34171114.08449 -26590332.52849  15602851.1654   15602858.6584
  14754702.351   -42659149.49649 -33222947.50149  14754704.6914   14754710.2664
  14548149.361   -52713101.52049 -41051234.51649  14548150.6324   14548155.3844
  18727214.992    -2189978.13549  -1675537.20449  18727230.4644   18727241.4694
  16244053.435   -38789155.63749 -30199220.42149  16244055.8924   16244061.8504
  18162535.765   -10233273.07649  -7957304.83449  18162538.1054   18162545.2574
 95  1 31 20 11 29.9800000  0  8 31 22 19 18 29 27 14 28
  18505346.927    -6219058.95249  -4816235.86649  18505345.5214   18505350.6374
  16924215.674   -41587319.69749 -32381253.83849  16924216.1314   16924223.7294
  15581747.515   -34282011.80749 -26676746.32649  15581748.0894   15581755.6284
  14733453.050   -42770831.96949 -33309972.79449  14733452.2834   14733457.8054
  14537208.526   -52770592.35749 -41096032.58649  14537210.4274   14537215.3884
  18699874.455    -2333690.51049  -1787520.78849  18699882.4504   18699893.0464
  16250573.657   -38754895.91849 -30172524.62249  16250575.5794   16250581.2464
  18139202.025   -10355898.54349  -8052857.05049  18139203.6184   18139210.7334
 95  1 31 20 11 59.9800000  0  8 31 22 19 18 29 27 14 28
  18476945.126    -6368301.01059  -4932528.26449  18476943.3904   18476950.8204
  16929068.164   -41561838.60149 -32361398.52249  16929064.8734   16929072.6204
  15560691.853   -34392652.31549 -26762959.69649  15560694.4324   15560701.4494
  14712254.729   -42882216.97249 -33396766.29349  14712256.1484   14712261.7034
  14526327.481   -52827771.52349 -41140587.79149  14526329.5374   14526334.6764
  18672542.961    -2477292.18049  -1899418.14549  18672554.3474   18672566.7924
  16257148.746   -38720341.01949 -30145598.82149  16257151.0044   16257157.0464
  18115915.047   -10478252.67449  -8148197.85149  18115919.9064   18115927.5804
 95  1 31 20 12 29.9790000  0  8 31 22 19 18 29 27 14 28
  18448537.358    -6517557.38849  -5048831.83849  18448540.5994   18448549.8324
  16933976.762   -41536025.06749 -32341284.16549  16933977.7574   16933984.5754
  15539681.918   -34503037.76949 -26848974.33249  15539688.8814   15539695.9234
  14691114.129   -42993316.55049 -33483337.38549  14691114.6864   14691120.4684
  14515503.845   -52884642.48849 -41184902.84449  14515507.1004   14515512.5824
  18645246.417    -2620796.83049  -2011239.88449  18645246.3334   18645260.0464
  16263783.979   -38685469.26749 -30118426.12049  16263787.1194   16263792.9724
  18092692.349   -10600324.64249  -8243318.79949  18092690.4544   18092697.9444
 95  1 31 20 12 59.9790000  0  8 31 22 19 18 29 27 14 28
  18420131.648    -6666839.95049  -5165155.84049  18420131.8154   18420142.2974
  16938956.588   -41509862.55849 -32320897.87849  16938956.0924   16938963.0954
  15518725.189   -34613194.89849 -26934811.05149  15518726.4804   15518733.4644
  14670019.874   -43104166.70149 -33569714.11549  14670020.2964   14670026.4214
  14504745.331   -52941196.35049 -41228970.80449  14504745.3294   14504750.6124
  18617956.965    -2764219.39249  -2122997.62549  18617955.6864   18617966.0484
  16270482.347   -38650272.70049 -30091000.31749  16270484.8504   16270491.0184
  18069510.130   -10722123.86149  -8338227.20449  18069512.8434   18069520.4324
 95  1 31 20 13 29.9790000  0  8 31 22 19 18 29 27 14 28
  18391724.433    -6816110.56049  -5281470.49749  18391726.7044   18391735.9224
  16943996.582   -41483360.77349 -32300247.21349  16943999.4334   16944005.7934
  15497802.516   -34723135.01249 -27020478.66349  15497805.5114   15497812.5974
  14648972.352   -43214763.83249 -33655893.68949  14648974.5344   14648980.3544
  14494046.572   -52997412.08949 -41272775.28649  14494047.6674   14494053.1894
  18590679.471    -2907560.85449  -2234692.28249  18590679.6224   18590689.9864
  16277240.202   -38614754.75149 -30063324.08249  16277243.4374   16277250.0304
  18046388.832   -10843643.31549  -8432917.62049  18046388.6484   18046396.6974
 95  1 31 20 13 59.9790000  0  8 31 22 19 18 29 27 14 28
  18363327.070    -6965337.21649  -5397750.92449  18363328.5434   18363339.7114
  16949101.973   -41456531.43949 -32279341.31949  16949104.5604   16949111.1114
  15476922.391   -34832852.07849 -27105972.46849  15476926.7404   15476934.0394
  14627980.000   -43325085.39549 -33741858.53449  14627980.8764   14627986.7724
  14483415.043   -53053268.47349 -41316299.75249  14483418.7364   14483423.9674
  18563419.508    -3050824.41049  -2346326.17249  18563416.4044   18563427.2434
  16284058.774   -38578922.66849 -30035403.06349  16284062.0364   16284068.8274
  18023316.610   -10964870.62749  -8527380.41749  18023318.8674   18023325.9304
 95  1 31 20 14 29.9790000  0  8 31 22 19 18 29 27 14 28
  18334938.818    -7114535.60749  -5514009.32049  18334936.8854   18334946.9034
  16954271.800   -41429383.00949 -32258186.76249  16954270.8824   16954278.0704
  15456086.900   -34942359.55349 -27191302.95749  15456088.2964   15456095.0304
  14607039.199   -43435120.77849 -33827600.38749  14607042.0664   14607047.8444
  14472859.495   -53108740.13449 -41359524.43249  14472862.8204   14472868.1334
  18536165.078    -3194004.91649  -2457895.33949  18536170.9054   18536181.5994
  16290931.628   -38542806.88349 -30007260.97249  16290933.9774   16290941.8354
  18000304.045   -11085808.84949  -8621617.93649  18000305.2244   18000312.3934
 95  1 31 20 14 59.9790000  0  8 31 22 19 18 29 27 14 28
  18306546.456    -7263704.15649  -5630244.46349  18306550.9084   18306561.6914
  16959493.582   -41401941.36449 -32236803.74849  16959493.2274   16959500.0654
  15435291.141   -35051656.83449 -27276469.65249  15435290.1624   15435296.7274
  14586161.247   -43544847.66249 -33913101.84849  14586161.9534   14586167.6584
  14462383.338   -53163809.21149 -41402435.41749  14462383.6704   14462388.7524
  18508938.193    -3337100.39549  -2569398.28349  18508940.0484   18508951.6204
  16297851.976   -38506435.88549 -29978920.02049  16297854.9774   16297863.4574
  17977347.961   -11206459.43349  -8715631.34249  17977346.0004   17977353.0084
 95  1 31 20 15 29.9790000  0  8 31 22 19 18 29 27 14 28
  18278169.418    -7412846.37249  -5746459.06749  18278173.0784   18278180.0764
  16964766.784   -41374227.64449 -32215208.71049  16964767.1634   16964773.3884
  15414531.183   -35160729.47949 -27361461.30849  15414533.6744   15414541.0344
  14565342.340   -43654252.88949 -33998352.66849  14565343.0774   14565348.4144
  14451976.673   -53218489.46949 -41445043.42749  14451978.3684   14451983.1374
  18481718.421    -3480111.89449  -2680835.76349  18481726.5114   18481737.5284
  16304821.686   -38469826.83349 -29950393.56249  16304821.5214   16304830.0544
  17954437.977   -11326819.76349  -8809418.60849  17954440.9944   17954449.4744
 95  1 31 20 15 59.9790000  0  8 31 22 19 18 29 27 14 28
  18249796.691    -7561978.10149  -5862665.45449  18249794.1484   18249800.7934
  16970090.893   -41346225.70749 -32193389.08049  16970095.0234   16970101.9984
  15393820.673   -35269557.05549 -27446262.00249  15393824.3344   15393832.1134
  14544586.787   -43763327.73449 -34083346.04649  14544586.9334   14544592.3394
  14441646.524   -53272775.50049 -41487344.25049  14441648.3024   14441653.1124
  18454530.396    -3623026.93149  -2792198.08949  18454530.0434   18454540.1124
  16311831.699   -38432981.45049 -29921682.95549  16311832.7394   16311841.5134
  17931592.544   -11446881.69649  -8902973.33149  17931594.8154   17931601.6944
 95  1 31 20 16 29.9790000  0  8 31 22 19 18 29 27 14 28
  18221415.804    -7711110.53359  -5978872.42459  18221415.6214   18221422.1724
  16975483.253   -41317918.15349 -32171331.31549  16975481.7924   16975488.6054
  15373158.569   -35378130.06949 -27530864.34049  15373163.7194   15373171.1584
  14523891.758   -43872080.76549 -34168088.65549  14523891.8604   14523897.1964
  14431389.984   -53326679.79249 -41529347.61549  14431390.5764   14431395.6534
  18427369.140    -3765825.24249  -2903469.39949  18427355.6764   18427366.1884
  16318887.265   -38395883.65749 -29892775.66349  16318892.4224   16318901.6334
  17908802.322   -11566643.22149  -8996293.98549  17908805.1664   17908812.0704
 95  1 31 20 16 59.9790000  0  8 31 22 19 18 29 27 14 28
  18193035.971    -7860233.61849  -6095072.11549  18193037.7614   18193044.6284
  16980923.329   -41289317.24349 -32149044.95349  16980924.5704   16980931.0634
  15352551.795   -35486439.66849 -27615261.41649  15352553.0974   15352560.2344
  14503252.281   -43980535.42349 -34252598.77349  14503253.4664   14503258.9654
  14421193.185   -53380247.69249 -41571088.85849  14421196.8564   14421201.8444
  18400200.168    -3908512.19049  -3014653.93549  18400202.9494   18400214.2864
  16326000.407   -38358532.24749 -29863670.75549  16326000.1654   16326009.2384
  17886071.283   -11686105.47149  -9089381.41649  17886072.4074   17886079.1994
 95  1 31 20 17 29.9790000  0  8 31 22 19 18 29 27 14 28
  18164661.548    -8009347.23749  -6211264.47849  18164662.8604   18164667.8274
  16986425.183   -41260416.42149 -32126524.90349  16986423.9954   16986430.7644
  15331995.003   -35594479.55249 -27699448.32249  15331993.7074   15332000.4324
  14482667.211   -44088703.81749 -34336885.83349  14482669.5294   14482675.0484
  14411060.975   -53433495.86749 -41612580.95749  14411064.2314   14411069.2064
  18373084.356    -4051076.38649  -3125742.81949  18373074.4494   18373085.8544
  16333158.977   -38320911.33649 -29834355.84149  16333159.8974   16333168.0814
  17863397.973   -11805259.46349  -9182228.65649  17863398.7484   17863404.5114
 95  1 31 20 17 59.9790000  0  8 31 22 19 18 29 27 14 28
  18136283.905    -8158447.37649  -6327446.27649  18136290.4534   18136294.1334
  16991978.889   -41231218.65349 -32103773.47049  16991980.3914   16991986.2834
  15311476.075   -35702271.81949 -27783442.28249  15311481.9074   15311488.4864
  14462140.984   -44196580.85449 -34420945.85649  14462141.2474   14462146.9454
  14400989.582   -53486423.99649 -41653823.67149  14400992.0314   14400997.3534
  18345968.241    -4193528.39349  -3236744.32849  18345967.0094   18345975.6204
  16340367.218   -38283027.40549 -29804835.96849  16340369.5174   16340376.9114
  17840780.443   -11924104.66349  -9274835.27249  17840783.4294   17840789.9894
 95  1 31 20 18 29.9790000  0  8 31 22 19 18 29 27 14 28
  18107920.432    -8307507.57359  -6443596.97459  18107924.4404   18107927.7284
  16997588.400   -41201739.03849 -32080802.40349  16997589.8244   16997596.3474
  15291016.125   -35809823.95749 -27867249.14449  15291015.6574   15291022.0164
  14441666.325   -44304156.72249 -34504771.20149  14441670.3794   14441676.0324
  14390980.781   -53539026.40249 -41694812.57849  14390982.1794   14390987.2524
  18318876.848    -4335877.83649  -3347665.92249  18318880.0644   18318887.0834
  16347625.639   -38244892.61949 -29775120.65049  16347626.4474   16347634.1734
  17818224.612   -12042630.61749  -9367193.16049  17818228.4044   17818235.3644
 95  1 31 20 18 59.9790000  0  8 31 22 19 18 29 27 14 28
  18079562.515    -8456528.08349  -6559716.71549  18079566.3544   18079570.6964
  17003248.517   -41172014.66349 -32057640.62649  17003246.7784   17003253.0794
  15270587.133   -35917161.53149 -27950888.79249  15270590.0474   15270596.4834
  14421254.484   -44411434.05749 -34588363.92549  14421255.8574   14421261.7794
  14381033.143   -53591294.57949 -41735541.04249  14381035.9774   14381041.0454
  18291804.473    -4478156.12249  -3458532.10349  18291804.6554   18291811.9324
  16354924.039   -38206539.02849 -29745234.83049  16354924.7904   16354932.2844
  17795733.019   -12160845.78449  -9459308.85949  17795732.6174   17795740.3314
 95  1 31 20 19 29.9790000  0  8 31 22 19 18 29 27 14 28
  18051216.578    -8605501.68149  -6675799.94749  18051216.6174   18051223.0724
  17008951.287   -41142031.16949 -32034276.92849  17008952.1374   17008958.4914
  15250203.089   -36024293.39149 -28034368.15249  15250203.1454   15250210.1694
  14400903.144   -44518380.40349 -34671698.73849  14400904.5464   14400910.5034
  14371158.365   -53643184.04349 -41775974.40949  14371161.9204   14371166.9764
  18264741.046    -4620365.54249  -3569344.59949  18264743.3414   18264751.0974
  16362260.765   -38167971.18649 -29715182.06649  16362264.2234   16362271.1374
  17773296.191   -12278740.81549  -9551175.10649  17773296.9114   17773305.2894
 95  1 31 20 19 59.9790000  0  8 31 22 19 18 29 27 14 28
  18022876.558    -8754417.42549  -6791838.11149  18022879.7334   18022887.4544
  17014706.765   -41111779.92449 -32010704.59349  17014709.2214   17014715.0844
  15229853.744   -36131216.95549 -28117685.20349  15229856.3814   15229862.9584
  14380617.865   -44624987.29249 -34754769.03849  14380617.9874   14380623.7034
  14361358.110   -53694680.38649 -41816101.45149  14361362.4634   14361367.4824
  18237689.861    -4762506.22949  -3680103.55849  18237694.5334   18237703.1254
  16369644.547   -38129191.18449 -29684963.98749  16369644.1164   16369650.2874
  17750918.962   -12396313.31449  -9642790.03749  17750923.2344   17750931.7634
 95  1 31 20 20 29.9790000  0  8 31 22 19 18 29 27 14 28
  17994549.291    -8903264.91849  -6907823.14349  17994554.8594   17994563.2784
  17020513.785   -41081254.52449 -31986918.65049  17020517.9364   17020524.7044
  15209551.792   -36237904.92549 -28200818.67249  15209554.6154   15209560.9234
  14360395.205   -44731258.82649 -34837578.01949  14360395.4174   14360400.9384
  14351637.828   -53745777.94049 -41855917.74949  14351639.1134   14351643.9984
  18210657.784    -4904554.97949  -3790790.83249  18210663.1094   18210673.8904
  16377069.322   -38090183.90649 -29654568.80649  16377067.4804   16377072.9424
  17728613.919   -12513557.71149  -9734149.29149  17728612.1164   17728620.4944
 95  1 31 20 20 59.9790000  0  8 31 22 19 18 29 27 14 28
  17966235.210    -9052076.15649  -7023779.89349  17966235.5704   17966246.0944
  17026381.355   -41050450.15649 -31962915.32649  17026380.2034   17026387.5254
  15189297.515   -36344353.53749 -28283765.61749  15189298.1314   15189304.5344
  14340233.846   -44837201.97549 -34920131.11449  14340235.1594   14340240.5294
  14341985.332   -53796498.59649 -41895440.35849  14341987.2334   14341992.0904
  18183646.012    -5046495.20349  -3901393.55149  18183651.5004   18183663.1944
  16384535.295   -38050932.56049 -29623983.44049  16384536.6304   16384541.4014
  17706365.420   -12630478.37449  -9825256.28849  17706363.6874   17706371.0144
 95  1 31 20 21 29.9790000  0  8 31 22 19 18 29 27 14 28
  17937920.588    -9200845.99249  -7139704.40849  17937926.0104   17937935.6554
  17032297.821   -41019340.20749 -31938673.89449  17032299.7064   17032307.2574
  15169086.214   -36450551.35649 -28366517.13949  15169088.9444   15169095.7314
  14320137.680   -44942803.87949 -35002418.30949  14320139.7394   14320145.2674
  14332404.267   -53846852.06049 -41934676.84449  14332405.2364   14332410.1724
  18156668.017    -5188308.82849  -4011897.63249  18156665.6434   18156676.6614
  16392056.269   -38011414.81549 -29593190.49249  16392056.1744   16392061.3594
  17684178.155   -12747065.24949  -9916103.18149  17684177.9464   17684185.3354
 95  1 31 20 21 59.9790000  0  8 31 22 19 18 29 27 14 28
  17909625.797    -9349581.45549  -7255602.11849  17909621.9554   17909631.6934
  17038270.598   -40987938.22649 -31914204.90749  17038275.3374   17038283.4184
  15148926.318   -36556496.80349 -28449072.01549  15148927.9904   15148934.8634
  14300105.995   -45048083.63549 -35084454.48149  14300105.6234   14300111.0584
  14322886.932   -53896856.32649 -41973641.22449  14322889.5004   14322895.0004
  18129706.335    -5329993.68849  -4122301.34349  18129702.8234   18129714.4964
  16399625.898   -37971627.06549 -29562187.15049  16399627.4444   16399633.5034
  17662055.692   -12863319.19349 -10006690.63649  17662055.4324   17662061.9454
 95  1 31 20 22 29.9790000  0  8 31 22 19 18 29 27 14 28
  17881325.692    -9498296.52249  -7371483.96849  17881322.2214   17881330.6724
  17044301.287   -40956266.76349 -31889525.91549  17044302.4074   17044310.6284
  15128811.181   -36662201.80749 -28531439.53149  15128812.7904   15128819.7814
  14280131.747   -45153047.46249 -35166244.47049  14280131.4604   14280136.9764
  14313439.753   -53946507.09349 -42012330.15649  14313441.4844   14313446.6284
  18102753.957    -5471556.37049  -4232609.83649  18102763.6274   18102776.4634
  16407246.446   -37931576.55649 -29530979.05249  16407248.4264   16407255.2734
  17639993.463   -12979241.35249 -10097019.55349  17639995.7674   17640003.4384
 95  1 31 20 22 59.9790000  0  8 31 22 19 18 29 27 14 28
  17853026.438    -9646986.28949  -7487346.07649  17853026.7144   17853035.7684
  17050379.602   -40924324.01449 -31864635.54949  17050381.5594   17050389.3894
  15108741.420   -36767683.45549 -28613632.99749  15108740.7614   15108747.3324
  14260215.718   -45257697.98949 -35247790.32949  14260217.1814   14260222.6884
  14304056.934   -53995795.35649 -42050736.61749  14304062.2114   14304067.6204
  18075842.158    -5613015.39549  -4342837.61149  18075845.5004   18075857.5384
  16414917.503   -37891264.73049 -29499567.33949  16414919.1934   16414926.2314
  17618003.641   -13094826.06249 -10187085.50249  17618001.5204   17618007.8304
 95  1 31 20 23 29.9790000  0  8 31 22 19 18 29 27 14 28
  17824740.849    -9795627.78049  -7603170.58249  17824740.8384   17824747.8844
  17056510.192   -40892120.33949 -31839541.85449  17056509.9054   17056517.8504
  15088707.966   -36872948.21749 -28695657.45849  15088709.6414   15088715.8794
  14240360.698   -45362042.86949 -35329098.02349  14240360.7524   14240366.7374
  14294755.365   -54044698.43449 -42088842.93549  14294756.5794   14294761.7754
  18048939.854    -5754402.14549  -4453009.05449  18048941.9034   18048952.1304
  16422628.012   -37850719.02149 -29467973.36949  16422634.6654   16422641.7844
  17596068.853   -13210073.27349 -10276888.47749  17596071.0994   17596076.2434
 95  1 31 20 23 59.9790000  0  8 31 22 19 18 29 27 14 28
  17796464.107    -9944203.78049  -7718944.04149  17796468.9424   17796475.2214
  17062680.912   -40859674.15649 -31814259.20249  17062683.5634   17062692.0684
  15068721.726   -36977978.28549 -28777499.04349  15068722.8714   15068729.5274
  14220559.628   -45466084.27149 -35410169.24049  14220562.3404   14220568.4864
  14285525.119   -54093195.84349 -42126633.14849  14285527.4624   14285532.3704
  18022051.199    -5895712.14949  -4563120.67349  18022052.1604   18022061.9384
  16430390.756   -37809946.37649 -29436202.56049  16430393.0794   16430401.2544
  17574207.260   -13324972.04949 -10366419.94249  17574206.5064   17574213.2244
 95  1 31 20 24 29.9790000  0  8 31 22 19 18 29 27 14 28
  17768209.606   -10092700.44249  -7834655.66849  17768211.3064   17768217.4474
  17068899.231   -40826998.24949 -31788797.54449  17068901.4234   17068910.3964
  15048776.832   -37082778.73249 -28859161.71449  15048779.8014   15048787.1804
  14200820.379   -45569815.38949 -35490998.68049  14200822.8014   14200829.1164
  14276373.527   -54141296.41049 -42164114.13549  14276374.3964   14276379.2544
  17995173.080    -6036945.85049  -4673172.88849  17995175.6134   17995185.6654
  16438189.344   -37768960.85649 -29404265.89449  16438191.9954   16438201.1904
  17552410.939   -13439526.79349 -10455683.32549  17552405.8944   17552413.5784
 95  1 31 20 24 59.9780000  0  8 31 22 19 18 29 27 14 28
  17739970.490   -10241096.30549  -7950288.75649  17739972.9104   17739979.9374
  17075164.225   -40794087.65249 -31763153.01049  17075163.2724   17075173.1644
  15028880.789   -37187338.32549 -28940636.71349  15028882.9784   15028889.8344
  14181143.604   -45673219.00349 -35571572.92149  14181145.8554   14181152.0224
  14267291.734   -54189015.69349 -42201298.01449  14267293.6204   14267298.5664
  17968318.336    -6178094.51549  -4783158.84649  17968314.9984   17968323.6544
  16446023.076   -37727780.87149 -29372177.69449  16446028.2704   16446037.8794
  17530674.221   -13553730.34649 -10544673.05549  17530674.5664   17530681.5854
 95  1 31 20 25 29.9780000  0  8 31 22 19 18 29 27 14 28
  17711747.130   -10389398.50949  -8065848.81049  17711752.7914   17711760.7904
  17081471.256   -40760959.21949 -31737338.72449  17081468.5884   17081477.0724
  15009033.040   -37291648.03649 -29021916.99949  15009033.7464   15009040.3324
  14161532.965   -45776284.57649 -35651883.75349  14161533.4534   14161539.2264
  14258281.532   -54236356.67049 -42238187.10849  14258285.2694   14258289.8444
  17941473.221    -6319139.96949  -4893064.40649  17941476.7434   17941482.1204
  16453901.327   -37686407.42749 -29339938.75449  16453902.1184   16453911.8264
  17509013.459   -13667586.10449 -10633391.77649  17509008.6184   17509016.8694
 95  1 31 20 25 59.9780000  0  8 31 22 19 18 29 27 14 28
  17683546.494   -10537603.21659  -8181332.93559  17683550.3514   17683558.9294
  17087811.624   -40727625.25049 -31711364.28749  17087811.3724   17087820.8854
  14989228.044   -37395714.04749 -29103007.39449  14989230.7924   14989237.3374
  14141985.341   -45879006.38149 -35731926.71449  14141986.0004   14141991.9034
  14249341.650   -54283338.60349 -42274796.42749  14249344.9544   14249349.6154
  17914667.652    -6460056.57649  -5002869.54849  17914659.8084   17914666.3444
  16461811.288   -37644833.99749 -29307543.98349  16461813.9344   16461823.1124
  17487405.883   -13781092.96949 -10721838.64149  17487408.5224   17487416.9294
 95  1 31 20 26 29.9780000  0  8 31 22 19 18 29 27 14 28
  17655365.588   -10685722.06549  -8296750.09349  17655364.2884   17655372.4164
  17094199.283   -40694067.36749 -31685215.37249  17094197.4994   17094205.7374
  14969470.326   -37499553.10649 -29183920.94249  14969470.1354   14969477.3664
  14122503.968   -45981381.81949 -35811699.77749  14122504.8904   14122510.7664
  14240471.833   -54329957.47449 -42311122.84149  14240473.6404   14240478.7074
  17887874.949    -6600846.60449  -5112576.02149  17887868.2774   17887877.1744
  16469759.228   -37603066.47949 -29274997.97349  16469762.8794   16469771.8504
  17465876.906   -13894249.28749 -10810012.33449  17465875.7424   17465883.6844
